[[{"header":{"parameterUnit":"m.s-1","parameterCategory":1,"la1":30.6,"la2":29.2853,"lo1":-89.7004,"lo2":-87.6739,"dy":0.0162,"dx":0.0183,"nx":112,"ny":82,"refTime":"2023-06-09T12:00:00:Z","depth":0,"parameterNumber":2,"parameterNumberName":"U-component_of_WINDS"},"data":[0.0,0.0,0.0,0.0,0.0,0.0,0.0,0.0,0.0,0.0,0.0,0.0,0.0,0.0,0.0,0.0,0.0,0.0,0.0,0.0,0.0,0.0,0.0,0.0,0.0,0.0,0.0,0.0,0.0,0.0,0.0,0.0,0.0,0.0,0.0,0.0,0.0,0.0,0.0,0.0,0.0,0.0,0.0,0.0,0.0,0.0,0.0,0.0,0.0,0.0,0.0,0.0,0.0,0.0,0.0,0.0,0.0,0.0,0.0,0.0,0.0,0.0,0.0,0.0,0.0,0.0,0.0,0.0,0.0,0.0,0.0,0.0,0.0,0.0,0.0,0.0,0.0,0.0,0.0,0.0,0.0,0.0,0.0,0.0,0.0,0.0,0.0,0.0,0.0,0.0,-5.7384,-5.785,-5.7881,-5.7881,-5.7881,-5.7881,-5.8063,-5.849,0.0,0.0,0.0,0.0,0.0,0.0,0.0,0.0,0.0,0.0,0.0,0.0,0.0,0.0,0.0,0.0,0.0,0.0,0.0,0.0,0.0,0.0,0.0,0.0,0.0,0.0,0.0,0.0,0.0,0.0,0.0,0.0,0.0,0.0,0.0,0.0,0.0,0.0,0.0,0.0,0.0,0.0,0.0,0.0,0.0,0.0,0.0,0.0,0.0,0.0,0.0,0.0,0.0,0.0,0.0,0.0,0.0,0.0,0.0,0.0,0.0,0.0,0.0,0.0,0.0,0.0,0.0,0.0,0.0,0.0,0.0,0.0,0.0,0.0,0.0,0.0,0.0,0.0,0.0,0.0,0.0,0.0,0.0,0.0,0.0,0.0,0.0,0.0,0.0,0.0,0.0,0.0,0.0,0.0,0.0,0.0,0.0,0.0,0.0,0.0,0.0,0.0,0.0,0.0,-5.7816,-5.7881,-5.7881,-5.7881,-5.7881,-5.7881,-5.8063,-5.849,0.0,0.0,0.0,0.0,0.0,0.0,0.0,0.0,0.0,0.0,0.0,0.0,0.0,0.0,0.0,0.0,0.0,0.0,0.0,0.0,0.0,0.0,0.0,0.0,0.0,0.0,0.0,0.0,0.0,0.0,0.0,0.0,0.0,0.0,0.0,0.0,0.0,0.0,0.0,0.0,0.0,0.0,0.0,0.0,0.0,0.0,0.0,0.0,0.0,0.0,0.0,0.0,0.0,0.0,0.0,0.0,0.0,0.0,0.0,0.0,0.0,0.0,0.0,0.0,0.0,0.0,0.0,0.0,0.0,0.0,0.0,0.0,0.0,0.0,0.0,0.0,0.0,0.0,0.0,0.0,0.0,0.0,0.0,0.0,0.0,0.0,0.0,0.0,0.0,0.0,0.0,0.0,0.0,0.0,0.0,0.0,0.0,0.0,0.0,0.0,0.0,0.0,0.0,-5.8663,-5.9099,-5.9099,-5.9099,-5.893,-5.8524,-5.849,-5.8504,-5.8524,-5.849,0.0,0.0,0.0,0.0,0.0,0.0,0.0,0.0,0.0,0.0,0.0,0.0,0.0,0.0,0.0,0.0,0.0,0.0,0.0,0.0,0.0,0.0,0.0,0.0,0.0,0.0,0.0,0.0,0.0,0.0,0.0,0.0,0.0,0.0,0.0,0.0,0.0,0.0,0.0,0.0,0.0,0.0,0.0,0.0,0.0,0.0,0.0,0.0,0.0,0.0,0.0,0.0,0.0,0.0,0.0,0.0,0.0,0.0,0.0,0.0,0.0,0.0,0.0,0.0,0.0,0.0,0.0,0.0,0.0,0.0,0.0,0.0,0.0,0.0,0.0,0.0,0.0,0.0,0.0,0.0,0.0,0.0,0.0,0.0,0.0,0.0,0.0,0.0,0.0,0.0,0.0,0.0,0.0,0.0,0.0,0.0,0.0,0.0,0.0,0.0,0.0,0.0,-5.9742,-6.0114,-6.0114,-6.0114,-5.9877,-5.9336,-5.9268,-5.918,-5.9001,-5.8866,0.0,0.0,0.0,0.0,0.0,0.0,0.0,0.0,0.0,0.0,0.0,0.0,0.0,0.0,0.0,0.0,0.0,0.0,0.0,0.0,0.0,0.0,0.0,0.0,0.0,0.0,0.0,0.0,0.0,0.0,0.0,0.0,0.0,0.0,0.0,0.0,0.0,0.0,0.0,0.0,0.0,0.0,0.0,0.0,0.0,0.0,0.0,0.0,0.0,0.0,0.0,0.0,0.0,0.0,0.0,0.0,0.0,0.0,0.0,0.0,0.0,0.0,0.0,0.0,0.0,0.0,0.0,0.0,0.0,0.0,0.0,0.0,0.0,0.0,0.0,0.0,0.0,0.0,0.0,0.0,0.0,0.0,0.0,0.0,0.0,0.0,0.0,0.0,0.0,0.0,0.0,0.0,0.0,0.0,0.0,0.0,0.0,0.0,0.0,0.0,0.0,0.0,-6.008,-6.0114,-6.0114,-6.0114,-6.008,-6.0047,-6.0013,-6.0163,-6.0537,-5.9889,0.0,0.0,0.0,0.0,0.0,0.0,0.0,0.0,0.0,0.0,0.0,0.0,0.0,0.0,0.0,0.0,0.0,0.0,0.0,0.0,0.0,0.0,0.0,0.0,0.0,0.0,0.0,0.0,0.0,0.0,0.0,0.0,0.0,0.0,0.0,0.0,0.0,0.0,0.0,0.0,0.0,0.0,0.0,0.0,0.0,0.0,0.0,0.0,0.0,0.0,0.0,0.0,0.0,0.0,0.0,0.0,0.0,0.0,0.0,0.0,0.0,0.0,0.0,0.0,0.0,0.0,0.0,0.0,0.0,0.0,0.0,0.0,0.0,0.0,0.0,0.0,0.0,0.0,0.0,0.0,0.0,0.0,0.0,0.0,0.0,0.0,0.0,0.0,0.0,0.0,0.0,0.0,0.0,0.0,0.0,0.0,0.0,0.0,0.0,0.0,0.0,0.0,-6.1264,-6.1535,0.0,-6.1535,-6.1332,-6.0892,-6.0858,-6.0808,-6.0708,0.0,0.0,0.0,0.0,0.0,0.0,0.0,0.0,0.0,0.0,0.0,0.0,0.0,0.0,0.0,0.0,0.0,0.0,0.0,0.0,0.0,0.0,0.0,0.0,0.0,0.0,0.0,0.0,0.0,0.0,0.0,0.0,0.0,0.0,0.0,0.0,0.0,0.0,0.0,0.0,0.0,0.0,0.0,0.0,0.0,0.0,0.0,0.0,0.0,0.0,0.0,0.0,0.0,0.0,0.0,0.0,0.0,0.0,0.0,0.0,0.0,0.0,0.0,0.0,0.0,0.0,0.0,0.0,0.0,0.0,0.0,0.0,0.0,0.0,0.0,0.0,0.0,0.0,0.0,0.0,0.0,0.0,0.0,0.0,0.0,0.0,0.0,0.0,0.0,0.0,0.0,0.0,0.0,0.0,0.0,0.0,0.0,0.0,0.0,0.0,0.0,0.0,-6.1603,-6.2076,-6.2381,0.0,-6.2381,-6.2178,-6.167,-6.1637,-6.1588,-6.1425,0.0,0.0,0.0,0.0,0.0,0.0,0.0,0.0,0.0,0.0,0.0,0.0,0.0,0.0,0.0,0.0,0.0,0.0,0.0,0.0,0.0,0.0,0.0,0.0,0.0,0.0,0.0,0.0,0.0,0.0,0.0,0.0,0.0,0.0,0.0,0.0,0.0,0.0,0.0,0.0,0.0,0.0,0.0,0.0,0.0,0.0,0.0,0.0,0.0,0.0,0.0,0.0,0.0,0.0,0.0,0.0,0.0,0.0,0.0,0.0,0.0,0.0,0.0,0.0,0.0,0.0,0.0,0.0,0.0,0.0,0.0,0.0,0.0,0.0,0.0,0.0,0.0,0.0,0.0,0.0,0.0,0.0,0.0,0.0,0.0,0.0,0.0,0.0,0.0,0.0,0.0,0.0,0.0,0.0,0.0,0.0,0.0,0.0,0.0,0.0,0.0,0.0,-6.2313,-6.2381,-6.2381,-6.2381,-6.2381,-6.2381,-6.2381,-6.2381,-6.2576,0.0,0.0,0.0,0.0,0.0,0.0,0.0,0.0,0.0,0.0,0.0,0.0,0.0,0.0,0.0,0.0,0.0,0.0,0.0,0.0,0.0,0.0,0.0,0.0,0.0,0.0,0.0,0.0,0.0,0.0,0.0,0.0,0.0,0.0,0.0,0.0,0.0,0.0,0.0,0.0,0.0,0.0,0.0,0.0,0.0,0.0,0.0,0.0,0.0,0.0,0.0,0.0,0.0,0.0,0.0,0.0,0.0,0.0,0.0,0.0,0.0,0.0,0.0,0.0,0.0,0.0,0.0,0.0,0.0,0.0,0.0,0.0,0.0,0.0,0.0,0.0,0.0,0.0,0.0,0.0,0.0,0.0,0.0,0.0,0.0,0.0,0.0,0.0,0.0,0.0,0.0,0.0,0.0,0.0,0.0,0.0,0.0,0.0,0.0,0.0,0.0,0.0,0.0,-6.2347,-6.2381,-6.2381,-6.2381,-6.2381,-6.2381,-6.2381,-6.2381,-6.2576,-6.2962,0.0,0.0,0.0,0.0,0.0,0.0,0.0,0.0,0.0,0.0,0.0,0.0,0.0,0.0,0.0,0.0,0.0,0.0,0.0,0.0,0.0,0.0,0.0,0.0,0.0,0.0,0.0,0.0,0.0,0.0,0.0,0.0,0.0,0.0,0.0,0.0,0.0,0.0,0.0,0.0,0.0,0.0,0.0,0.0,0.0,0.0,0.0,0.0,0.0,0.0,0.0,0.0,0.0,0.0,0.0,0.0,0.0,0.0,0.0,0.0,0.0,0.0,0.0,0.0,0.0,0.0,0.0,0.0,0.0,0.0,0.0,0.0,0.0,0.0,0.0,0.0,0.0,0.0,0.0,0.0,0.0,0.0,0.0,0.0,0.0,0.0,0.0,0.0,0.0,0.0,0.0,0.0,0.0,0.0,0.0,0.0,0.0,0.0,0.0,0.0,0.0,0.0,-6.2498,-6.242,-6.2381,-6.2381,-6.2381,-6.2381,-6.2381,-6.2381,-6.2537,-6.2847,0.0,0.0,0.0,0.0,0.0,0.0,0.0,0.0,0.0,0.0,0.0,0.0,0.0,0.0,0.0,0.0,0.0,0.0,0.0,0.0,0.0,0.0,0.0,0.0,0.0,0.0,0.0,0.0,0.0,0.0,0.0,0.0,0.0,0.0,0.0,0.0,0.0,0.0,0.0,0.0,0.0,0.0,0.0,0.0,0.0,0.0,0.0,0.0,0.0,0.0,0.0,0.0,0.0,0.0,0.0,0.0,0.0,0.0,0.0,0.0,0.0,0.0,0.0,0.0,0.0,0.0,0.0,0.0,0.0,0.0,0.0,0.0,0.0,0.0,0.0,0.0,0.0,0.0,0.0,0.0,0.0,0.0,0.0,0.0,0.0,0.0,0.0,0.0,0.0,0.0,0.0,0.0,0.0,0.0,0.0,0.0,0.0,0.0,0.0,0.0,0.0,0.0,-6.2727,-6.2498,-6.2381,-6.2381,-6.2448,-6.2448,-6.2381,-6.2448,-6.2527,-6.2688,0.0,0.0,0.0,0.0,0.0,0.0,0.0,0.0,0.0,0.0,0.0,0.0,0.0,0.0,0.0,0.0,0.0,0.0,0.0,0.0,0.0,0.0,0.0,0.0,0.0,0.0,0.0,0.0,0.0,0.0,0.0,0.0,0.0,0.0,0.0,0.0,0.0,0.0,0.0,0.0,0.0,0.0,0.0,0.0,0.0,0.0,0.0,0.0,0.0,0.0,0.0,0.0,0.0,0.0,0.0,0.0,0.0,0.0,0.0,0.0,-6.1109,0.0,0.0,0.0,0.0,0.0,0.0,0.0,0.0,0.0,0.0,0.0,0.0,0.0,0.0,0.0,0.0,0.0,0.0,0.0,0.0,0.0,0.0,0.0,0.0,0.0,0.0,0.0,0.0,0.0,0.0,0.0,0.0,0.0,0.0,0.0,0.0,0.0,0.0,0.0,0.0,0.0,-6.2727,-6.2498,-6.2381,-6.2381,-6.2922,-6.3024,-6.2448,-6.2922,-6.3103,-6.2688,-6.2727,0.0,0.0,0.0,0.0,0.0,0.0,0.0,0.0,0.0,0.0,0.0,0.0,0.0,0.0,0.0,0.0,0.0,0.0,0.0,0.0,0.0,0.0,0.0,0.0,0.0,0.0,0.0,0.0,0.0,0.0,0.0,0.0,0.0,0.0,0.0,0.0,0.0,0.0,0.0,0.0,0.0,0.0,0.0,0.0,0.0,0.0,0.0,0.0,0.0,0.0,0.0,0.0,0.0,0.0,0.0,0.0,0.0,0.0,0.0,0.0,-6.1541,0.0,0.0,0.0,0.0,0.0,0.0,0.0,0.0,0.0,0.0,0.0,0.0,0.0,0.0,0.0,0.0,0.0,0.0,0.0,0.0,0.0,0.0,0.0,0.0,0.0,0.0,0.0,0.0,0.0,0.0,0.0,0.0,0.0,0.0,0.0,0.0,0.0,0.0,0.0,0.0,-6.3898,-6.3662,-6.3463,-6.3463,-6.3802,-6.3869,-6.3497,-6.3802,-6.3774,-6.3148,-6.3158,0.0,0.0,0.0,0.0,0.0,0.0,0.0,0.0,0.0,0.0,0.0,0.0,0.0,0.0,0.0,0.0,0.0,0.0,0.0,0.0,0.0,0.0,0.0,0.0,0.0,0.0,0.0,0.0,0.0,0.0,0.0,0.0,0.0,0.0,0.0,0.0,0.0,0.0,0.0,0.0,0.0,0.0,0.0,0.0,0.0,0.0,0.0,0.0,0.0,0.0,0.0,0.0,0.0,-6.2649,-6.2649,-6.2615,-6.2459,-6.2498,-6.2615,-6.2459,-6.2498,-6.2649,-6.2649,0.0,0.0,0.0,0.0,0.0,0.0,0.0,0.0,0.0,0.0,0.0,0.0,0.0,0.0,0.0,0.0,0.0,0.0,0.0,0.0,0.0,0.0,0.0,0.0,-6.2872,-6.2897,-6.3051,0.0,0.0,0.0,0.0,0.0,0.0,0.0,0.0,0.0,0.0,0.0,-6.5141,-6.4822,-6.4613,-6.4613,-6.4715,-6.4749,-6.4613,-6.4715,-6.4478,-6.3768,-6.3724,-6.3503,0.0,0.0,0.0,0.0,0.0,0.0,0.0,0.0,0.0,0.0,0.0,0.0,0.0,0.0,0.0,0.0,0.0,0.0,0.0,0.0,0.0,0.0,0.0,0.0,0.0,0.0,0.0,0.0,0.0,0.0,0.0,0.0,-5.6132,-5.6235,0.0,0.0,0.0,0.0,0.0,0.0,0.0,0.0,0.0,0.0,0.0,0.0,0.0,-6.2676,-6.2324,-6.262,-6.2615,-6.242,-6.242,-6.242,-6.242,-6.242,-6.242,-6.242,-6.242,0.0,-6.242,-6.242,0.0,0.0,0.0,0.0,0.0,0.0,0.0,0.0,0.0,0.0,0.0,0.0,0.0,0.0,0.0,0.0,0.0,0.0,0.0,0.0,0.0,0.0,-6.2459,-6.2459,-6.2928,-6.3402,0.0,-6.3208,-6.3,-6.2962,-6.3,-6.3281,0.0,0.0,0.0,0.0,0.0,0.0,-6.4983,-6.4742,-6.4613,-6.4613,-6.5155,-6.529,-6.4647,-6.5189,-6.5222,-6.4512,-6.3869,-6.3583,-6.3679,-6.3072,0.0,0.0,0.0,0.0,0.0,0.0,0.0,0.0,0.0,0.0,0.0,0.0,0.0,0.0,0.0,0.0,0.0,0.0,0.0,0.0,0.0,0.0,0.0,0.0,0.0,0.0,0.0,0.0,0.0,-5.6064,-5.6541,-5.7801,-5.7668,-5.8115,0.0,0.0,0.0,0.0,0.0,0.0,0.0,0.0,0.0,-6.2693,-6.2654,-6.2576,-6.2381,-6.2498,-6.2498,-6.2381,-6.2821,-6.3024,-6.3024,-6.3463,-6.3632,-6.3632,-6.3632,-6.3632,-6.3565,-6.2719,-6.2459,-6.2576,0.0,0.0,0.0,0.0,-6.3273,-6.3576,-6.3499,-6.3733,-6.4074,-6.4074,0.0,0.0,0.0,0.0,0.0,0.0,0.0,0.0,0.0,0.0,-6.3792,-6.3672,-6.3869,-6.414,-6.414,-6.403,-6.3872,-6.3718,-6.3995,-6.4254,-6.4245,-6.4931,0.0,0.0,0.0,-6.6079,-6.5997,-6.5665,-6.5455,-6.5455,-6.5884,-6.5994,-6.569,-6.6052,-6.6,-6.5256,-6.4546,-6.3977,-6.3617,-6.3023,-6.277,0.0,0.0,0.0,0.0,0.0,0.0,0.0,0.0,0.0,0.0,0.0,0.0,0.0,0.0,0.0,0.0,0.0,0.0,0.0,0.0,0.0,0.0,0.0,0.0,0.0,0.0,0.0,0.0,-5.6814,-5.7489,-5.9321,-5.9125,-5.9439,0.0,0.0,0.0,0.0,0.0,0.0,-6.2813,-6.2693,-6.2615,-6.2615,-6.2459,-6.2482,-6.2685,-6.2685,-6.2787,-6.2956,-6.3531,-6.3802,-6.3802,-6.4343,-6.4613,-6.4613,-6.4613,-6.4613,-6.4512,-6.3429,-6.3035,-6.3192,-6.3192,-6.3271,-6.3426,-6.3426,-6.3767,-6.4205,-6.4047,-6.4347,-6.4822,-6.4822,-6.4862,-6.4943,-6.5062,0.0,0.0,0.0,0.0,-6.5062,-6.4862,-6.4822,-6.4782,-6.4654,-6.4749,-6.4884,-6.4884,-6.506,-6.5094,0.0,-6.4742,-6.4971,-6.4694,-6.5529,0.0,0.0,0.0,-6.6854,-6.6728,-6.6473,-6.6268,-6.6182,-6.643,-6.6592,-6.6592,-6.6686,-6.6576,-6.6,-6.529,-6.4647,-6.4106,-6.3351,-6.2921,-6.2999,0.0,0.0,0.0,0.0,0.0,0.0,0.0,0.0,0.0,0.0,0.0,0.0,0.0,0.0,0.0,0.0,0.0,0.0,0.0,0.0,0.0,0.0,0.0,0.0,0.0,0.0,0.0,0.0,0.0,-5.9983,-6.005,0.0,0.0,0.0,0.0,-6.2591,-6.2503,-6.2386,-6.242,-6.242,-6.242,-6.242,-6.2381,-6.2719,-6.3463,-6.3463,-6.3802,-6.4478,-6.4546,-6.4546,-6.4546,-6.458,-6.4613,-6.4613,-6.4613,-6.4613,-6.458,-6.4512,-6.4478,-6.4478,-6.4478,-6.4478,-6.4519,-6.4519,-6.4553,-6.4586,-6.4546,-6.458,-6.4613,-6.4613,-6.4742,-6.4903,-6.4903,-6.5062,0.0,0.0,-6.4943,-6.4862,-6.4695,-6.4613,-6.458,-6.4613,-6.5121,-6.5628,-6.5628,-6.6403,-6.6554,0.0,-6.4613,-6.4898,-6.5773,0.0,-6.6262,-6.701,-6.7146,-6.7014,-6.655,-6.6643,-6.6686,-6.6507,-6.6643,-6.677,-6.677,-6.677,-6.6779,-6.6779,-6.6034,-6.5628,-6.5561,-6.4208,-6.3543,-6.3747,-6.3067,0.0,0.0,0.0,0.0,0.0,0.0,0.0,0.0,0.0,0.0,0.0,0.0,0.0,0.0,0.0,0.0,0.0,0.0,0.0,0.0,0.0,0.0,0.0,0.0,0.0,0.0,0.0,0.0,-6.0791,-6.0973,0.0,-6.2024,-6.2164,-6.2266,-6.2498,-6.242,-6.2381,-6.2381,-6.2854,-6.3125,-6.3125,-6.3565,-6.3937,-6.4208,-6.4208,-6.4343,-6.4613,-6.5087,-6.529,-6.5324,-6.5797,-6.6034,-6.6034,-6.6034,-6.6034,-6.6034,-6.6034,-6.5459,-6.4613,-6.4613,-6.4613,-6.4613,-6.4613,-6.4884,-6.529,-6.529,-6.5628,-6.6034,-6.6034,-6.6042,-6.6125,-6.6125,-6.6166,-6.6207,-6.6125,-6.6125,-6.6117,-6.6034,-6.6034,-6.6034,-6.6034,-6.6237,-6.6406,-6.6406,-6.6685,-6.6761,-6.6136,-6.6159,-6.6302,-6.6323,-6.644,-6.655,-6.6728,-6.6762,-6.6677,-6.6507,-6.643,-6.6311,-6.6259,-6.643,-6.6635,-6.6635,-6.6728,-6.6812,-6.6812,-6.6102,-6.5696,-6.5696,-6.4749,-6.4248,-6.4328,-6.4177,-6.4001,0.0,0.0,0.0,0.0,0.0,0.0,0.0,0.0,0.0,0.0,0.0,0.0,0.0,0.0,0.0,0.0,0.0,0.0,0.0,0.0,0.0,0.0,0.0,0.0,0.0,0.0,-6.0867,-6.1569,-6.1787,-6.1995,-6.2386,-6.2498,-6.2537,-6.242,-6.2618,-6.2753,-6.2753,-6.3463,-6.3869,-6.3869,-6.4343,-6.485,-6.5358,-6.5358,-6.5595,-6.6136,-6.6609,-6.6846,-6.6846,-6.7354,-6.759,-6.759,-6.759,-6.759,-6.759,-6.759,-6.6846,-6.5696,-6.5459,-6.5358,-6.5358,-6.5358,-6.5662,-6.6068,-6.6068,-6.6406,-6.6812,-6.6812,-6.6812,-6.6812,-6.6812,-6.6812,-6.6812,-6.6812,-6.6812,-6.6812,-6.6812,-6.6812,-6.6812,-6.6812,-6.6812,-6.6812,-6.6812,-6.6812,-6.6812,-6.6812,-6.6938,-6.6972,-6.6677,-6.6686,-6.677,-6.672,-6.6677,-6.6592,-6.6592,-6.6473,-6.6311,-6.6259,-6.643,-6.6592,-6.6592,-6.6804,-6.6896,-6.6812,-6.6422,-6.6151,-6.6068,-6.544,-6.5074,-6.5074,-6.5039,-6.4824,-6.4464,0.0,0.0,0.0,0.0,0.0,0.0,0.0,0.0,0.0,0.0,0.0,0.0,0.0,0.0,0.0,0.0,0.0,0.0,0.0,0.0,0.0,0.0,0.0,-6.1499,-6.1533,-6.1728,-6.2352,-6.2381,-6.2381,-6.2381,-6.2415,-6.2415,-6.2415,-6.3125,-6.3531,-6.3531,-6.4241,-6.4647,-6.4681,-6.4681,-6.5392,-6.688,-6.688,-6.7624,-6.9113,-6.9113,-6.9113,-6.9113,-6.9113,-6.9113,-6.9113,-6.9113,-6.9113,-6.9113,-6.9113,-6.8639,-6.7861,-6.7117,-6.6846,-6.6812,-6.6812,-6.6812,-6.6812,-6.6812,-6.6812,-6.6812,-6.6812,-6.6812,-6.6812,-6.6812,-6.6812,-6.6812,-6.6812,-6.6812,-6.6812,-6.6812,-6.6812,-6.6812,-6.6812,-6.6812,-6.6812,-6.6846,-6.6846,-6.6846,-6.688,-6.688,-6.688,-6.6812,-6.6812,-6.693,-6.7173,-6.7006,0.0,-6.688,-6.688,-6.6796,-6.6617,-6.6753,-6.6846,-6.6846,-6.709,-6.7131,-6.6812,-6.7056,-6.7056,-6.6812,-6.6268,-6.6018,-6.6024,-6.5477,-6.5147,-6.5221,0.0,0.0,0.0,0.0,0.0,0.0,0.0,0.0,0.0,0.0,0.0,0.0,0.0,0.0,0.0,0.0,0.0,0.0,0.0,0.0,0.0,0.0,-6.214,-6.1443,-6.1816,-6.2222,-6.2381,-6.2381,-6.2381,-6.2381,-6.2888,-6.3193,-6.3193,-6.3903,-6.4309,-6.4309,-6.4986,-6.5628,-6.6203,-6.6711,-6.7489,-6.847,-6.847,-6.8673,-6.9113,-6.9113,-6.9113,-6.9113,-6.9113,-6.9113,-6.9113,-6.9113,-6.9113,-6.9113,-6.9113,-6.8977,-6.8707,-6.7895,-6.7286,-6.6812,-6.6812,-6.6812,-6.6812,-6.6812,-6.6812,-6.6812,-6.7056,-6.6972,-6.6812,-6.7056,-6.6938,-6.6812,-6.6812,-6.6812,-6.6812,-6.6812,-6.6812,-6.6812,-6.6812,-6.6812,-6.6948,-6.7489,-6.759,-6.776,-6.8368,-6.847,-6.8132,-6.7015,-6.6812,-6.6981,-6.7608,-6.7633,0.0,-6.8402,-6.7963,-6.787,-6.854,-6.8176,-6.7878,-6.7878,-6.7954,-6.7641,-6.6846,-6.6854,-6.6854,-6.6812,-6.6651,-6.6445,-6.6227,-6.5044,-6.4713,0.0,0.0,0.0,0.0,0.0,0.0,0.0,0.0,0.0,0.0,0.0,0.0,0.0,0.0,0.0,0.0,0.0,0.0,0.0,0.0,0.0,0.0,-6.2498,-6.2363,-6.1806,-6.211,-6.2381,-6.2381,-6.2381,-6.2516,-6.2821,-6.326,-6.3632,-6.3937,-6.4647,-6.5189,-6.5527,-6.6203,-6.6981,-6.776,-6.8199,-6.8774,-6.9553,-6.9553,-6.9722,-7.0026,-7.0331,-7.05,-7.05,-7.0804,-7.0939,-7.0939,-7.0939,-7.0939,-7.0939,-7.0939,-7.077,0.0,0.0,0.0,0.0,0.0,-6.776,-6.7726,-6.7514,-6.7413,-6.7421,-6.7365,-6.7222,-6.7105,-6.7304,-6.7384,-6.7413,-6.7413,-6.7608,-6.776,-6.776,-6.776,-6.776,-6.776,-6.776,-6.7895,-6.8301,-6.8402,-6.8538,-6.9011,-6.9113,0.0,-6.7929,-6.776,-6.7971,-6.8463,-6.8445,-6.8615,-6.9141,-6.8716,-6.8615,-6.9228,-6.8888,-6.8651,-6.8651,-6.843,0.0,0.0,0.0,-6.6972,-6.6972,-6.7022,0.0,0.0,0.0,-6.5596,-6.5704,0.0,0.0,0.0,-6.291,-6.238,0.0,0.0,0.0,0.0,0.0,0.0,0.0,0.0,0.0,0.0,0.0,0.0,0.0,0.0,0.0,0.0,-6.2537,-6.2381,-6.2381,-6.2448,-6.2482,-6.2415,-6.2448,-6.2787,-6.3463,-6.3666,-6.4072,-6.4783,-6.5459,-6.617,-6.7015,0.0,0.0,0.0,0.0,-6.962,-7.0432,-7.0432,-7.0804,-7.1582,-7.2225,-7.2529,-7.2563,-7.3206,-7.3443,-7.3375,-7.3375,-7.3375,-7.3341,-7.3274,-7.2914,-7.2101,-7.0026,-6.918,-6.9113,-6.9113,-6.9113,-6.9055,-6.8557,0.0,0.0,-6.783,-6.7708,-6.7708,-6.7749,-6.8103,-6.8447,-6.8447,-6.8786,-6.9122,-6.9113,-6.9113,-6.9113,-6.9113,-6.9113,-6.9113,-6.9214,-6.9214,-6.9248,-6.935,-6.935,-6.935,-6.935,-6.9214,-6.92,-6.944,-6.9345,-6.9335,-6.9576,-6.9412,-6.9248,-6.9393,0.0,0.0,-6.9258,-6.8786,-6.8388,-6.803,-6.7565,-6.7282,-6.718,-6.7284,-6.7373,-6.7373,-6.727,-6.6807,-6.5984,-6.4971,-6.4125,-6.341,-6.3303,-6.2797,0.0,0.0,0.0,0.0,0.0,0.0,0.0,0.0,0.0,0.0,0.0,0.0,0.0,0.0,0.0,-6.2765,-6.2537,-6.2381,-6.2381,-6.2922,-6.3057,-6.2448,-6.2922,-6.3362,-6.3497,-6.458,-6.5595,-6.6339,-6.6508,-6.7184,-6.8571,-6.8166,-6.8538,-6.9925,-6.9992,-7.0635,-7.1954,-7.1954,-7.2326,-7.3071,0.0,0.0,-7.3274,-7.3409,-7.3172,-7.2597,-7.2597,-7.2597,-7.2563,-7.1988,-7.1706,-7.1647,-7.0453,-6.962,-6.9113,-6.9113,-6.9113,-6.9079,-6.8987,-6.8963,-6.8929,-6.9016,-6.9033,-6.9076,-6.9202,-6.9381,0.0,-6.9238,-6.9254,-6.9304,-6.9122,-6.9113,-6.9113,-6.9113,-6.9113,-6.9248,-6.9857,-6.9992,-7.0161,-7.077,-7.0872,-7.0872,-7.0872,-6.9891,-6.9316,-6.9979,-7.0002,-7.0239,-7.0849,-7.0409,-7.0284,-7.1036,-7.0561,-7.0221,-7.0221,-7.0129,-6.9746,-6.891,-6.8175,-6.7582,-6.7214,-6.6773,-6.6553,-6.6553,-6.5972,-6.5784,-6.5984,-6.5436,-6.5093,-6.4925,-6.3114,-6.2091,0.0,0.0,0.0,0.0,0.0,0.0,0.0,0.0,0.0,0.0,0.0,-6.3299,0.0,0.0,-6.2923,-6.2731,-6.2537,-6.2555,-6.3046,-6.3419,-6.3481,-6.299,-6.3599,-6.4208,-6.458,-6.5256,-6.6,-6.6745,-6.7151,-6.7861,-6.9045,-6.9079,-6.9722,-7.1244,-7.1278,-7.1819,-7.2935,-7.2935,-7.3138,-7.3477,-7.3883,-7.4052,-7.4052,-7.4424,-7.439,-7.4052,-7.4052,-7.4098,-7.4238,-7.4002,-7.3527,-7.2867,-7.2359,-7.1454,-7.0338,-7.0503,-7.0459,-7.0347,-7.0191,-7.014,-7.0115,-6.9951,-6.9898,-6.994,-7.0023,-7.0256,-7.0438,-7.0192,-7.0293,-7.0435,-7.0239,-7.0195,-7.0195,-7.0195,-7.0195,-7.0297,-7.0669,-7.0737,-7.0872,-7.1244,-7.1312,-7.1312,-7.1312,-7.0703,-7.0331,-7.0703,-7.0737,-7.0872,-7.1278,-7.0973,-7.0916,-7.1423,-7.1118,-7.0914,-7.0914,-7.0575,-6.9989,-6.9147,-6.8707,-6.8251,-6.7758,-6.7475,-6.7141,-6.6766,-6.6391,-6.6099,-6.5861,-6.5655,-6.5327,-6.4998,-6.393,-6.3303,0.0,0.0,0.0,0.0,0.0,0.0,0.0,0.0,-6.3135,-6.2921,-6.3261,-6.3526,-6.334,-6.3,-6.2799,-6.2935,-6.278,-6.3012,-6.3956,-6.4234,-6.4257,-6.4057,-6.46,-6.5176,-6.5711,-6.605,-6.6482,-6.7184,-6.7836,-6.8581,-6.9485,-7.0182,-7.1096,-7.236,-7.2575,-7.3015,-7.3713,-7.3713,-7.3781,-7.3916,-7.4525,-7.483,-7.483,-7.5486,-7.5703,-7.5567,-7.5615,-7.5688,-7.5807,-7.6129,-7.5516,-7.4295,-7.4295,-7.341,-7.2185,-7.2044,-7.1854,-7.1664,-7.1431,-7.1353,-7.1293,-7.0884,-7.076,-7.0801,-7.0801,-7.109,-7.1438,-7.1106,-7.1343,-7.16,-7.1356,-7.1312,-7.1312,-7.1312,-7.1312,-7.1312,-7.1312,-7.1312,-7.1345,-7.1515,-7.1515,-7.1582,-7.1718,-7.1616,-7.1481,-7.1345,-7.1312,-7.1312,-7.1312,-7.1312,-7.1312,-7.1312,-7.1312,-7.1312,-7.1312,-7.077,-7.0094,-6.935,-6.9316,-6.9107,-6.8583,-6.8549,-6.8208,-6.7501,-6.7426,-6.6928,-6.5982,-6.5982,-6.5677,-6.5142,-6.5264,-6.4972,-6.116,-6.1555,-6.2157,-6.2961,-6.2997,-6.3031,0.0,0.0,-6.3752,-6.3535,-6.3568,-6.3526,-6.334,-6.3114,-6.3167,-6.3815,-6.3796,-6.399,-6.4976,-6.5733,-6.6103,-6.6063,-6.6131,-6.6119,-6.5984,-6.7207,-6.8209,-6.8774,-6.9092,-6.977,-7.1007,-7.1542,-7.1995,-7.236,-7.3266,-7.3978,-7.4492,-7.4492,-7.483,-7.5439,-7.554,-7.5574,-7.5574,-7.5913,-7.5701,-7.5102,-7.5333,-7.5083,-7.4547,-7.5276,-7.5127,-7.4552,-7.4552,-7.4449,-7.4096,-7.2585,-7.1985,-7.1942,-7.1926,-7.1926,-7.1892,-7.1867,-7.1962,-7.2099,-7.2099,-7.2295,-7.2406,-7.1978,-7.1917,-7.1854,-7.1401,-7.1312,-7.1312,-7.1312,-7.1312,-7.1312,-7.1312,-7.1312,-7.1515,-7.2157,-7.2293,-7.2496,-7.3138,-7.2699,-7.2056,-7.1413,-7.1312,-7.1312,-7.1312,-7.1312,-7.1312,-7.1312,-7.1312,-7.1312,-7.1312,-7.1244,-7.0872,-7.0094,-7.006,-6.994,-6.9543,-6.9374,-6.8999,-6.8425,-6.8292,-6.7792,-6.7003,-6.7003,-6.6969,-6.6901,-6.6942,-6.6072,-6.2086,-6.2473,0.0,0.0,-6.3407,-6.3404,-6.3677,-6.371,-6.371,-6.3637,-6.3526,-6.3452,-6.3452,-6.357,-6.3756,0.0,-6.4469,-6.501,-6.5999,-6.6376,-6.6793,-6.7324,-6.7811,-6.7924,-6.7523,-6.8103,-6.8743,-6.9476,-7.0379,-7.0958,-7.1066,-7.2512,-7.3321,-7.3266,-7.4241,-7.491,-7.5236,-7.5552,-7.602,-7.6591,-7.6734,-7.7019,-7.7475,-7.757,-7.7481,-7.7255,-7.7455,-7.7376,-7.7114,-7.7148,-7.6757,-7.6045,-7.5633,-7.5185,-7.4703,-7.3963,-7.3591,-7.3538,-7.3635,-7.3679,-7.3679,-7.3679,-7.3722,-7.3809,-7.3809,-7.3895,-7.3895,-7.3416,-7.3283,-7.3195,-7.27,-7.2563,-7.2563,-7.2563,-7.2563,-7.2563,-7.2563,-7.2563,-7.2665,-7.2969,-7.3037,-7.3138,-7.3443,-7.324,-7.2935,-7.2631,-7.1853,-7.1312,-7.1312,-7.1312,-7.1312,-7.1312,-7.1312,-7.1312,-7.1312,-7.1312,-7.1176,-7.0872,-7.0838,-7.0721,-7.0337,-7.0036,-6.9653,-6.9252,-6.8948,-6.8447,-6.7826,-6.7952,-6.7837,-6.7516,-6.7516,-6.7093,-6.324,0.0,0.0,-6.3681,-6.371,-6.3673,-6.36,-6.3637,-6.3673,-6.36,-6.3661,-6.3724,-6.3873,-6.4267,0.0,-6.5023,-6.5421,-6.6034,-6.6951,-6.7089,-6.7409,-6.8325,-6.8946,-6.9307,-6.9399,-6.9343,-6.9643,-7.0354,-7.1456,-7.2038,-7.1848,-7.3484,-7.4432,-7.4321,-7.5265,-7.5924,-7.6252,-7.6616,-7.7085,-7.7611,-7.7801,-7.8169,-7.8681,-7.8776,-7.8755,-7.8713,-7.8865,-7.8878,-7.889,-7.827,-7.7879,-7.7465,-7.6706,-7.6041,-7.5524,-7.5524,-7.516,-7.4728,-7.486,-7.4903,-7.4903,-7.4903,-7.4903,-7.4903,-7.4903,-7.4903,-7.4782,-7.434,-7.4172,-7.4082,-7.3615,-7.3477,-7.3477,-7.3477,-7.3477,-7.3477,-7.3477,-7.3477,-7.3544,-7.3747,-7.3781,-7.3849,-7.4052,-7.3916,-7.3781,-7.3781,-7.2732,-7.1921,-7.1921,-7.1751,-7.1616,-7.1616,-7.1447,-7.1312,-7.1312,-7.1312,-7.1312,-7.1312,-7.1312,-7.1219,-7.1036,-7.0687,-7.0347,-7.0029,-6.9687,-6.9271,-6.8785,-6.8952,-6.8802,-6.8336,-6.813,-6.7865,0.0,0.0,-6.418,-6.418,-6.4036,-6.382,-6.3637,-6.3747,-6.3854,-6.3637,-6.4152,-6.4669,-6.4669,-6.5172,-6.5852,-6.6768,-6.675,-6.6986,-6.794,-6.8049,-6.8359,-6.9153,-6.9296,-6.9842,0.0,-7.1255,-7.1345,-7.1883,-7.2167,-7.2819,-7.4114,-7.465,-7.4994,-7.5345,-7.6245,-7.6999,-7.7554,-7.7554,-7.793,-7.8647,-7.8647,-7.8681,-7.8681,-7.8965,-7.8855,-7.8385,-7.843,-7.843,-7.8361,-7.7568,-7.7706,-7.8292,-7.7499,-7.7154,-7.7154,-7.7154,-7.6179,-7.4903,-7.4903,-7.4903,-7.4903,-7.4903,-7.4903,-7.4903,-7.4903,-7.4903,-7.4782,-7.434,-7.4172,-7.4082,-7.3615,-7.3477,-7.3477,-7.3477,-7.3477,-7.3477,-7.3477,-7.3477,-7.3713,-7.4424,-7.4593,-7.4796,-7.5506,-7.5033,-7.4593,-7.4593,-7.3916,-7.3409,-7.3409,-7.28,-7.236,-7.236,-7.1751,-7.1312,-7.1312,-7.1312,-7.1312,-7.1312,-7.1312,-7.1367,-7.1566,-7.1378,-7.1162,-7.0892,-7.0565,-7.032,-7.0031,-7.0031,-6.9906,-6.9628,-6.891,-6.8326,0.0,0.0,-6.4323,-6.4216,-6.4144,-6.4072,-6.382,-6.382,-6.3958,-6.4258,-6.4531,-6.4841,-6.5393,-6.6079,-6.6626,-6.6945,-6.7354,-6.7729,-6.8049,-6.8566,-6.898,-6.9296,-7.0153,0.0,0.0,0.0,0.0,-7.239,-7.343,-7.4015,-7.3972,-7.5549,-7.6149,-7.5639,-7.7101,-7.7766,-7.7588,-7.7949,-7.8694,-7.9754,-8.0411,-8.0781,-8.0747,-8.0325,-7.9993,-7.9844,-7.9362,-7.9155,-7.9086,-7.8327,-7.8154,-7.8327,-7.7534,-7.7223,-7.7223,-7.7223,-7.6834,-7.642,-7.642,-7.642,-7.642,-7.642,-7.642,-7.642,-7.642,-7.642,-7.6341,-7.5993,-7.5846,-7.5617,-7.5293,-7.5106,-7.4965,-7.4965,-7.4965,-7.4965,-7.4965,-7.4965,-7.5033,-7.527,-7.5337,-7.5405,-7.5676,-7.5506,-7.5337,-7.5337,-7.4289,-7.3477,-7.3477,-7.3274,-7.3105,-7.3105,-7.2462,-7.2022,-7.2022,-7.1582,-7.1312,-7.1312,-7.1312,-7.1491,-7.1854,-7.1634,-7.1586,-7.1825,-7.1609,-7.1277,-7.082,-7.082,-7.0538,-6.9974,-6.97,-6.9312,0.0,-6.4498,-6.4358,-6.4287,-6.4287,-6.4251,-6.4037,-6.428,-6.4593,-6.486,-6.5342,-6.5965,-6.6796,-6.7277,-6.758,-6.7856,-6.8019,-6.8187,-6.8463,-6.8946,-6.9497,-7.0015,-7.0912,0.0,0.0,0.0,0.0,-7.3429,-7.4119,-7.4671,-7.4981,-7.6154,-7.6755,-7.6689,-7.7788,-7.8362,-7.8279,-7.8592,-7.92,-7.999,-8.0647,-8.0983,-8.0948,-8.0465,-8.0086,-7.981,-7.9327,-7.912,-7.9051,-7.8292,-7.8154,-7.8327,-7.7534,-7.7223,-7.7223,-7.7223,-7.7223,-7.7223,-7.7223,-7.7223,-7.7223,-7.7223,-7.7223,-7.7223,-7.7223,-7.7223,-7.7133,-7.6873,-7.6645,-7.6449,-7.6169,-7.5899,-7.5709,-7.5709,-7.5709,-7.5709,-7.5709,-7.5709,-7.5709,-7.5709,-7.5709,-7.5709,-7.5709,-7.5709,-7.5709,-7.5709,-7.4897,-7.4289,-7.4289,-7.4052,-7.3883,-7.3883,-7.324,-7.2699,-7.2428,-7.1988,-7.1627,-7.1446,-7.1412,-7.1546,-7.1854,-7.1776,-7.1864,-7.2202,-7.2115,-7.1962,-7.1737,-7.1737,-7.1412,-7.0762,-7.0523,-7.0132,-6.4946,-6.4706,-6.4428,-6.4428,-6.4428,-6.4393,-6.4286,-6.495,-6.5581,-6.5435,-6.6582,-6.7835,0.0,0.0,-6.8639,-6.9402,-6.8759,-6.8359,-6.9193,-6.9325,-6.9877,0.0,0.0,0.0,0.0,0.0,0.0,-7.4869,0.0,-7.4843,-7.7051,-7.6533,-7.6878,-7.8361,-7.8396,-7.8741,-7.95,-7.95,-7.95,-7.9465,-7.95,-7.95,-7.95,-7.9465,-7.9086,-7.8396,-7.8361,-7.8361,-7.8292,-7.7534,-7.7672,-7.8258,-7.7534,-7.7223,-7.7223,-7.7223,-7.7223,-7.7223,-7.7223,-7.7223,-7.7223,-7.7223,-7.7223,-7.7223,-7.7223,-7.7223,-7.7178,-7.6918,-7.6691,-7.6449,-7.6216,-7.5899,-7.5709,-7.5709,-7.5709,-7.5709,-7.5709,-7.5709,-7.5709,-7.5709,-7.5709,-7.5709,-7.5709,-7.5709,-7.5709,-7.5709,-7.5709,-7.5709,-7.5709,-7.51,-7.4661,-7.4661,-7.3984,-7.3274,-7.2563,-7.2428,-7.218,-7.1702,-7.16,-7.16,-7.16,-7.1898,-7.1985,-7.1985,-7.2202,-7.2459,-7.2713,-7.2713,-7.2459,-7.1985,-7.1268,-7.0745,-6.4775,-6.4706,-6.4637,-6.4637,-6.4637,-6.4708,-6.5127,-6.5441,-6.5895,-6.6793,-6.7313,-6.78,0.0,0.0,0.0,-6.8674,-6.8379,0.0,-6.9193,-6.9739,0.0,0.0,0.0,-7.2671,-7.3429,-7.3671,0.0,0.0,-7.5637,-7.5775,-7.6361,-7.674,-7.7396,-7.8361,-7.8396,-7.8741,-7.95,-7.95,-7.9224,-7.8706,-7.9258,-7.95,-7.95,-7.8948,-7.8603,-7.8361,-7.7775,-7.7534,-7.7499,-7.7292,-7.7327,-7.7499,-7.7292,-7.7223,-7.7223,-7.7223,-7.7223,-7.7223,-7.7223,-7.7223,-7.7223,-7.7223,-7.7223,-7.7223,-7.7223,-7.7223,-7.7178,-7.7133,-7.6918,-7.6691,-7.6449,-7.6216,-7.5947,-7.5757,-7.5709,-7.5709,-7.5709,-7.5709,-7.5709,-7.5709,-7.5709,-7.5709,-7.5709,-7.5709,-7.5709,-7.5709,-7.5709,-7.5709,-7.5709,-7.554,-7.5439,-7.5439,-7.4762,-7.4255,-7.4086,-7.3037,-7.2417,-7.2405,-7.1906,-7.1688,-7.1898,-7.2115,-7.2245,-7.2245,-7.2459,-7.2628,-7.2713,-7.2713,-7.2544,-7.2245,-7.2039,-7.1678,-6.4706,-6.4672,-6.4672,-6.4672,-6.4987,-6.5303,-6.5619,-6.6284,-6.6949,-6.7714,-6.8132,0.0,0.0,0.0,0.0,0.0,0.0,0.0,-6.9601,-7.0118,-7.0774,0.0,-7.2437,0.0,-7.3705,-7.4085,-7.4809,0.0,-7.612,-7.6258,-7.6568,-7.7327,-7.7948,-7.8396,-7.8706,-7.8948,-7.9017,-7.8672,-7.8292,-7.7879,-7.8292,-7.8499,-7.8499,-7.8085,-7.7879,-7.7844,0.0,-7.7223,-7.7223,-7.7223,-7.7223,-7.7223,-7.7223,-7.7223,-7.7223,-7.7223,-7.7223,-7.7223,-7.7223,-7.7223,-7.7223,-7.7223,-7.7223,-7.7223,-7.7223,-7.7223,-7.7223,-7.7223,-7.7009,-7.6748,-7.6645,-7.6414,-7.6216,-7.5947,-7.5852,-7.5852,-7.5757,-7.5709,-7.5709,-7.5709,-7.5709,-7.5709,-7.5709,-7.5709,-7.5709,-7.5709,-7.5709,-7.5709,-7.5709,-7.5709,-7.5709,-7.5709,-7.5337,-7.4965,-7.4661,-7.3849,-7.3208,-7.2925,-7.2393,-7.2063,-7.2019,-7.2202,-7.2288,-7.2159,-7.2501,-7.2713,-7.2713,-7.2713,-7.2544,-7.2331,-7.2202,-7.1951,-6.4672,-6.4672,-6.4672,-6.4672,-6.5303,-6.5935,-6.604,-6.7199,-6.8288,-6.8394,0.0,0.0,-7.0253,0.0,-6.8987,-6.961,0.0,-6.8675,-7.0187,-7.0394,-7.0946,-7.254,-7.2713,-7.3015,-7.3843,-7.4533,-7.5248,-7.6189,-7.6258,-7.6533,-7.7189,-7.7879,-7.8258,-7.8258,-7.8982,-7.9017,-7.8258,-7.7568,-7.7223,-7.7223,-7.7223,-7.7223,-7.7223,-7.7223,-7.7223,-7.7223,-7.7223,-7.7223,-7.7223,-7.7223,-7.7223,-7.7223,-7.7223,-7.7223,-7.7223,-7.7223,-7.7223,-7.7223,-7.7223,-7.7223,-7.7223,-7.7223,-7.7223,-7.7223,-7.7223,-7.7223,-7.7223,-7.7223,-7.7009,-7.6839,-7.6793,-7.6691,-7.6495,-7.6216,-7.6169,-7.6075,-7.5805,-7.5757,-7.5709,-7.5709,-7.5709,-7.5709,-7.5709,-7.5709,-7.5709,-7.5709,-7.5709,-7.5709,-7.5709,-7.5709,-7.5709,-7.5709,-7.5709,-7.5439,-7.4796,-7.4661,-7.4204,-7.3273,-7.2925,-7.255,-7.2019,-7.2245,-7.2245,-7.1985,-7.2459,-7.2713,-7.2713,-7.2713,-7.2586,-7.2373,-7.2115,-7.1898,-6.4672,-6.4672,-6.4672,-6.4672,-6.5303,-6.611,-6.6884,-6.7764,0.0,0.0,0.0,-6.9559,-6.9588,-6.926,0.0,-6.8917,0.0,0.0,0.0,0.0,-7.0946,0.0,0.0,0.0,0.0,0.0,0.0,0.0,0.0,-7.7085,-7.7178,-7.7361,-7.743,-7.743,-7.8189,-7.8223,-7.743,-7.7292,-7.7223,-7.7223,-7.7223,-7.7223,-7.7223,-7.7223,-7.7223,-7.7223,-7.7223,0.0,-7.7223,-7.7223,-7.7223,-7.7223,-7.7223,-7.7223,-7.7223,-7.7223,-7.7223,-7.7223,-7.7223,-7.7223,-7.7223,-7.7223,-7.7223,-7.7223,-7.7223,-7.7223,-7.7223,-7.7223,-7.7178,-7.7054,-7.6839,-7.6748,-7.6691,-7.6495,-7.6449,-7.6356,-7.6075,-7.5852,-7.5709,-7.5709,-7.5709,-7.5709,-7.5709,-7.5709,-7.5709,-7.5709,-7.5709,-7.5709,-7.5709,-7.5709,-7.5709,-7.5709,-7.5709,-7.5642,-7.5506,-7.4965,-7.4407,-7.4024,-7.3376,-7.2727,-7.2019,-7.2416,-7.2416,-7.1985,-7.2459,-7.2713,-7.2713,-7.2713,-7.2671,-7.2628,-7.2373,-7.2159,-6.4672,-6.4672,-6.4811,-6.5233,-6.59,-6.6743,-6.7694,0.0,0.0,0.0,0.0,-6.9706,-6.9524,0.0,0.0,0.0,0.0,0.0,0.0,0.0,0.0,0.0,0.0,0.0,0.0,0.0,0.0,0.0,0.0,-7.7223,-7.7223,-7.7223,-7.7396,-7.781,-7.781,-7.7603,-7.7223,-7.7223,-7.7223,-7.7223,-7.7223,-7.7223,-7.7223,-7.7223,-7.7223,-7.7223,-7.7223,0.0,-7.7223,-7.7223,-7.7223,-7.7223,-7.7223,-7.7223,-7.7223,-7.7223,-7.7223,-7.7223,-7.7223,-7.7223,-7.7223,-7.7223,-7.7223,-7.7223,-7.7223,-7.7223,-7.7223,-7.7223,-7.7223,-7.7178,-7.7054,-7.7009,-7.6964,-7.6691,-7.6495,-7.6262,-7.6122,-7.5899,-7.5709,-7.5709,-7.5709,-7.5709,-7.5709,-7.5709,-7.5709,-7.5709,-7.5709,-7.5709,-7.5709,-7.5709,-7.5709,-7.5709,-7.5709,-7.5709,-7.5709,-7.5371,-7.4835,-7.4083,-7.3719,-7.3048,-7.2053,-7.2331,-7.2373,-7.2159,-7.2501,-7.2713,-7.2713,-7.2713,-7.2713,-7.2671,-7.2331,-7.2159,-6.4809,-6.474,-6.4917,-6.5689,-6.6461,-6.727,-6.8328,-6.914,0.0,0.0,0.0,-6.9885,-6.9706,0.0,0.0,0.0,0.0,0.0,0.0,0.0,0.0,0.0,0.0,0.0,0.0,0.0,0.0,0.0,0.0,0.0,-7.7223,-7.7223,-7.7499,-7.812,-7.7534,-7.7223,-7.7223,-7.7223,-7.7223,-7.7223,-7.7223,-7.7223,-7.7223,-7.7223,-7.7223,-7.7223,-7.7223,0.0,0.0,-7.7223,-7.7223,-7.7223,-7.7223,-7.7223,-7.7223,-7.7223,-7.7223,-7.7223,-7.7223,-7.7223,-7.7223,-7.7223,-7.7223,-7.7223,-7.7223,-7.7223,-7.7223,-7.7223,-7.7223,-7.7223,-7.7223,-7.7223,-7.7133,-7.6839,-7.6507,-7.6169,-7.6122,-7.5899,-7.5709,-7.5709,-7.5709,-7.5709,-7.5709,-7.5709,-7.5709,-7.5709,-7.5709,-7.5709,-7.5709,-7.5709,-7.5709,-7.5709,-7.5709,-7.5709,-7.5709,-7.5709,-7.5161,-7.398,-7.3924,-7.3378,-7.2053,-7.2245,-7.2373,-7.2331,-7.2544,-7.2713,-7.2713,-7.2713,-7.2713,-7.2671,-7.2245,-7.2159,-6.5112,-6.491,-6.4917,-6.5689,-6.6461,-6.7306,-6.8505,0.0,0.0,0.0,-7.0167,-7.0132,-6.9885,-6.992,0.0,0.0,0.0,0.0,0.0,0.0,0.0,0.0,0.0,0.0,0.0,0.0,0.0,0.0,0.0,0.0,-7.7223,-7.7223,-7.7213,-7.7327,-7.7258,-7.7223,-7.7223,-7.7223,-7.7223,-7.7223,-7.7223,-7.7223,-7.7223,-7.7223,-7.7223,-7.7223,-7.7223,0.0,0.0,-7.7223,-7.7223,-7.7223,-7.7223,-7.7223,-7.7223,-7.7223,-7.7223,-7.7223,-7.7223,-7.7223,-7.7223,-7.7223,-7.7223,-7.7223,-7.7223,-7.7223,-7.7223,-7.7223,-7.7223,-7.7223,-7.7223,-7.7223,-7.7133,-7.6839,-7.6645,-7.6402,-7.6169,-7.5899,-7.5709,-7.5709,-7.5709,-7.5709,-7.5709,-7.5709,-7.5709,-7.5709,-7.5709,-7.5709,-7.5709,-7.5709,-7.5709,-7.5709,-7.5709,-7.5709,-7.5709,-7.5709,-7.5161,-7.398,-7.406,-7.3512,-7.2053,-7.2416,-7.2544,-7.2331,-7.2544,-7.2713,-7.2713,-7.2713,-7.2713,-7.2671,-7.2416,-7.2288,-6.5445,-6.55,-6.5688,-6.6671,-6.7482,-6.8293,-6.9212,0.0,0.0,-7.0341,-7.0375,-7.0306,-7.0132,-7.0948,-7.1659,0.0,0.0,0.0,0.0,0.0,0.0,0.0,0.0,0.0,0.0,0.0,0.0,0.0,0.0,0.0,-7.7223,-7.7223,-7.7223,-7.7223,-7.7223,-7.7223,-7.7223,-7.7223,-7.7223,-7.7223,-7.7223,-7.7223,-7.7223,-7.7223,-7.7223,-7.7223,-7.7223,0.0,0.0,-7.7223,-7.7223,-7.7223,-7.7223,-7.7223,-7.7223,-7.7223,-7.7223,-7.7223,-7.7223,-7.7223,-7.7223,-7.7223,-7.7223,-7.7223,-7.7223,-7.7223,-7.7223,-7.7223,-7.7223,-7.7223,-7.7223,-7.7223,-7.7133,-7.6839,-7.6645,-7.6402,-7.6169,-7.5899,-7.5709,-7.5709,-7.5709,-7.5709,-7.5709,-7.5709,-7.5709,-7.5709,-7.5709,-7.5709,-7.5709,-7.5852,-7.5852,-7.5709,-7.5709,-7.5709,-7.5709,-7.5445,-7.4861,-7.3946,-7.3796,-7.3254,-7.2236,-7.2501,-7.2628,-7.2544,-7.2628,-7.2713,-7.2713,-7.2713,-7.2713,-7.2671,-7.2416,-7.2416,-6.5836,-6.6046,-6.6422,-6.7338,-6.8185,-6.8963,0.0,0.0,0.0,-7.0514,-7.0514,-7.048,-7.0306,-7.1515,-7.2478,0.0,0.0,0.0,0.0,0.0,0.0,0.0,0.0,0.0,0.0,0.0,0.0,0.0,0.0,0.0,0.0,-7.7223,-7.7223,-7.7223,-7.7223,-7.7223,-7.7223,-7.7223,-7.7223,-7.7223,-7.7223,-7.7223,-7.7223,-7.7223,-7.7223,-7.7223,-7.7223,0.0,0.0,-7.7223,-7.7223,-7.7223,-7.7223,-7.7223,-7.7223,-7.7223,-7.7223,-7.7223,-7.7223,-7.7223,-7.7223,-7.7223,-7.7223,-7.7223,-7.7223,-7.7223,-7.7223,-7.7223,-7.7223,-7.7223,-7.7223,-7.7133,-7.7009,-7.6782,-7.6507,-7.6309,-7.6075,-7.5852,-7.5709,-7.5709,-7.5709,-7.5709,-7.5709,-7.5709,-7.5709,-7.5709,-7.5709,-7.5709,-7.5709,-7.573,-7.5688,-7.5371,-7.5215,-7.5229,-7.5466,-7.5056,-7.4446,-7.3697,-7.3519,-7.3086,-7.2365,-7.2544,-7.2713,-7.2713,-7.2713,-7.2713,-7.2713,-7.2713,-7.2713,-7.2671,-7.2501,-7.2501,-6.6177,-6.6594,-6.699,-6.7475,-6.8288,-6.9172,0.0,0.0,0.0,-7.048,-7.0514,-7.0514,-7.0514,-7.1156,-7.1942,-7.2691,0.0,0.0,0.0,0.0,0.0,0.0,0.0,0.0,0.0,0.0,0.0,0.0,0.0,0.0,0.0,-7.7223,-7.7223,-7.7223,-7.7223,-7.7223,-7.7223,-7.7223,-7.7223,-7.7223,-7.7223,-7.7223,-7.7223,-7.7223,-7.7223,0.0,0.0,0.0,0.0,-7.7223,-7.7223,-7.7223,-7.7223,-7.7223,-7.7223,-7.7223,-7.7223,-7.7223,-7.7223,-7.7223,-7.7223,-7.7223,-7.7223,-7.7223,-7.7223,-7.7223,-7.7223,-7.7223,-7.7223,-7.7223,-7.7223,-7.7009,-7.6748,-7.6541,-7.6309,-7.6028,-7.5757,-7.5709,-7.5709,-7.5709,-7.5709,-7.5709,-7.5709,-7.5709,-7.5709,-7.5709,-7.5709,-7.5709,-7.5709,-7.5289,-7.4895,-7.4627,-7.4216,-7.4218,-7.492,-7.4503,-7.3898,-7.3147,-7.3298,-7.3086,-7.2365,-7.2544,-7.2713,-7.2713,-7.2713,-7.2713,-7.2713,-7.2713,-7.2713,-7.2713,-7.2671,-7.2713,-6.6828,-6.7257,-6.7611,-6.8528,-6.9415,-7.002,-7.0096,0.0,-7.0582,-7.0514,-7.0514,-7.0514,-7.0514,-7.1585,-7.2548,-7.2938,-7.4154,0.0,0.0,0.0,0.0,0.0,0.0,0.0,0.0,0.0,0.0,0.0,0.0,0.0,0.0,-7.7223,-7.7223,-7.7223,-7.7223,-7.7223,-7.7223,-7.7223,-7.7223,-7.7223,-7.7223,-7.7223,-7.7223,-7.7223,-7.7223,0.0,0.0,0.0,0.0,-7.7223,-7.7223,-7.7223,-7.7223,-7.7223,-7.7223,-7.7223,-7.7223,-7.7223,-7.7223,-7.7223,-7.7223,-7.7223,-7.7223,-7.7223,-7.7223,-7.7223,-7.7223,-7.7223,-7.7223,-7.7223,-7.7223,-7.7009,-7.6782,-7.6541,-7.6309,-7.6028,-7.5757,-7.5709,-7.5709,-7.5709,-7.5709,-7.5709,-7.5709,-7.5709,-7.5709,-7.5709,-7.527,-7.4965,-7.4965,-7.4509,-7.4206,-7.416,-7.3663,-7.3583,-7.4184,-7.3764,-7.3396,-7.3298,-7.3078,-7.2827,-7.2586,-7.2628,-7.2713,-7.2713,-7.2713,-7.2713,-7.2713,-7.2713,-7.2713,-7.2713,-7.2713,-7.2713,0.0,-6.7748,-6.8202,-6.9089,-6.9941,0.0,0.0,0.0,-7.065,-7.0548,-7.0514,-7.0514,-7.0514,-7.1763,-7.2833,-7.2939,-7.4439,0.0,0.0,0.0,0.0,0.0,0.0,0.0,0.0,0.0,0.0,0.0,0.0,0.0,0.0,-7.7223,-7.7223,-7.7223,-7.7223,-7.7223,-7.7223,-7.7223,-7.7223,-7.7223,-7.7223,-7.7223,-7.7223,-7.7223,-7.7223,0.0,0.0,0.0,0.0,-7.7223,-7.7223,-7.7223,-7.7223,-7.7223,-7.7223,-7.7223,-7.7223,-7.7223,-7.7223,-7.7223,-7.7223,-7.7223,-7.7223,-7.7223,-7.7223,-7.7223,-7.7223,-7.7223,-7.7223,-7.7223,-7.7223,-7.7009,-7.6782,-7.6541,-7.6309,-7.6028,-7.5757,-7.5709,-7.5709,-7.5709,-7.5709,-7.5608,-7.5337,-7.527,-7.5202,-7.4897,-7.4492,-7.4187,-7.4187,-7.3729,-7.3425,-7.3334,-7.2846,-7.2696,-7.2994,-7.2898,-7.2843,-7.2974,-7.2785,-7.2713,-7.2713,-7.2713,-7.2713,-7.2713,-7.2713,-7.2713,-7.2713,-7.2713,-7.2713,-7.2713,-7.2713,-7.2713,0.0,0.0,0.0,0.0,0.0,0.0,0.0,0.0,0.0,-7.0514,-7.0514,-7.0514,-7.0514,-7.1763,-7.2798,-7.2833,-7.4475,0.0,0.0,0.0,0.0,0.0,0.0,0.0,0.0,0.0,0.0,0.0,0.0,0.0,0.0,-7.7223,-7.7223,-7.7223,-7.7223,-7.7223,-7.7223,-7.7223,-7.7223,-7.7223,-7.7223,-7.7223,-7.7223,-7.7223,-7.7223,0.0,0.0,0.0,0.0,-7.7223,-7.7223,-7.7223,-7.7223,-7.7223,-7.7223,-7.7223,-7.7223,-7.7223,-7.7223,-7.7223,-7.7223,-7.7223,-7.7223,-7.7223,-7.7223,-7.7223,-7.7223,-7.7223,-7.7223,-7.7223,-7.7223,-7.7009,-7.6748,-7.6587,-7.6309,-7.6028,-7.5805,-7.5642,-7.5608,-7.5608,-7.5574,-7.5337,-7.4661,-7.4525,-7.4289,-7.3578,-7.3443,-7.3409,-7.3409,-7.2949,-7.2519,-7.2372,-7.1908,-7.16,-7.16,-7.1994,-7.2288,-7.2331,-7.2544,-7.2713,-7.2713,-7.2713,-7.2713,-7.2713,-7.2713,-7.2713,-7.2713,-7.2713,-7.2713,-7.2713,-7.2713,-7.2713,-6.7722,0.0,-6.8544,-6.9906,-7.0406,-7.0548,0.0,0.0,0.0,0.0,0.0,0.0,0.0,-7.1763,0.0,0.0,0.0,0.0,0.0,0.0,0.0,0.0,0.0,0.0,0.0,0.0,0.0,0.0,0.0,0.0,0.0,-7.7223,-7.7223,-7.7223,-7.7223,-7.7223,-7.7223,-7.7223,-7.7223,-7.7223,-7.7223,-7.7223,-7.7223,-7.7223,-7.7223,0.0,0.0,0.0,-7.7223,-7.7223,-7.7223,-7.7223,-7.7223,-7.7223,-7.7223,-7.7223,-7.7223,-7.7223,-7.7223,-7.7223,-7.7223,-7.7223,-7.7223,-7.7223,-7.7223,-7.7223,-7.7223,-7.7223,-7.7223,-7.7223,-7.7223,-7.7009,-7.6793,-7.6736,-7.6414,-7.6075,-7.6028,-7.5411,-7.4864,-7.4864,-7.439,-7.395,-7.3781,-7.3747,-7.368,-7.351,-7.3003,-7.2665,-7.2665,-7.2067,-7.1683,-7.1783,-7.1658,-7.16,-7.16,-7.1898,-7.2115,-7.2288,-7.2544,-7.2713,-7.2713,-7.2713,-7.2713,-7.2713,-7.2713,-7.2713,-7.2713,-7.2713,-7.2713,-7.2713,-7.2713,-7.2713,-6.7909,-6.8373,-6.8944,-7.0193,-7.0514,-7.0514,0.0,0.0,0.0,0.0,0.0,0.0,0.0,0.0,0.0,0.0,0.0,0.0,0.0,0.0,0.0,0.0,0.0,0.0,0.0,0.0,0.0,0.0,0.0,0.0,0.0,-7.7535,-7.7535,-7.7535,-7.7535,-7.7446,-7.7223,-7.7223,-7.7223,-7.7223,-7.7223,-7.7223,-7.7223,-7.7223,-7.7223,0.0,0.0,0.0,-7.7223,-7.7223,-7.7223,-7.7223,-7.7223,-7.7223,-7.7223,-7.7223,-7.7223,-7.7223,-7.7223,-7.7223,-7.7223,-7.7223,-7.7223,-7.7223,-7.7223,-7.7223,-7.7223,-7.7223,-7.7223,-7.7223,-7.7223,-7.7054,-7.6861,-7.6427,-7.604,-7.5649,-7.517,-7.4577,-7.4086,-7.4086,-7.3747,-7.3375,-7.3037,-7.3003,-7.2868,-7.2529,-7.2157,-7.1887,-7.1887,-7.1548,-7.1356,-7.1457,-7.1457,-7.1457,-7.1457,-7.1766,-7.2029,-7.2159,-7.2373,-7.2586,-7.2671,-7.2713,-7.2713,-7.2713,-7.2713,-7.2713,-7.2713,-7.2713,-7.2713,-7.2713,-7.2713,-7.2713,-6.8088,-6.8873,-6.9691,-7.0336,-7.0514,-7.0514,-7.0514,0.0,0.0,0.0,0.0,0.0,0.0,0.0,0.0,0.0,0.0,0.0,0.0,0.0,0.0,0.0,0.0,0.0,0.0,0.0,0.0,0.0,0.0,0.0,0.0,-7.7893,-7.7893,-7.7893,-7.7893,-7.7676,-7.7313,-7.7313,-7.7313,-7.7313,-7.7268,-7.7268,-7.7268,-7.7223,-7.7223,-7.7223,0.0,0.0,-7.7223,-7.7223,-7.7223,-7.7223,-7.7223,-7.7223,-7.7223,-7.7223,-7.7223,-7.7223,-7.7223,-7.7223,-7.7223,-7.7223,-7.7109,-7.7051,-7.7051,-7.6937,-7.6834,-7.6834,-7.6947,-7.7016,-7.6913,-7.6834,-7.6617,-7.5784,-7.5389,-7.5026,-7.4151,-7.3639,-7.3354,-7.3308,-7.324,-7.2969,-7.2326,-7.2225,-7.2022,-7.1413,-7.1312,-7.1312,-7.1312,-7.1312,-7.1312,-7.1356,-7.1401,-7.1401,-7.1401,-7.1766,-7.2029,-7.2029,-7.2245,-7.2459,-7.2671,-7.2713,-7.2713,-7.2713,-7.2713,-7.2713,-7.2713,-7.2713,-7.2713,-7.2713,-7.2713,-7.2713,-6.8908,-6.983,-7.0541,-7.0513,-7.0514,-7.0514,-7.0514,0.0,0.0,0.0,0.0,0.0,0.0,0.0,0.0,0.0,0.0,0.0,0.0,0.0,0.0,0.0,0.0,0.0,0.0,0.0,0.0,0.0,0.0,0.0,-7.7893,-7.7893,-7.7893,-7.7893,-7.7893,-7.785,-7.7763,-7.7763,-7.7763,-7.7763,-7.7623,-7.7569,-7.7535,-7.7313,-7.7223,-7.7223,0.0,-7.7223,-7.7223,-7.7223,-7.7223,-7.7223,-7.7223,-7.7223,-7.7223,-7.7223,-7.7223,-7.7223,-7.7223,-7.7223,-7.7223,-7.7223,-7.6809,-7.6292,-7.6292,-7.5809,-7.5248,-7.5248,-7.5731,-7.612,-7.542,-7.5248,-7.5214,-7.5032,-7.4856,-7.46,-7.424,-7.3424,-7.2757,-7.2609,-7.2056,-7.1616,-7.1515,-7.1481,-7.1447,-7.1345,-7.1312,-7.1312,-7.1312,-7.1312,-7.1356,-7.1512,-7.1766,-7.1898,-7.1898,-7.2115,-7.2245,-7.2245,-7.2501,-7.2671,-7.2713,-7.2713,-7.2713,-7.2713,-7.2713,-7.2713,-7.2713,-7.2713,-7.2713,-7.2713,-7.2713,-7.2713,-6.9087,-6.9941,-7.065,-7.065,-7.0718,-7.0783,-7.0783,0.0,0.0,0.0,0.0,0.0,0.0,0.0,0.0,0.0,0.0,0.0,0.0,0.0,0.0,0.0,0.0,0.0,0.0,0.0,0.0,0.0,0.0,0.0,-7.8279,-7.8279,-7.8194,-7.8143,-7.8143,-7.8058,-7.7893,-7.7893,-7.7893,-7.7893,-7.7798,-7.7754,-7.7754,-7.7535,-7.7402,-7.7402,0.0,-7.7223,-7.7223,-7.7223,-7.7223,-7.7223,-7.7223,-7.7223,-7.7223,-7.7223,-7.6982,-7.6637,-7.6637,-7.6326,-7.5937,-7.5937,-7.5696,-7.542,-7.542,-7.5179,-7.48,-7.443,-7.4878,-7.5352,-7.4972,-7.4903,-7.48,-7.4395,-7.4153,-7.3832,-7.3298,-7.2737,-7.2277,-7.2189,-7.1916,-7.1712,-7.1712,-7.1712,-7.1634,-7.1501,-7.1457,-7.1457,-7.1457,-7.1457,-7.1546,-7.181,-7.1942,-7.1985,-7.1985,-7.2202,-7.2331,-7.2331,-7.2544,-7.2713,-7.2713,-7.2713,-7.2713,-7.2713,-7.2713,-7.2713,-7.2713,-7.2713,-7.2713,-7.2713,-7.2713,-7.2713,-6.9337,-7.0084,-7.0616,-7.0785,0.0,-7.0982,-7.0979,0.0,0.0,0.0,0.0,0.0,0.0,0.0,0.0,0.0,0.0,0.0,0.0,0.0,0.0,0.0,0.0,0.0,0.0,0.0,0.0,0.0,0.0,0.0,-7.8376,-7.8376,-7.8399,-7.8357,-7.8224,-7.8119,-7.8034,-7.7867,-7.7845,-7.7893,-7.785,-7.7841,-7.7841,-7.7579,-7.7525,-7.749,-7.7268,-7.7223,-7.7223,-7.7223,-7.7223,-7.7189,-7.7016,-7.6844,-7.6627,-7.6627,-7.6326,-7.5844,-7.5844,-7.5386,-7.4903,-7.4903,-7.4766,-7.4628,-7.4628,-7.4533,-7.4292,-7.3705,-7.3947,-7.4395,-7.4395,-7.4395,-7.4257,-7.3671,-7.3404,-7.3138,-7.2468,-7.2202,-7.2029,-7.1985,-7.1985,-7.1985,-7.1985,-7.1985,-7.1942,-7.1732,-7.1688,-7.1688,-7.1688,-7.1688,-7.1776,-7.2029,-7.2072,-7.2072,-7.2159,-7.2331,-7.2416,-7.2416,-7.2586,-7.2713,-7.2713,-7.2713,-7.2713,-7.2713,-7.2713,-7.2713,-7.2713,-7.2713,-7.2713,-7.2713,-7.2713,-7.2713,-6.9979,-7.0581,-7.0819,-7.0949,-7.0883,0.0,-7.0946,-7.0979,0.0,0.0,0.0,0.0,0.0,0.0,0.0,0.0,0.0,0.0,0.0,0.0,0.0,0.0,0.0,0.0,0.0,0.0,0.0,0.0,0.0,0.0,-7.7737,-7.7772,-7.8007,-7.8574,-7.8037,-7.7934,-7.8363,-7.7812,-7.766,-7.7893,-7.771,-7.7657,-7.7613,-7.7357,-7.7223,-7.7223,-7.7223,-7.7223,-7.7223,-7.7223,-7.7223,-7.7154,-7.6464,-7.5696,-7.5041,-7.5041,-7.5007,-7.4972,-7.4972,-7.4938,-7.4903,-7.4903,-7.4464,-7.3878,-7.3878,-7.3395,-7.2843,-7.2816,-7.2809,-7.2843,-7.2843,-7.2843,-7.2809,-7.2816,-7.2774,-7.2655,-7.2373,-7.2288,-7.2245,-7.2029,-7.1985,-7.1985,-7.1985,-7.1985,-7.1985,-7.1985,-7.1985,-7.1985,-7.1985,-7.1985,-7.2029,-7.2245,-7.2288,-7.2373,-7.2628,-7.2671,-7.2671,-7.2671,-7.2671,-7.2713,-7.2713,-7.2713,-7.2713,-7.2713,-7.2713,-7.2713,-7.2713,-7.2713,-7.2713,-7.2713,-7.2713,-7.2713,-6.9444,-7.0293,-7.0819,-7.0982,0.0,0.0,0.0,0.0,0.0,0.0,0.0,0.0,0.0,0.0,0.0,0.0,0.0,0.0,0.0,0.0,0.0,0.0,0.0,0.0,0.0,0.0,0.0,0.0,0.0,0.0,0.0,-7.7589,-7.7618,-7.7665,-7.7461,-7.7323,-7.7398,-7.7157,-7.7103,-7.7222,-7.746,-7.754,-7.75,-7.714,-7.681,-7.6559,-7.6296,-7.6201,-7.6201,-7.5897,-7.5941,-7.6167,-7.5586,-7.5145,-7.4903,-7.4903,-7.4636,-7.4223,-7.4223,-7.3912,-7.3533,-7.3533,-7.3326,-7.3084,-7.3084,-7.2954,-7.2713,-7.2713,-7.2713,-7.2713,-7.2713,-7.2713,-7.2713,-7.2713,-7.2713,-7.2671,-7.2586,-7.2544,-7.2544,-7.2459,-7.2416,-7.2416,-7.2416,-7.2416,-7.2373,-7.2202,-7.2202,-7.2202,-7.2202,-7.2202,-7.2288,-7.2544,-7.2544,-7.2586,-7.2671,-7.2713,-7.2713,-7.2713,-7.2713,-7.2713,-7.2713,-7.2713,-7.2713,-7.2713,-7.2713,-7.2713,-7.2713,-7.2713,-7.2713,-7.2713,-7.2713,-7.2713,-6.9082,-6.9897,-7.053,0.0,0.0,0.0,0.0,0.0,0.0,0.0,0.0,0.0,0.0,0.0,0.0,0.0,0.0,0.0,0.0,0.0,0.0,0.0,0.0,0.0,0.0,0.0,0.0,0.0,0.0,0.0,0.0,-7.7153,-7.7185,-7.7172,-7.7034,-7.693,-7.693,-7.6718,-7.6576,-7.6574,-7.687,-7.7119,-7.7281,-7.6898,-7.6583,-7.6262,-7.5929,-7.5798,-7.5757,-7.5427,-7.5373,-7.5415,-7.508,-7.4814,-7.4572,-7.4572,-7.4267,-7.3816,-7.3816,-7.3504,-7.3053,-7.3053,-7.3005,-7.288,-7.288,-7.2797,-7.2713,-7.2713,-7.2713,-7.2713,-7.2713,-7.2713,-7.2713,-7.2713,-7.2713,-7.2713,-7.2713,-7.2713,-7.2713,-7.2713,-7.2713,-7.2713,-7.2713,-7.2713,-7.2628,-7.2459,-7.2416,-7.2416,-7.2416,-7.2416,-7.2501,-7.2671,-7.2713,-7.2713,-7.2713,-7.2713,-7.2713,-7.2713,-7.2713,-7.2713,-7.2713,-7.2713,-7.2713,-7.2713,-7.2713,-7.2713,-7.2713,-7.2713,-7.2713,-7.2713,-7.2713,-7.2575,-6.917,-6.9603,0.0,0.0,0.0,0.0,0.0,0.0,0.0,0.0,0.0,0.0,0.0,0.0,0.0,0.0,0.0,0.0,0.0,0.0,0.0,0.0,0.0,0.0,0.0,0.0,0.0,0.0,0.0,0.0,0.0,-7.6516,-7.6764,-7.7364,-7.68,-7.6697,-7.7194,-7.6572,-7.6174,-7.6003,-7.6003,-7.6267,-7.6784,-7.6587,-7.6468,-7.6468,-7.6262,-7.6181,-7.6181,-7.6181,-7.576,-7.5093,-7.5093,-7.4602,-7.39,-7.39,-7.39,-7.39,-7.39,-7.39,-7.39,-7.39,-7.3622,-7.3293,-7.3293,-7.3046,-7.2713,-7.2713,-7.2713,-7.2713,-7.2713,-7.2713,-7.2713,-7.2713,-7.2713,-7.2713,-7.2713,-7.2713,-7.2713,-7.2713,-7.2713,-7.2713,-7.2713,-7.2713,-7.2713,-7.2713,-7.2713,-7.2713,-7.2713,-7.2713,-7.2713,-7.2713,-7.2713,-7.2713,-7.2713,-7.2713,-7.2713,-7.2713,-7.2713,-7.2713,-7.2713,-7.2713,-7.2713,-7.2713,-7.2713,-7.2713,-7.2713,-7.2713,-7.2713,-7.2713,-7.2671,-7.2257,-6.8437,0.0,0.0,0.0,0.0,0.0,0.0,0.0,0.0,0.0,0.0,0.0,0.0,0.0,0.0,0.0,0.0,0.0,0.0,0.0,0.0,0.0,0.0,0.0,0.0,0.0,0.0,0.0,0.0,0.0,0.0,-7.6363,-7.6436,-7.662,-7.6473,-7.6433,-7.657,-7.6386,-7.6242,-7.6208,-7.6208,-7.6152,-7.6086,-7.5904,-7.5609,-7.5271,-7.5151,-7.5073,-7.5073,-7.5073,-7.4738,-7.4251,-7.4251,-7.4111,-7.39,-7.39,-7.39,-7.39,-7.39,-7.39,-7.39,-7.39,-7.3622,-7.3293,-7.3293,-7.3046,-7.2713,-7.2713,-7.2713,-7.2713,-7.2713,-7.2713,-7.2713,-7.2713,-7.2713,-7.2713,-7.2713,-7.2713,-7.2713,-7.2713,-7.2713,-7.2713,-7.2713,-7.2713,-7.2713,-7.2713,-7.2713,-7.2713,-7.2713,-7.2713,-7.2713,-7.2713,-7.2713,-7.2713,-7.2713,-7.2713,-7.2713,-7.2713,-7.2713,-7.2713,-7.2713,-7.2713,-7.2713,-7.2713,-7.2713,-7.2713,-7.2713,-7.2713,-7.2713,-7.2713,-7.2119,-7.1705,-6.831,0.0,0.0,0.0,0.0,0.0,0.0,0.0,0.0,0.0,0.0,0.0,0.0,0.0,0.0,0.0,0.0,0.0,0.0,0.0,0.0,0.0,0.0,0.0,0.0,0.0,0.0,0.0,0.0,0.0,0.0,-7.6275,-7.6275,-7.6275,-7.6275,-7.6275,-7.6275,-7.6275,-7.6242,-7.6174,-7.6174,-7.6039,-7.5798,-7.5727,-7.5549,-7.5263,-7.5043,-7.4894,-7.4819,-7.4819,-7.4669,-7.4405,-7.4405,-7.4405,-7.4405,-7.4405,-7.4405,-7.4405,-7.4405,-7.4329,-7.4174,-7.4174,-7.3782,-7.3293,-7.3293,-7.3046,-7.2713,-7.2713,-7.2713,-7.2713,-7.2713,-7.2713,-7.2713,-7.2713,-7.2713,-7.2713,-7.2713,-7.2713,-7.2713,-7.2713,-7.2713,-7.2713,-7.2713,-7.2713,-7.2713,-7.2713,-7.2713,-7.2713,-7.2713,-7.2713,-7.2713,-7.2713,-7.2713,-7.2713,-7.2713,-7.2713,-7.2713,-7.2713,-7.2713,-7.2713,-7.2713,-7.2713,-7.2713,-7.2713,-7.2713,-7.2713,-7.2713,-7.236,-7.2188,-7.2188,-7.1429,-7.0912,0.0,0.0,0.0,0.0,0.0,0.0,0.0,0.0,0.0,0.0,0.0,0.0,0.0,0.0,0.0,0.0,0.0,0.0,0.0,0.0,0.0,0.0,0.0,0.0,0.0,0.0,0.0,0.0,0.0,0.0,0.0,-7.6275,-7.6275,-7.6275,-7.6275,-7.6275,-7.6275,-7.6275,-7.6208,-7.6038,-7.6038,-7.5971,-7.5833,-7.5936,-7.5969,-7.5934,-7.5656,-7.537,-7.5261,-7.5225,-7.5225,-7.5225,-7.5225,-7.5225,-7.5225,-7.5225,-7.5225,-7.5225,-7.5225,-7.4931,-7.4631,-7.4631,-7.4092,-7.3415,-7.3375,-7.3088,-7.2755,-7.2713,-7.2713,-7.2713,-7.2713,-7.2713,-7.2713,-7.2713,-7.2713,-7.2713,-7.2713,-7.2713,-7.2713,-7.2713,-7.2713,-7.2713,-7.2713,-7.2713,-7.2713,-7.2713,-7.2713,-7.2713,-7.2713,-7.2713,-7.2713,-7.2713,-7.2713,-7.2713,-7.2713,-7.2713,-7.2713,-7.2713,-7.2713,-7.2713,-7.2713,-7.2713,-7.2713,-7.2713,-7.2644,-7.2567,-7.2609,-7.1774,-7.1394,-7.136,-7.0636,-6.9911,0.0,0.0,0.0,0.0,0.0,0.0,0.0,0.0,0.0,0.0,0.0,0.0,0.0,0.0,0.0,0.0,0.0,0.0,0.0,0.0,0.0,0.0,0.0,0.0,0.0,0.0,0.0,0.0,0.0,0.0,-7.6275,-7.6275,-7.6275,-7.6275,-7.6275,-7.6275,-7.6275,-7.6275,-7.6275,0.0,-7.6208,-7.6208,-7.6176,-7.5936,-7.5833,-7.5833,-7.5585,-7.5478,-7.5406,-7.5297,-7.5225,-7.5225,-7.5225,-7.5225,-7.5225,-7.5225,-7.5225,-7.5225,-7.5225,-7.5116,-7.5042,-7.5042,-7.4744,-7.4248,-7.39,-7.3502,-7.3129,-7.2797,-7.2713,-7.2713,-7.2713,-7.2713,-7.2713,-7.2713,-7.2713,-7.2713,-7.2713,-7.2713,-7.2713,-7.2713,-7.2713,-7.2713,-7.2713,-7.2713,-7.2713,-7.2713,-7.2713,-7.2713,-7.2713,-7.2713,-7.2713,-7.2713,-7.2713,-7.2713,-7.2713,-7.2713,-7.2713,-7.2713,-7.2713,-7.2713,-7.2713,-7.2713,-7.2713,-7.2713,-7.205,-7.1739,-7.1739,-7.0981,-7.0636,-7.0601,-6.9877,-6.9428,0.0,0.0,0.0,0.0,0.0,0.0,0.0,0.0,0.0,0.0,0.0,0.0,0.0,0.0,0.0,0.0,0.0,0.0,0.0,0.0,0.0,0.0,0.0,0.0,0.0,0.0,0.0,0.0,0.0,-7.6275,-7.6275,-7.6275,-7.6275,-7.6275,-7.6275,-7.6275,-7.6275,-7.6275,-7.6275,-7.6275,-7.6275,-7.6275,-7.6275,-7.6005,-7.5868,-7.5763,-7.5585,-7.5442,-7.5334,-7.5225,-7.5225,-7.5225,-7.5225,-7.5225,-7.5225,-7.5225,-7.5225,-7.5225,-7.5225,-7.5042,-7.4894,-7.4894,-7.4631,-7.4213,-7.3979,-7.3742,-7.3542,-7.334,-7.3135,-7.3046,-7.3217,-7.3005,-7.2755,-7.2963,-7.2838,-7.2713,-7.2713,-7.2713,-7.2713,-7.2713,-7.2713,-7.2713,-7.2713,-7.2713,-7.2713,-7.2713,-7.2713,-7.2713,-7.2713,-7.2713,-7.2713,-7.2713,-7.2713,-7.2713,-7.2713,-7.2713,-7.2713,-7.2713,-7.2713,-7.254,-7.2119,-7.2119,-7.2119,-7.2119,-7.1705,-7.1325,-7.0946,-7.0222,-6.9842,-6.9842,-6.9084,-6.8704,0.0,0.0,0.0,0.0,0.0,0.0,0.0,0.0,0.0,0.0,0.0,0.0,0.0,0.0,0.0,0.0,0.0,0.0,0.0,0.0,0.0,0.0,0.0,0.0,0.0,0.0,0.0,0.0,0.0,-7.6275,-7.6275,-7.6275,-7.6275,-7.6275,-7.6275,-7.6275,-7.6275,-7.6275,-7.6275,-7.6275,-7.6275,-7.6275,-7.6275,-7.6072,-7.5971,-7.5868,-7.5656,-7.5478,-7.5334,-7.5298,-7.5297,-7.5225,-7.5225,-7.5225,-7.5225,-7.5225,-7.5225,-7.5225,-7.5225,-7.4968,-7.4707,-7.4707,-7.4405,-7.4135,-7.4057,-7.4018,-7.4018,-7.394,-7.3662,-7.3461,-7.3821,-7.3421,-7.2963,-7.3252,-7.3046,-7.2797,-7.2713,-7.2713,-7.2713,-7.2713,-7.2713,-7.2713,-7.2713,-7.2713,-7.2713,-7.2713,-7.2713,-7.2713,-7.2713,-7.2713,-7.2713,-7.2713,-7.2713,-7.2713,-7.2713,-7.2713,-7.2713,-7.2713,-7.2575,-7.2188,-7.1532,-7.136,-7.1256,-7.1118,-7.1118,-7.0808,-7.0187,-6.9428,-6.9084,-6.9049,-6.8394,-6.8083,0.0,0.0,0.0,0.0,0.0,0.0,0.0,0.0,0.0,0.0,0.0,0.0,0.0,0.0,0.0,0.0,0.0,0.0,0.0,0.0,0.0,0.0,0.0,0.0,0.0,0.0,0.0,0.0,-7.6275,-7.6275,-7.6275,-7.6275,-7.6275,-7.6275,-7.6275,-7.6275,-7.6275,-7.6275,-7.6275,-7.6275,-7.6275,-7.6275,-7.6275,-7.6072,-7.6072,-7.6244,-7.6003,-7.59,-7.5865,-7.5798,-7.5621,-7.5442,-7.5442,-7.5334,-7.5225,-7.5225,-7.5225,-7.5225,-7.5225,-7.5152,-7.5116,-7.5116,-7.5079,-7.4968,-7.4631,-7.4517,-7.4441,-7.4018,-7.3826,-7.3861,-7.39,-7.3821,-7.3662,-7.334,-7.3252,-7.3129,-7.2755,-7.2713,-7.2713,-7.2713,-7.2713,-7.2713,-7.2713,-7.2713,-7.2713,-7.2713,-7.2713,-7.2713,-7.2713,-7.2713,-7.2713,-7.2713,-7.2713,-7.2713,-7.2713,-7.2713,-7.2713,-7.2713,-7.205,-7.1601,-7.1498,-7.0877,-7.0222,-6.9601,-6.9566,-6.9572,-6.9428,-6.8635,-6.8256,-6.8256,-6.8152,-6.8083,0.0,0.0,0.0,0.0,0.0,0.0,0.0,0.0,0.0,0.0,0.0,0.0,0.0,0.0,0.0,0.0,0.0,0.0,0.0,0.0,0.0,0.0,0.0,0.0,0.0,0.0,0.0,0.0,-7.6275,-7.6275,-7.6275,-7.6275,-7.6275,-7.6275,-7.6275,-7.6275,-7.6275,-7.6275,-7.6275,-7.6275,-7.6275,-7.6275,-7.6311,-7.6208,-7.614,-7.6106,-7.5971,-7.5867,-7.5867,-7.5833,-7.5763,-7.5692,-7.5692,-7.5621,-7.555,-7.555,-7.555,-7.555,-7.555,-7.555,-7.555,-7.555,-7.5478,-7.5334,-7.5152,-7.5005,-7.4894,-7.4707,-7.4444,-7.4329,-7.4558,-7.429,-7.394,-7.4014,-7.3821,-7.3582,-7.3421,-7.3046,-7.2713,-7.2713,-7.2713,-7.2713,-7.2713,-7.2713,-7.2713,-7.2713,-7.2713,-7.2713,-7.2713,-7.2713,-7.2713,-7.2713,-7.2713,-7.2713,-7.2713,-7.2257,-7.2015,-7.2015,-7.1291,-7.067,-7.0256,-6.9946,-6.9394,-6.8635,-6.9049,-6.9049,-6.8601,-6.8256,-6.8083,-6.8083,-6.8083,-6.8083,0.0,0.0,0.0,0.0,0.0,0.0,0.0,0.0,0.0,0.0,0.0,0.0,0.0,0.0,0.0,0.0,0.0,0.0,0.0,0.0,0.0,0.0,0.0,0.0,0.0,0.0,0.0,0.0,-7.6275,-7.6275,-7.6275,-7.6275,-7.6275,-7.6275,-7.6275,-7.6275,-7.6275,-7.6275,-7.6275,-7.6275,-7.6275,-7.6275,-7.6275,-7.6275,-7.6208,-7.6072,-7.5901,-7.5868,-7.5868,-7.5798,-7.5763,-7.5727,-7.5727,-7.5692,-7.5657,-7.5657,-7.5657,-7.5657,-7.5657,-7.5657,-7.5657,-7.5657,-7.555,-7.5406,-7.5406,-7.5334,-7.5297,-7.5189,-7.5005,-7.4894,-7.5151,-7.4709,-7.429,-7.4555,-7.4364,-7.4057,-7.394,-7.334,-7.288,-7.3005,-7.2922,-7.2838,-7.2838,-7.2838,-7.2838,-7.2713,-7.2713,-7.2713,-7.2713,-7.2713,-7.2713,-7.2713,-7.2713,-7.2644,-7.2395,-7.1843,-7.1429,-7.1222,-7.0532,-6.9842,-6.9291,-6.9084,-6.8704,-6.8118,-6.867,-6.8704,-6.8083,-6.8083,-6.8083,-6.8083,-6.8083,-6.8083,0.0,0.0,0.0,0.0,0.0,0.0,0.0,0.0,0.0,0.0,0.0,0.0,0.0,0.0,0.0,0.0,0.0,0.0,0.0,0.0,0.0,0.0,0.0,0.0,0.0,0.0,0.0,0.0,-7.6275,-7.6275,-7.6275,-7.6275,-7.6275,-7.6275,-7.6275,-7.6275,-7.6275,-7.6275,-7.6275,-7.6275,-7.6275,-7.6275,-7.6275,-7.6275,-7.6275,-7.6275,-7.6072,-7.5969,-7.5969,-7.5868,-7.5692,-7.5514,-7.5514,-7.537,-7.5225,-7.5225,-7.5225,-7.5225,-7.5225,-7.5225,-7.5225,-7.5225,-7.5189,-7.5225,-7.5225,-7.5334,-7.5442,-7.5225,-7.5298,-7.5406,-7.5225,-7.5188,-7.5042,-7.4669,-7.4555,-7.4441,-7.4018,-7.3582,-7.338,-7.3782,-7.3542,-7.3293,-7.3293,-7.3293,-7.317,-7.2755,-7.2713,-7.2713,-7.2713,-7.2713,-7.2713,-7.2713,-7.2713,-7.236,-7.1636,-7.1498,-7.1187,-7.0498,-6.9739,-6.9365,-6.9291,-6.8566,-6.8152,-6.8083,-6.8152,-6.8152,-6.8083,-6.8083,-6.8083,-6.8083,-6.8083,-6.8083,0.0,0.0,0.0,0.0,0.0,0.0,0.0,0.0,0.0,0.0,0.0,0.0,0.0,0.0,0.0,0.0,0.0,0.0,0.0,0.0,0.0,0.0,0.0,0.0,0.0,0.0,0.0,0.0,0.0,-7.6058,-7.5551,-7.5551,-7.5297,-7.479,-7.4754,-7.5008,-7.5515,-7.5551,-7.5551,-7.5515,-7.5008,-7.5044,-7.5551,-7.5551,-7.5804,-7.6275,-7.6072,-7.6072,-7.6174,-7.6142,-7.6074,-7.6039,-7.6039,-7.5971,-7.5936,-7.5936,-7.5796,-7.5691,-7.5691,-7.5656,-7.5585,-7.5585,-7.5514,-7.537,-7.537,-7.5334,-7.5262,-7.5189,-7.5225,-7.5262,-7.5225,-7.5225,-7.5152,-7.5005,-7.5004,-7.4931,-7.4782,-7.4174,-7.3742,-7.3865,-7.3782,-7.3702,-7.3702,-7.3461,-7.3252,-7.3129,-7.288,-7.2713,-7.2713,-7.2713,-7.2464,-7.1981,-7.1912,-7.1601,-7.0843,-7.036,-6.998,-6.9704,-6.8946,-6.8532,-6.8532,-6.8256,-6.8083,-6.8083,-6.8083,-6.8083,-6.8083,-6.8083,-6.8083,-6.8083,-6.8083,-6.8083,0.0,0.0,0.0,0.0,0.0,0.0,0.0,0.0,0.0,0.0,0.0,0.0,0.0,0.0,0.0,0.0,0.0,0.0,0.0,0.0,0.0,0.0,0.0,0.0,0.0,0.0,0.0,0.0,0.0,0.0,-7.5119,-7.483,-7.4431,-7.3921,-7.3921,-7.4142,-7.4685,-7.4685,-7.4685,-7.4685,-7.4142,-7.4178,-7.4685,-7.4685,-7.5008,-7.5515,-7.5345,-7.567,-7.6174,-7.6176,-7.6142,-7.6142,-7.6142,-7.6142,-7.6142,-7.6142,-7.6039,-7.5936,-7.5936,-7.5867,-7.5763,-7.5727,-7.5621,-7.5478,-7.5406,-7.5334,-7.5297,-7.5225,-7.5261,-7.5297,-7.5225,-7.5225,-7.5225,-7.5225,-7.5225,-7.5225,-7.5225,-7.4669,-7.4174,-7.4329,-7.4213,-7.4135,-7.4135,-7.39,-7.3662,-7.3502,-7.2927,-7.2541,-7.2541,-7.2175,-7.1705,-7.1187,-7.1118,-7.0808,-7.0084,-6.9566,-6.9153,-6.8911,-6.8394,-6.8083,-6.8083,-6.8083,-6.8083,-6.8083,-6.8083,-6.8083,-6.8083,-6.8083,-6.8083,-6.8083,-6.8083,-6.8083,0.0,0.0,0.0,0.0,0.0,0.0,0.0,0.0,0.0,0.0,0.0,0.0,0.0,0.0,0.0,0.0,0.0,0.0,0.0,0.0,0.0,0.0,0.0,0.0,0.0,0.0,0.0,0.0,-7.5515,-7.5047,-7.5011,-7.4283,-7.3849,-7.3849,-7.3849,-7.3852,-7.3852,-7.3852,-7.3852,-7.3852,-7.3849,-7.3849,-7.3852,-7.3852,-7.3885,-7.3921,-7.3921,-7.4691,-7.5931,-7.5796,-7.5798,-7.5798,-7.5798,-7.5798,-7.5798,-7.5798,-7.5798,-7.5798,-7.5798,-7.5798,-7.5763,-7.5585,-7.5514,-7.5442,-7.5262,-7.5334,-7.5442,-7.5261,-7.5334,-7.5442,-7.5225,-7.5225,-7.5225,-7.5225,-7.5225,-7.5225,-7.5225,-7.4894,-7.4707,-7.5116,-7.4857,-7.4593,-7.4593,-7.4593,-7.4441,-7.3983,-7.2918,-7.2191,-7.2191,-7.1128,-7.0394,-7.036,-7.036,-7.0049,-6.9325,-6.9256,-6.8911,-6.8152,-6.8083,-6.8083,-6.8083,-6.8083,-6.8083,-6.8083,-6.8083,-6.8083,-6.8083,-6.8083,-6.8083,-6.8083,-6.8083,-6.8083,-7.1436,0.0,0.0,0.0,0.0,0.0,0.0,0.0,0.0,0.0,0.0,0.0,0.0,0.0,0.0,0.0,0.0,0.0,0.0,0.0,0.0,0.0,0.0,0.0,0.0,0.0,0.0,0.0,-7.4356,-7.3993,-7.3414,-7.2617,-7.2183,-7.2183,-7.2726,-7.3052,-7.3052,-7.3052,-7.3052,-7.3016,-7.2436,-7.2472,-7.3052,-7.3052,-7.3378,-7.3921,-7.3921,-7.4142,-7.451,-7.5092,-7.5636,-7.6176,-7.6176,-7.6176,-7.6176,-7.6176,-7.6074,-7.5971,-7.5971,-7.5867,-7.5763,-7.5727,-7.5727,-7.5692,-7.5478,-7.5442,-7.5442,-7.5261,-7.5261,-7.5262,-7.5189,-7.5225,-7.5225,-7.5225,-7.5225,-7.5225,-7.5225,-7.5079,-7.5042,-7.5188,-7.5079,-7.5005,-7.5005,-7.4782,-7.4378,-7.3663,-7.2766,-7.2016,-7.142,-7.0782,-7.0187,-6.9635,-6.9601,-6.9256,-6.8497,-6.8428,-6.8325,-6.8118,-6.8083,-6.8083,-6.8083,-6.8083,-6.8083,-6.8083,-6.8083,-6.8083,-6.8083,-6.8083,-6.8083,-6.8083,-6.8083,-6.8083,-7.1571,0.0,0.0,0.0,0.0,0.0,-7.1748,-7.24,0.0,0.0,0.0,0.0,0.0,0.0,0.0,0.0,0.0,0.0,0.0,0.0,0.0,0.0,0.0,0.0,0.0,-7.3704,-7.3921,-7.3921,-7.3595,-7.3052,-7.2255,-7.1748,-7.1494,-7.1494,-7.1965,-7.2219,-7.2219,-7.2219,-7.2219,-7.2183,-7.1712,-7.1748,-7.2219,-7.2219,-7.2472,-7.2907,-7.2907,-7.3088,-7.345,-7.3921,-7.4573,-7.5334,-7.5659,-7.5804,-7.5841,-7.6167,-7.6208,-7.6106,-7.6106,-7.6074,-7.5971,-7.5901,-7.5867,-7.5832,-7.5692,-7.5621,-7.5621,-7.5478,-7.5406,-7.5334,-7.5334,-7.5262,-7.5225,-7.5225,-7.5225,-7.5225,-7.5225,-7.5225,-7.5225,-7.5225,-7.5225,-7.5118,-7.4761,-7.447,-7.4074,-7.3293,-7.235,-7.1504,-7.0857,-7.0119,-6.9456,-6.8882,-6.8773,-6.8601,-6.8152,-6.8083,-6.8083,-6.8083,-6.8083,-6.8083,-6.8083,-6.8083,-6.8083,-6.8083,-6.8083,-6.8083,-6.8083,-6.8083,-6.8083,-6.8083,-6.8083,-6.8083,-7.1929,-7.1712,-7.1639,0.0,0.0,0.0,-7.211,-7.2943,-7.3595,0.0,0.0,0.0,0.0,0.0,0.0,0.0,0.0,0.0,0.0,0.0,0.0,0.0,0.0,0.0,-7.2653,-7.3233,-7.3631,-7.3631,-7.2979,-7.2255,-7.1531,-7.1494,-7.1494,-7.1494,-7.1494,-7.1494,-7.1494,-7.1494,-7.1494,-7.1494,-7.1494,-7.1494,-7.1494,-7.1494,-7.1494,-7.1494,-7.1494,-7.1929,-7.2581,-7.2581,-7.3088,-7.3993,-7.4685,-7.4938,-7.5047,-7.5768,-7.6094,-7.6167,-7.6167,-7.6239,-7.6242,-7.6072,-7.6038,-7.6003,-7.5868,-7.5833,-7.5833,-7.5798,-7.5692,-7.5514,-7.5478,-7.537,-7.5261,-7.5225,-7.5225,-7.5225,-7.5225,-7.5153,-7.5082,-7.5082,-7.5082,-7.4868,-7.4118,-7.394,-7.3619,-7.2798,-7.1766,-7.0944,-7.0508,-6.9465,-6.8628,-6.828,-6.8241,-6.8201,-6.8162,-6.8162,-6.8123,-6.8083,-6.8083,-6.8083,-6.8083,-6.8083,-6.8083,-6.8083,-6.8083,-6.8083,-6.8083,-6.8083,-6.8083,-6.8083,-6.8083,-6.8083,0.0,0.0,0.0,0.0,0.0,0.0,-7.3667,-7.4211,-7.4428,0.0,0.0,0.0,0.0,0.0,0.0,0.0,0.0,0.0,0.0,0.0,0.0,0.0,0.0,0.0,-7.1748,-7.1893,-7.1965,-7.1965,-7.182,-7.1675,-7.1531,-7.1494,-7.1494,-7.1494,-7.1494,-7.1494,-7.1494,-7.1494,-7.1494,-7.1494,-7.1494,-7.1494,-7.1494,-7.1494,-7.1494,-7.1494,-7.1494,-7.1603,-7.1748,-7.1748,-7.2581,-7.3921,-7.4102,-7.4106,-7.4175,-7.4319,-7.479,-7.5334,-7.5334,-7.5768,-7.6275,-7.6242,-7.6242,-7.6208,-7.6003,-7.5971,-7.5936,-7.5833,-7.5763,-7.5692,-7.5514,-7.5442,-7.537,-7.5261,-7.5225,-7.5225,-7.5225,-7.4689,-7.4225,-7.4225,-7.4225,-7.4154,-7.4011,-7.3476,-7.2762,-7.2013,-7.1446,-7.0841,-7.0096,-6.9558,-6.9157,-6.9083,-6.9083,-6.8932,-6.8628,-6.859,-6.8435,-6.8123,-6.8083,-6.8083,-6.8083,-6.8083,-6.8083,-6.8083,-6.8083,-6.8083,-6.8083,-6.8083,-6.8083,-6.8083,-6.8083,-6.8083,0.0,0.0,0.0,-7.3305,0.0,0.0,0.0,-7.3921,-7.4142,0.0,0.0,0.0,0.0,0.0,0.0,0.0,0.0,0.0,0.0,0.0,0.0,0.0,0.0,0.0,-7.1494,-7.1494,-7.1494,-7.1494,-7.1494,-7.1494,-7.1494,-7.1494,-7.1494,-7.1494,-7.1494,-7.1494,-7.1494,-7.1494,-7.1494,-7.1494,-7.1494,-7.1494,-7.1494,-7.1494,-7.1494,-7.1494,-7.1494,-7.1494,-7.1494,-7.1494,-7.2001,-7.2762,-7.316,-7.3305,-7.3378,-7.3776,-7.4142,-7.4468,-7.4468,-7.479,-7.5116,-7.5116,-7.505,-7.5055,-7.5316,-7.5646,-7.5867,-7.5833,-7.5727,-7.5621,-7.555,-7.5406,-7.5298,-7.5225,-7.4903,-7.4618,-7.4618,-7.3976,-7.3405,-7.3405,-7.3119,-7.2869,-7.2869,-7.2513,-7.1977,-7.1228,-7.0946,-7.0558,-6.9991,-6.9706,-6.9525,-6.9342,-6.9305,-6.9231,-6.9008,-6.8819,-6.8628,-6.8397,-6.8397,-6.8397,-6.8397,-6.8397,-6.8319,-6.8083,-6.8083,-6.8083,-6.8083,-6.8083,-6.8083,-6.8083,-6.8083,-6.8083,0.0,0.0,0.0,0.0,0.0,-7.4211,0.0,0.0,0.0,0.0,0.0,0.0,0.0,0.0,0.0,0.0,0.0,0.0,0.0,0.0,0.0,0.0,0.0,0.0,0.0,-7.1494,-7.1494,-7.1494,-7.1494,-7.1494,-7.1494,-7.1494,-7.1494,-7.1494,-7.1494,-7.1494,-7.1494,-7.1494,-7.1494,-7.1494,-7.1494,-7.1494,-7.1494,-7.1494,-7.1494,-7.1494,-7.1494,-7.1494,-7.1494,-7.1494,-7.1494,-7.1567,-7.2219,-7.2472,-7.2545,-7.3197,-7.3559,-7.3667,-7.3667,-7.3776,-7.3921,-7.3921,-7.3823,-7.3868,-7.4449,-7.4997,-7.5434,-7.5434,-7.5295,-7.5155,-7.5119,-7.4977,-7.4797,-7.4761,-7.4261,-7.3797,-7.3797,-7.3155,-7.2584,-7.2584,-7.1977,-7.1513,-7.1656,-7.1549,-7.1228,-7.0585,-7.0514,-7.0375,-7.0062,-7.0026,-6.9885,-6.9561,-6.9525,-6.9489,-6.9416,-6.912,-6.8895,-6.8819,-6.8819,-6.8819,-6.8819,-6.8819,-6.8667,-6.8319,-6.8241,-6.8201,-6.8201,-6.8123,-6.8083,-6.8083,-6.8083,-6.8083,0.0,0.0,0.0,0.0,-7.5949,0.0,0.0,0.0,-7.4721,-7.3957,0.0,0.0,0.0,0.0,0.0,0.0,0.0,0.0,0.0,0.0,0.0,0.0,0.0,0.0,0.0,-7.1494,-7.1494,-7.1494,-7.1494,-7.1494,-7.1494,-7.1494,-7.1494,-7.1494,-7.1494,-7.1494,-7.1494,-7.1494,-7.1494,-7.1494,-7.1494,-7.1494,-7.1494,-7.1494,-7.1494,-7.1494,-7.1494,-7.1494,-7.1494,-7.1494,-7.1494,-7.1531,-7.1603,-7.1639,-7.1639,-7.1748,-7.2219,-7.2834,-7.2834,-7.3305,-7.3921,-7.3921,-7.3888,-7.3888,-7.3997,-7.4037,-7.4145,-7.4145,-7.4013,-7.3846,-7.3676,-7.3505,-7.3295,-7.3119,-7.3012,-7.2941,-7.2941,-7.2334,-7.1799,-7.1799,-7.1192,-7.0871,-7.1585,-7.1121,-7.0621,-7.0514,-7.0514,-7.048,-7.0445,-7.0445,-7.041,-7.0341,-7.0341,-7.0202,-6.9849,-6.9778,-6.9598,-6.9268,-6.9231,-6.9231,-6.9231,-6.9231,-6.9231,-6.9157,-6.8819,-6.8628,-6.8628,-6.828,-6.8083,-6.8083,-6.8083,-6.8083,0.0,0.0,0.0,0.0,0.0,0.0,-7.5623,0.0,-7.4319,0.0,0.0,0.0,0.0,0.0,0.0,0.0,-7.182,0.0,0.0,0.0,0.0,0.0,0.0,0.0,0.0,0.0,0.0,0.0,-7.1494,-7.1494,-7.1494,-7.1494,-7.1494,-7.1494,-7.1494,-7.1494,-7.1494,-7.1494,-7.1494,-7.1494,-7.1494,-7.1494,-7.1494,-7.1494,-7.1494,-7.1494,-7.1494,-7.1494,-7.1494,-7.1494,-7.1494,-7.1494,-7.1494,-7.1494,-7.1494,-7.1494,-7.1712,-7.2001,-7.2001,-7.2219,-7.2477,-7.2416,-7.2709,-7.307,-7.2939,-7.323,-7.3591,-7.3591,-7.3593,-7.3492,-7.3252,-7.3149,-7.3079,-7.2833,-7.2477,-7.2156,-7.2156,-7.1549,-7.1014,-7.1014,-7.0728,-7.0621,-7.0942,-7.0728,-7.0514,-7.0514,-7.0514,-7.0514,-7.0514,-7.0514,-7.0514,-7.0514,-7.0514,-7.0445,-7.0272,-7.0062,-6.9813,-6.967,-6.9634,-6.9634,-6.9634,-6.9634,-6.9416,-6.897,-6.8781,-6.859,-6.8358,-6.8162,-6.8083,-6.8083,-6.8083,-6.8083,-7.6275,0.0,0.0,0.0,0.0,0.0,0.0,0.0,0.0,0.0,0.0,0.0,0.0,0.0,0.0,0.0,0.0,-7.1712,0.0,0.0,0.0,0.0,0.0,0.0,0.0,0.0,0.0,-7.1494,-7.1494,-7.1494,-7.1494,-7.1494,-7.1494,-7.1494,-7.1494,-7.1494,-7.1494,-7.1494,-7.1494,-7.1494,-7.1494,-7.1494,-7.1494,-7.1494,-7.1494,-7.1494,-7.1494,-7.1494,-7.1494,-7.1494,-7.1494,-7.1494,-7.1494,-7.1494,-7.1494,-7.1494,-7.1494,-7.1494,-7.1494,-7.1494,-7.1463,-7.1404,-7.1737,-7.2207,-7.2044,-7.2407,-7.2875,-7.2875,-7.2842,-7.2775,-7.264,-7.2538,-7.2435,-7.2296,-7.1798,-7.1371,-7.1371,-7.0907,-7.0514,-7.0514,-7.0514,-7.0514,-7.0514,-7.0514,-7.0514,-7.0514,-7.0514,-7.0514,-7.0514,-7.0514,-7.0514,-7.0514,-7.0514,-7.0514,-7.0514,-7.0237,-7.0062,-7.0062,-7.0062,-7.0062,-7.0062,-7.0062,-6.9742,-6.9045,-6.8932,-6.8667,-6.8241,-6.8162,-6.8083,-6.8083,-6.8083,-6.8083,0.0,0.0,0.0,-7.6275,0.0,0.0,0.0,0.0,-7.5047,0.0,0.0,0.0,0.0,-7.2038,-7.1531,-7.1531,-7.1531,0.0,0.0,0.0,0.0,0.0,0.0,0.0,0.0,0.0,0.0,-7.1494,-7.1494,-7.1494,-7.1494,-7.1494,-7.1494,-7.1494,-7.1494,-7.1494,-7.1494,-7.1494,-7.1494,-7.1494,-7.1494,-7.1494,-7.1494,-7.1494,-7.1494,-7.1494,-7.1494,-7.1494,-7.1494,-7.1494,-7.1494,-7.1494,-7.1494,-7.1494,-7.1494,-7.1494,-7.1494,-7.1494,-7.1494,-7.1494,-7.1494,-7.1494,-7.1531,-7.1531,-7.1499,-7.1535,-7.1535,-7.1535,-7.1476,-7.1384,-7.1348,-7.1123,-7.0893,-7.0893,-7.0722,-7.055,-7.055,-7.0514,-7.0514,-7.0514,-7.0514,-7.0514,-7.0514,-7.0514,-7.0514,-7.0514,-7.0514,-7.0514,-7.0514,-7.0514,-7.0514,-7.0514,-7.0514,-7.0514,-7.0514,-7.0514,-7.048,-7.048,-7.048,-7.048,-7.048,-7.048,-7.0272,-6.9849,-6.9489,-6.9083,-6.8705,-6.828,-6.8083,-6.8083,-6.8083,-6.8083,0.0,0.0,-7.6275,-7.6275,0.0,0.0,0.0,0.0,0.0,0.0,0.0,0.0,0.0,-7.2834,-7.2291,-7.2291,-7.1857,-7.1494,0.0,0.0,0.0,0.0,0.0,0.0,0.0,0.0,0.0,-7.1494,-7.1494,-7.1494,-7.1494,-7.1494,-7.1494,-7.1494,-7.1494,-7.1494,-7.1494,-7.1494,-7.1494,-7.1494,-7.1494,-7.1494,-7.1494,-7.1494,-7.1494,-7.1494,-7.1494,-7.1494,-7.1494,-7.1494,-7.1494,-7.1494,-7.1494,-7.1494,-7.1494,-7.1494,-7.1494,-7.1494,-7.1494,-7.1494,-7.1494,-7.1494,-7.1494,-7.1494,-7.1494,-7.1494,-7.1494,-7.1494,-7.1499,-7.1436,-7.1308,-7.1247,-7.1117,-7.0949,-7.0883,-7.0817,-7.0718,-7.0684,-7.065,-7.0548,-7.0514,-7.0514,-7.0514,-7.0514,-7.0514,-7.0514,-7.0514,-7.0514,-7.0514,-7.0514,-7.0514,-7.0514,-7.0514,-7.0514,-7.0514,-7.0514,-7.0514,-7.0514,-7.0514,-7.0514,-7.0514,-7.0514,-7.0306,-6.9885,-6.9742,-6.9489,-6.912,-6.897,-6.8781,-6.8513,-6.8513,-6.8358,-7.6275,-7.6275,0.0,-7.6275,-7.6275,0.0,-7.6275,0.0,-7.5551,0.0,0.0,0.0,0.0,-7.3667,-7.3052,-7.2762,-7.2255,-7.182,0.0,-7.1494,0.0,0.0,0.0,0.0,0.0,0.0,-7.1494,-7.1494,-7.1494,-7.1494,0.0,-7.1494,-7.1494,-7.1494,-7.1494,-7.1494,-7.1494,-7.1494,-7.1494,-7.1494,-7.1494,-7.1494,-7.1494,-7.1494,-7.1494,-7.1494,-7.1494,-7.1494,-7.1494,-7.1494,-7.1494,-7.1494,-7.1494,-7.1494,-7.1494,-7.1494,-7.1494,-7.1494,-7.1494,-7.1494,-7.1494,-7.1494,-7.1494,-7.1494,-7.1494,-7.1494,-7.1567,-7.1857,-7.1712,-7.1535,-7.1701,-7.146,-7.1146,-7.0982,-7.0883,-7.0783,-7.0718,-7.0684,-7.065,-7.0548,-7.0514,-7.0514,-7.0514,-7.0514,-7.0514,-7.0514,-7.0514,-7.0514,-7.0514,-7.0514,-7.0514,-7.0514,-7.0514,-7.0514,-7.0514,-7.0514,-7.0514,-7.0514,-7.0514,-7.0514,-7.0514,-7.0514,-7.0449,-7.0309,-7.0062,-6.9847,-6.9727,-6.9446,-6.9157,-6.8932,-6.8932,-6.8781]},{"header":{"parameterUnit":"m.s-1","parameterCategory":1,"la1":30.6,"la2":29.2853,"lo1":-89.7004,"lo2":-87.6739,"dy":0.0162,"dx":0.0183,"nx":112,"ny":82,"refTime":"2023-06-09T12:00:00:Z","depth":0,"parameterNumber":3,"parameterNumberName":"V-component_of_WINDS"},"data":[0.0,0.0,0.0,0.0,0.0,0.0,0.0,0.0,0.0,0.0,0.0,0.0,0.0,0.0,0.0,0.0,0.0,0.0,0.0,0.0,0.0,0.0,0.0,0.0,0.0,0.0,0.0,0.0,0.0,0.0,0.0,0.0,0.0,0.0,0.0,0.0,0.0,0.0,0.0,0.0,0.0,0.0,0.0,0.0,0.0,0.0,0.0,0.0,0.0,0.0,0.0,0.0,0.0,0.0,0.0,0.0,0.0,0.0,0.0,0.0,0.0,0.0,0.0,0.0,0.0,0.0,0.0,0.0,0.0,0.0,0.0,0.0,0.0,0.0,0.0,0.0,0.0,0.0,0.0,0.0,0.0,0.0,0.0,0.0,0.0,0.0,0.0,0.0,0.0,0.0,-3.2715,-3.3316,-3.3418,-3.3418,-3.3418,-3.3418,-3.3102,-3.2422,0.0,0.0,0.0,0.0,0.0,0.0,0.0,0.0,0.0,0.0,0.0,0.0,0.0,0.0,0.0,0.0,0.0,0.0,0.0,0.0,0.0,0.0,0.0,0.0,0.0,0.0,0.0,0.0,0.0,0.0,0.0,0.0,0.0,0.0,0.0,0.0,0.0,0.0,0.0,0.0,0.0,0.0,0.0,0.0,0.0,0.0,0.0,0.0,0.0,0.0,0.0,0.0,0.0,0.0,0.0,0.0,0.0,0.0,0.0,0.0,0.0,0.0,0.0,0.0,0.0,0.0,0.0,0.0,0.0,0.0,0.0,0.0,0.0,0.0,0.0,0.0,0.0,0.0,0.0,0.0,0.0,0.0,0.0,0.0,0.0,0.0,0.0,0.0,0.0,0.0,0.0,0.0,0.0,0.0,0.0,0.0,0.0,0.0,0.0,0.0,0.0,0.0,0.0,0.0,-3.3296,-3.3418,-3.3418,-3.3418,-3.3418,-3.3418,-3.3102,-3.2422,0.0,0.0,0.0,0.0,0.0,0.0,0.0,0.0,0.0,0.0,0.0,0.0,0.0,0.0,0.0,0.0,0.0,0.0,0.0,0.0,0.0,0.0,0.0,0.0,0.0,0.0,0.0,0.0,0.0,0.0,0.0,0.0,0.0,0.0,0.0,0.0,0.0,0.0,0.0,0.0,0.0,0.0,0.0,0.0,0.0,0.0,0.0,0.0,0.0,0.0,0.0,0.0,0.0,0.0,0.0,0.0,0.0,0.0,0.0,0.0,0.0,0.0,0.0,0.0,0.0,0.0,0.0,0.0,0.0,0.0,0.0,0.0,0.0,0.0,0.0,0.0,0.0,0.0,0.0,0.0,0.0,0.0,0.0,0.0,0.0,0.0,0.0,0.0,0.0,0.0,0.0,0.0,0.0,0.0,0.0,0.0,0.0,0.0,0.0,0.0,0.0,0.0,0.0,-3.3784,-3.4121,-3.4121,-3.4121,-3.4023,-3.3789,-3.3769,-3.3353,-3.2441,-3.2422,0.0,0.0,0.0,0.0,0.0,0.0,0.0,0.0,0.0,0.0,0.0,0.0,0.0,0.0,0.0,0.0,0.0,0.0,0.0,0.0,0.0,0.0,0.0,0.0,0.0,0.0,0.0,0.0,0.0,0.0,0.0,0.0,0.0,0.0,0.0,0.0,0.0,0.0,0.0,0.0,0.0,0.0,0.0,0.0,0.0,0.0,0.0,0.0,0.0,0.0,0.0,0.0,0.0,0.0,0.0,0.0,0.0,0.0,0.0,0.0,0.0,0.0,0.0,0.0,0.0,0.0,0.0,0.0,0.0,0.0,0.0,0.0,0.0,0.0,0.0,0.0,0.0,0.0,0.0,0.0,0.0,0.0,0.0,0.0,0.0,0.0,0.0,0.0,0.0,0.0,0.0,0.0,0.0,0.0,0.0,0.0,0.0,0.0,0.0,0.0,0.0,0.0,-3.4492,-3.4707,-3.4707,-3.4707,-3.457,-3.4258,-3.4219,-3.3824,-3.2789,-3.263,0.0,0.0,0.0,0.0,0.0,0.0,0.0,0.0,0.0,0.0,0.0,0.0,0.0,0.0,0.0,0.0,0.0,0.0,0.0,0.0,0.0,0.0,0.0,0.0,0.0,0.0,0.0,0.0,0.0,0.0,0.0,0.0,0.0,0.0,0.0,0.0,0.0,0.0,0.0,0.0,0.0,0.0,0.0,0.0,0.0,0.0,0.0,0.0,0.0,0.0,0.0,0.0,0.0,0.0,0.0,0.0,0.0,0.0,0.0,0.0,0.0,0.0,0.0,0.0,0.0,0.0,0.0,0.0,0.0,0.0,0.0,0.0,0.0,0.0,0.0,0.0,0.0,0.0,0.0,0.0,0.0,0.0,0.0,0.0,0.0,0.0,0.0,0.0,0.0,0.0,0.0,0.0,0.0,0.0,0.0,0.0,0.0,0.0,0.0,0.0,0.0,0.0,-3.4687,-3.4707,-3.4707,-3.4707,-3.4687,-3.4668,-3.4648,-3.4386,-3.3643,-3.3282,0.0,0.0,0.0,0.0,0.0,0.0,0.0,0.0,0.0,0.0,0.0,0.0,0.0,0.0,0.0,0.0,0.0,0.0,0.0,0.0,0.0,0.0,0.0,0.0,0.0,0.0,0.0,0.0,0.0,0.0,0.0,0.0,0.0,0.0,0.0,0.0,0.0,0.0,0.0,0.0,0.0,0.0,0.0,0.0,0.0,0.0,0.0,0.0,0.0,0.0,0.0,0.0,0.0,0.0,0.0,0.0,0.0,0.0,0.0,0.0,0.0,0.0,0.0,0.0,0.0,0.0,0.0,0.0,0.0,0.0,0.0,0.0,0.0,0.0,0.0,0.0,0.0,0.0,0.0,0.0,0.0,0.0,0.0,0.0,0.0,0.0,0.0,0.0,0.0,0.0,0.0,0.0,0.0,0.0,0.0,0.0,0.0,0.0,0.0,0.0,0.0,0.0,-3.5371,-3.5527,0.0,-3.5527,-3.541,-3.5156,-3.5137,-3.4754,-3.3738,0.0,0.0,0.0,0.0,0.0,0.0,0.0,0.0,0.0,0.0,0.0,0.0,0.0,0.0,0.0,0.0,0.0,0.0,0.0,0.0,0.0,0.0,0.0,0.0,0.0,0.0,0.0,0.0,0.0,0.0,0.0,0.0,0.0,0.0,0.0,0.0,0.0,0.0,0.0,0.0,0.0,0.0,0.0,0.0,0.0,0.0,0.0,0.0,0.0,0.0,0.0,0.0,0.0,0.0,0.0,0.0,0.0,0.0,0.0,0.0,0.0,0.0,0.0,0.0,0.0,0.0,0.0,0.0,0.0,0.0,0.0,0.0,0.0,0.0,0.0,0.0,0.0,0.0,0.0,0.0,0.0,0.0,0.0,0.0,0.0,0.0,0.0,0.0,0.0,0.0,0.0,0.0,0.0,0.0,0.0,0.0,0.0,0.0,0.0,0.0,0.0,0.0,-3.5566,-3.584,-3.6016,0.0,-3.6016,-3.5898,-3.5605,-3.5586,-3.52,-3.4136,0.0,0.0,0.0,0.0,0.0,0.0,0.0,0.0,0.0,0.0,0.0,0.0,0.0,0.0,0.0,0.0,0.0,0.0,0.0,0.0,0.0,0.0,0.0,0.0,0.0,0.0,0.0,0.0,0.0,0.0,0.0,0.0,0.0,0.0,0.0,0.0,0.0,0.0,0.0,0.0,0.0,0.0,0.0,0.0,0.0,0.0,0.0,0.0,0.0,0.0,0.0,0.0,0.0,0.0,0.0,0.0,0.0,0.0,0.0,0.0,0.0,0.0,0.0,0.0,0.0,0.0,0.0,0.0,0.0,0.0,0.0,0.0,0.0,0.0,0.0,0.0,0.0,0.0,0.0,0.0,0.0,0.0,0.0,0.0,0.0,0.0,0.0,0.0,0.0,0.0,0.0,0.0,0.0,0.0,0.0,0.0,0.0,0.0,0.0,0.0,0.0,0.0,-3.5976,-3.6016,-3.6016,-3.6016,-3.6016,-3.6016,-3.6016,-3.6016,-3.5675,0.0,0.0,0.0,0.0,0.0,0.0,0.0,0.0,0.0,0.0,0.0,0.0,0.0,0.0,0.0,0.0,0.0,0.0,0.0,0.0,0.0,0.0,0.0,0.0,0.0,0.0,0.0,0.0,0.0,0.0,0.0,0.0,0.0,0.0,0.0,0.0,0.0,0.0,0.0,0.0,0.0,0.0,0.0,0.0,0.0,0.0,0.0,0.0,0.0,0.0,0.0,0.0,0.0,0.0,0.0,0.0,0.0,0.0,0.0,0.0,0.0,0.0,0.0,0.0,0.0,0.0,0.0,0.0,0.0,0.0,0.0,0.0,0.0,0.0,0.0,0.0,0.0,0.0,0.0,0.0,0.0,0.0,0.0,0.0,0.0,0.0,0.0,0.0,0.0,0.0,0.0,0.0,0.0,0.0,0.0,0.0,0.0,0.0,0.0,0.0,0.0,0.0,0.0,-3.5996,-3.6016,-3.6016,-3.6016,-3.6016,-3.6016,-3.6016,-3.6016,-3.5675,-3.499,0.0,0.0,0.0,0.0,0.0,0.0,0.0,0.0,0.0,0.0,0.0,0.0,0.0,0.0,0.0,0.0,0.0,0.0,0.0,0.0,0.0,0.0,0.0,0.0,0.0,0.0,0.0,0.0,0.0,0.0,0.0,0.0,0.0,0.0,0.0,0.0,0.0,0.0,0.0,0.0,0.0,0.0,0.0,0.0,0.0,0.0,0.0,0.0,0.0,0.0,0.0,0.0,0.0,0.0,0.0,0.0,0.0,0.0,0.0,0.0,0.0,0.0,0.0,0.0,0.0,0.0,0.0,0.0,0.0,0.0,0.0,0.0,0.0,0.0,0.0,0.0,0.0,0.0,0.0,0.0,0.0,0.0,0.0,0.0,0.0,0.0,0.0,0.0,0.0,0.0,0.0,0.0,0.0,0.0,0.0,0.0,0.0,0.0,0.0,0.0,0.0,0.0,-3.5811,-3.5947,-3.6016,-3.6016,-3.6016,-3.6016,-3.6016,-3.6016,-3.5743,-3.5196,0.0,0.0,0.0,0.0,0.0,0.0,0.0,0.0,0.0,0.0,0.0,0.0,0.0,0.0,0.0,0.0,0.0,0.0,0.0,0.0,0.0,0.0,0.0,0.0,0.0,0.0,0.0,0.0,0.0,0.0,0.0,0.0,0.0,0.0,0.0,0.0,0.0,0.0,0.0,0.0,0.0,0.0,0.0,0.0,0.0,0.0,0.0,0.0,0.0,0.0,0.0,0.0,0.0,0.0,0.0,0.0,0.0,0.0,0.0,0.0,0.0,0.0,0.0,0.0,0.0,0.0,0.0,0.0,0.0,0.0,0.0,0.0,0.0,0.0,0.0,0.0,0.0,0.0,0.0,0.0,0.0,0.0,0.0,0.0,0.0,0.0,0.0,0.0,0.0,0.0,0.0,0.0,0.0,0.0,0.0,0.0,0.0,0.0,0.0,0.0,0.0,0.0,-3.5489,-3.5811,-3.6016,-3.6016,-3.6055,-3.6055,-3.6016,-3.6055,-3.5918,-3.5557,0.0,0.0,0.0,0.0,0.0,0.0,0.0,0.0,0.0,0.0,0.0,0.0,0.0,0.0,0.0,0.0,0.0,0.0,0.0,0.0,0.0,0.0,0.0,0.0,0.0,0.0,0.0,0.0,0.0,0.0,0.0,0.0,0.0,0.0,0.0,0.0,0.0,0.0,0.0,0.0,0.0,0.0,0.0,0.0,0.0,0.0,0.0,0.0,0.0,0.0,0.0,0.0,0.0,0.0,0.0,0.0,0.0,0.0,0.0,0.0,-3.4222,0.0,0.0,0.0,0.0,0.0,0.0,0.0,0.0,0.0,0.0,0.0,0.0,0.0,0.0,0.0,0.0,0.0,0.0,0.0,0.0,0.0,0.0,0.0,0.0,0.0,0.0,0.0,0.0,0.0,0.0,0.0,0.0,0.0,0.0,0.0,0.0,0.0,0.0,0.0,0.0,0.0,-3.5489,-3.5811,-3.6016,-3.6016,-3.6328,-3.6387,-3.6055,-3.6328,-3.6249,-3.5557,-3.5489,0.0,0.0,0.0,0.0,0.0,0.0,0.0,0.0,0.0,0.0,0.0,0.0,0.0,0.0,0.0,0.0,0.0,0.0,0.0,0.0,0.0,0.0,0.0,0.0,0.0,0.0,0.0,0.0,0.0,0.0,0.0,0.0,0.0,0.0,0.0,0.0,0.0,0.0,0.0,0.0,0.0,0.0,0.0,0.0,0.0,0.0,0.0,0.0,0.0,0.0,0.0,0.0,0.0,0.0,0.0,0.0,0.0,0.0,0.0,0.0,-3.4729,0.0,0.0,0.0,0.0,0.0,0.0,0.0,0.0,0.0,0.0,0.0,0.0,0.0,0.0,0.0,0.0,0.0,0.0,0.0,0.0,0.0,0.0,0.0,0.0,0.0,0.0,0.0,0.0,0.0,0.0,0.0,0.0,0.0,0.0,0.0,0.0,0.0,0.0,0.0,0.0,-3.5876,-3.6294,-3.6641,-3.6641,-3.6836,-3.6875,-3.666,-3.6836,-3.6727,-3.6092,-3.5915,0.0,0.0,0.0,0.0,0.0,0.0,0.0,0.0,0.0,0.0,0.0,0.0,0.0,0.0,0.0,0.0,0.0,0.0,0.0,0.0,0.0,0.0,0.0,0.0,0.0,0.0,0.0,0.0,0.0,0.0,0.0,0.0,0.0,0.0,0.0,0.0,0.0,0.0,0.0,0.0,0.0,0.0,0.0,0.0,0.0,0.0,0.0,0.0,0.0,0.0,0.0,0.0,0.0,-3.5626,-3.5626,-3.5606,-3.5879,-3.5811,-3.5606,-3.5879,-3.5811,-3.5626,-3.5626,0.0,0.0,0.0,0.0,0.0,0.0,0.0,0.0,0.0,0.0,0.0,0.0,0.0,0.0,0.0,0.0,0.0,0.0,0.0,0.0,0.0,0.0,0.0,0.0,-3.539,-3.5585,-3.531,0.0,0.0,0.0,0.0,0.0,0.0,0.0,0.0,0.0,0.0,0.0,-3.6295,-3.6862,-3.7305,-3.7305,-3.7363,-3.7383,-3.7305,-3.7363,-3.7226,-3.6816,-3.6421,-3.602,0.0,0.0,0.0,0.0,0.0,0.0,0.0,0.0,0.0,0.0,0.0,0.0,0.0,0.0,0.0,0.0,0.0,0.0,0.0,0.0,0.0,0.0,0.0,0.0,0.0,0.0,0.0,0.0,0.0,0.0,0.0,0.0,-3.1035,-3.1091,0.0,0.0,0.0,0.0,0.0,0.0,0.0,0.0,0.0,0.0,0.0,0.0,0.0,-3.51,-3.5802,-3.5519,-3.5606,-3.5947,-3.5947,-3.5947,-3.5947,-3.5947,-3.5947,-3.5947,-3.5947,0.0,-3.5947,-3.5947,0.0,0.0,0.0,0.0,0.0,0.0,0.0,0.0,0.0,0.0,0.0,0.0,0.0,0.0,0.0,0.0,0.0,0.0,0.0,0.0,0.0,0.0,-3.5879,-3.5879,-3.624,-3.6513,0.0,-3.567,-3.4921,-3.499,-3.4921,-3.4897,0.0,0.0,0.0,0.0,0.0,0.0,-3.6578,-3.7003,-3.7305,-3.7305,-3.7617,-3.7695,-3.7324,-3.7637,-3.7656,-3.7246,-3.6875,-3.6433,-3.6028,-3.5593,0.0,0.0,0.0,0.0,0.0,0.0,0.0,0.0,0.0,0.0,0.0,0.0,0.0,0.0,0.0,0.0,0.0,0.0,0.0,0.0,0.0,0.0,0.0,0.0,0.0,0.0,0.0,0.0,0.0,-3.0997,-3.1746,-3.2453,-3.2131,-3.2131,0.0,0.0,0.0,0.0,0.0,0.0,0.0,0.0,0.0,-3.547,-3.5538,-3.5675,-3.6016,-3.5811,-3.5811,-3.6016,-3.6269,-3.6387,-3.6387,-3.6641,-3.6738,-3.6738,-3.6738,-3.6738,-3.6699,-3.6211,-3.5879,-3.5675,0.0,0.0,0.0,0.0,-3.5073,-3.5332,-3.547,-3.5692,-3.5883,-3.5883,0.0,0.0,0.0,0.0,0.0,0.0,0.0,0.0,0.0,0.0,-3.646,-3.6669,-3.6875,-3.7031,-3.7031,-3.6596,-3.6321,-3.651,-3.6023,-3.58,-3.6533,-3.627,0.0,0.0,0.0,-3.7576,-3.772,-3.8295,-3.8652,-3.8652,-3.8616,-3.8583,-3.8406,-3.8328,-3.8105,-3.7676,-3.7266,-3.6844,-3.6452,-3.5838,-3.5333,0.0,0.0,0.0,0.0,0.0,0.0,0.0,0.0,0.0,0.0,0.0,0.0,0.0,0.0,0.0,0.0,0.0,0.0,0.0,0.0,0.0,0.0,0.0,0.0,0.0,0.0,0.0,0.0,-3.1899,-3.2609,-3.3733,-3.3366,-3.3287,0.0,0.0,0.0,0.0,0.0,0.0,-3.5177,-3.547,-3.5606,-3.5606,-3.5879,-3.6074,-3.6191,-3.6191,-3.625,-3.6348,-3.668,-3.6836,-3.6836,-3.7148,-3.7305,-3.7305,-3.7305,-3.7305,-3.7246,-3.6621,-3.621,-3.5935,-3.5935,-3.5797,-3.552,-3.552,-3.5711,-3.6049,-3.6328,-3.6591,-3.6862,-3.6862,-3.6791,-3.6649,-3.6437,0.0,0.0,0.0,0.0,-3.6437,-3.6791,-3.6862,-3.6932,-3.7234,-3.7383,-3.7461,-3.7461,-3.7468,-3.7488,0.0,-3.7003,-3.6759,-3.7634,-3.7358,0.0,0.0,0.0,-3.8501,-3.872,-3.9156,-3.9425,-3.957,-3.9228,-3.903,-3.903,-3.8793,-3.8437,-3.8105,-3.7695,-3.7324,-3.7012,-3.6208,-3.578,-3.5643,0.0,0.0,0.0,0.0,0.0,0.0,0.0,0.0,0.0,0.0,0.0,0.0,0.0,0.0,0.0,0.0,0.0,0.0,0.0,0.0,0.0,0.0,0.0,0.0,0.0,0.0,0.0,0.0,0.0,-3.4544,-3.4583,0.0,0.0,0.0,0.0,-3.5412,-3.5724,-3.5928,-3.5947,-3.5947,-3.5947,-3.5947,-3.6016,-3.6211,-3.6641,-3.6641,-3.6836,-3.7226,-3.7266,-3.7266,-3.7266,-3.7285,-3.7305,-3.7305,-3.7305,-3.7305,-3.7285,-3.7246,-3.7226,-3.7226,-3.7226,-3.7226,-3.7156,-3.7156,-3.7176,-3.7195,-3.7266,-3.7285,-3.7305,-3.7305,-3.7003,-3.672,-3.672,-3.6437,0.0,0.0,-3.6649,-3.6791,-3.7164,-3.7305,-3.7285,-3.7305,-3.7598,-3.7891,-3.7891,-3.7953,-3.7846,0.0,-3.7305,-3.728,-3.7402,0.0,-3.749,-3.7913,-3.799,-3.8302,-3.9103,-3.8865,-3.8793,-3.9176,-3.8865,-3.8647,-3.8647,-3.8647,-3.8555,-3.8555,-3.8125,-3.7891,-3.7851,-3.707,-3.6502,-3.6066,-3.5681,0.0,0.0,0.0,0.0,0.0,0.0,0.0,0.0,0.0,0.0,0.0,0.0,0.0,0.0,0.0,0.0,0.0,0.0,0.0,0.0,0.0,0.0,0.0,0.0,0.0,0.0,0.0,0.0,-3.5098,-3.4937,0.0,-3.5539,-3.553,-3.5588,-3.5811,-3.5947,-3.6016,-3.6016,-3.6289,-3.6445,-3.6445,-3.6699,-3.6914,-3.707,-3.707,-3.7148,-3.7305,-3.7578,-3.7695,-3.7715,-3.7988,-3.8125,-3.8125,-3.8125,-3.8125,-3.8125,-3.8125,-3.7793,-3.7305,-3.7305,-3.7305,-3.7305,-3.7305,-3.7461,-3.7695,-3.7695,-3.7891,-3.8125,-3.8125,-3.8033,-3.7889,-3.7889,-3.7817,-3.7745,-3.7889,-3.7889,-3.7981,-3.8125,-3.8125,-3.8125,-3.8125,-3.8242,-3.834,-3.834,-3.8404,-3.835,-3.8184,-3.7909,-3.7895,-3.8485,-3.8359,-3.8326,-3.872,-3.8739,-3.8885,-3.9176,-3.9228,-3.9353,-3.9518,-3.9228,-3.8958,-3.8958,-3.872,-3.8574,-3.8574,-3.8164,-3.793,-3.793,-3.7383,-3.7,-3.686,-3.6495,-3.5934,0.0,0.0,0.0,0.0,0.0,0.0,0.0,0.0,0.0,0.0,0.0,0.0,0.0,0.0,0.0,0.0,0.0,0.0,0.0,0.0,0.0,0.0,0.0,0.0,0.0,0.0,-3.4965,-3.5547,-3.5403,-3.5433,-3.5928,-3.5811,-3.5743,-3.5947,-3.6152,-3.623,-3.623,-3.6641,-3.6875,-3.6875,-3.7148,-3.7441,-3.7734,-3.7734,-3.7871,-3.8184,-3.8457,-3.8594,-3.8594,-3.8887,-3.9023,-3.9023,-3.9023,-3.9023,-3.9023,-3.9023,-3.8594,-3.793,-3.7793,-3.7734,-3.7734,-3.7734,-3.791,-3.8144,-3.8144,-3.834,-3.8574,-3.8574,-3.8574,-3.8574,-3.8574,-3.8574,-3.8574,-3.8574,-3.8574,-3.8574,-3.8574,-3.8574,-3.8574,-3.8574,-3.8574,-3.8574,-3.8574,-3.8574,-3.8574,-3.8574,-3.8355,-3.8375,-3.8885,-3.8793,-3.8647,-3.8812,-3.8885,-3.903,-3.903,-3.9156,-3.9353,-3.9518,-3.9228,-3.903,-3.903,-3.8667,-3.8428,-3.8574,-3.8156,-3.8,-3.8144,-3.7592,-3.7287,-3.7287,-3.6797,-3.6303,-3.5825,0.0,0.0,0.0,0.0,0.0,0.0,0.0,0.0,0.0,0.0,0.0,0.0,0.0,0.0,0.0,0.0,0.0,0.0,0.0,0.0,0.0,0.0,0.0,-3.4883,-3.4902,-3.5191,-3.5908,-3.6016,-3.6016,-3.6016,-3.6035,-3.6035,-3.6035,-3.6445,-3.668,-3.668,-3.709,-3.7324,-3.7344,-3.7344,-3.7754,-3.8613,-3.8613,-3.9043,-3.9902,-3.9902,-3.9902,-3.9902,-3.9902,-3.9902,-3.9902,-3.9902,-3.9902,-3.9902,-3.9902,-3.9629,-3.918,-3.875,-3.8594,-3.8574,-3.8574,-3.8574,-3.8574,-3.8574,-3.8574,-3.8574,-3.8574,-3.8574,-3.8574,-3.8574,-3.8574,-3.8574,-3.8574,-3.8574,-3.8574,-3.8574,-3.8574,-3.8574,-3.8574,-3.8574,-3.8574,-3.8594,-3.8594,-3.8594,-3.8613,-3.8613,-3.8613,-3.8574,-3.8574,-3.8448,-3.8101,-3.8394,0.0,-3.8613,-3.8613,-3.8759,-3.9143,-3.8832,-3.8594,-3.8594,-3.8248,-3.8175,-3.8574,-3.8228,-3.8228,-3.8574,-3.7875,-3.7446,-3.7355,-3.6575,-3.6204,-3.6152,0.0,0.0,0.0,0.0,0.0,0.0,0.0,0.0,0.0,0.0,0.0,0.0,0.0,0.0,0.0,0.0,0.0,0.0,0.0,0.0,0.0,0.0,-3.5336,-3.5296,-3.551,-3.5743,-3.6016,-3.6016,-3.6016,-3.6016,-3.6309,-3.6484,-3.6484,-3.6894,-3.7129,-3.7129,-3.7519,-3.7891,-3.8223,-3.8516,-3.8965,-3.9531,-3.9531,-3.9648,-3.9902,-3.9902,-3.9902,-3.9902,-3.9902,-3.9902,-3.9902,-3.9902,-3.9902,-3.9902,-3.9902,-3.9824,-3.9668,-3.9199,-3.8848,-3.8574,-3.8574,-3.8574,-3.8574,-3.8574,-3.8574,-3.8574,-3.8228,-3.8375,-3.8574,-3.8228,-3.8355,-3.8574,-3.8574,-3.8574,-3.8574,-3.8574,-3.8574,-3.8574,-3.8574,-3.8574,-3.8652,-3.8965,-3.9023,-3.9121,-3.9473,-3.9531,-3.9336,-3.8691,-3.8574,-3.8672,-3.8837,-3.895,0.0,-3.9492,-3.9238,-3.9086,-3.9174,-3.8867,-3.8599,-3.8599,-3.8545,-3.8464,-3.8594,-3.8501,-3.8501,-3.8574,-3.8384,-3.788,-3.6994,-3.6148,-3.5779,0.0,0.0,0.0,0.0,0.0,0.0,0.0,0.0,0.0,0.0,0.0,0.0,0.0,0.0,0.0,0.0,0.0,0.0,0.0,0.0,0.0,0.0,-3.518,-3.5734,-3.5684,-3.5859,-3.6016,-3.6016,-3.6016,-3.6094,-3.6269,-3.6523,-3.6738,-3.6914,-3.7324,-3.7637,-3.7832,-3.8223,-3.8672,-3.9121,-3.9375,-3.9707,-4.0156,-4.0156,-4.0254,-4.043,-4.0605,-4.0703,-4.0703,-4.0879,-4.0957,-4.0957,-4.0957,-4.0957,-4.0957,-4.0957,-4.0859,0.0,0.0,0.0,0.0,0.0,-3.9121,-3.9101,-3.8685,-3.8627,-3.8534,-3.792,-3.7936,-3.8063,-3.7789,-3.8124,-3.8627,-3.8627,-3.8837,-3.9121,-3.9121,-3.9121,-3.9121,-3.9121,-3.9121,-3.9199,-3.9434,-3.9492,-3.957,-3.9844,-3.9902,0.0,-3.9219,-3.9121,-3.9145,-3.9229,-3.9417,-3.9515,-3.9618,-3.9573,-3.9515,-3.9467,-3.9273,-3.9138,-3.9138,-3.8814,0.0,0.0,0.0,-3.8375,-3.8375,-3.8209,0.0,0.0,0.0,-3.6361,-3.6327,0.0,0.0,0.0,-3.6504,-3.6561,0.0,0.0,0.0,0.0,0.0,0.0,0.0,0.0,0.0,0.0,0.0,0.0,0.0,0.0,0.0,0.0,-3.5743,-3.6016,-3.6016,-3.6055,-3.6074,-3.6035,-3.6055,-3.625,-3.6641,-3.6758,-3.6992,-3.7402,-3.7793,-3.8203,-3.8691,0.0,0.0,0.0,0.0,-4.0195,-4.0664,-4.0664,-4.0879,-4.1328,-4.1699,-4.1875,-4.1894,-4.2266,-4.2402,-4.2363,-4.2363,-4.2363,-4.2344,-4.2305,-4.1991,-4.1523,-4.043,-3.9941,-3.9902,-3.9902,-3.9902,-3.9768,-3.8986,0.0,0.0,-3.789,-3.7628,-3.7628,-3.7554,-3.8042,-3.8627,-3.8627,-3.9215,-3.9807,-3.9902,-3.9902,-3.9902,-3.9902,-3.9902,-3.9902,-3.9961,-3.9961,-3.998,-4.0039,-4.0039,-4.0039,-4.0039,-3.9961,-3.9751,-3.9488,-3.9734,-3.9829,-3.9565,-3.9773,-3.998,-3.9963,0.0,0.0,-3.9885,-3.9215,-3.8889,-3.9277,-3.8519,-3.8067,-3.8009,-3.7585,-3.7345,-3.7345,-3.7289,-3.7318,-3.7427,-3.77,-3.7678,-3.7352,-3.6917,-3.6622,0.0,0.0,0.0,0.0,0.0,0.0,0.0,0.0,0.0,0.0,0.0,0.0,0.0,0.0,0.0,-3.5421,-3.5743,-3.6016,-3.6016,-3.6328,-3.6406,-3.6055,-3.6328,-3.6582,-3.666,-3.7285,-3.7871,-3.8301,-3.8398,-3.8789,-3.959,-3.9355,-3.957,-4.0371,-4.041,-4.0781,-4.1543,-4.1543,-4.1758,-4.2187,0.0,0.0,-4.2305,-4.2383,-4.2246,-4.1914,-4.1914,-4.1914,-4.1894,-4.1562,-4.1191,-4.0743,-4.0471,-4.0195,-3.9902,-3.9902,-3.9902,-3.9883,-3.9729,-3.9615,-3.9596,-3.9048,-3.8859,-3.8783,-3.8557,-3.8557,0.0,-3.8974,-3.9182,-3.941,-3.9807,-3.9902,-3.9902,-3.9902,-3.9902,-3.998,-4.0332,-4.041,-4.0508,-4.0859,-4.0918,-4.0918,-4.0918,-4.0351,-4.0019,-4.0199,-4.0314,-4.0451,-4.0802,-4.0548,-4.0374,-4.0395,-4.0125,-3.9932,-3.9932,-3.9778,-3.9661,-3.9785,-3.9262,-3.8724,-3.8028,-3.7299,-3.6891,-3.6891,-3.6569,-3.6747,-3.7427,-3.8066,-3.8343,-3.8244,-3.7084,-3.6666,0.0,0.0,0.0,0.0,0.0,0.0,0.0,0.0,0.0,0.0,0.0,-3.3215,0.0,0.0,-3.5059,-3.5401,-3.5743,-3.6025,-3.6034,-3.6247,-3.6374,-3.6367,-3.6719,-3.707,-3.7285,-3.7676,-3.8105,-3.8535,-3.8769,-3.918,-3.9863,-3.9883,-4.0254,-4.1133,-4.1152,-4.1465,-4.2109,-4.2109,-4.2226,-4.2422,-4.2656,-4.2754,-4.2754,-4.2969,-4.2949,-4.2754,-4.2754,-4.2673,-4.243,-4.1975,-4.1388,-4.0807,-4.0834,-4.053,-4.0201,-3.999,-4.0067,-4.0105,-3.951,-3.928,-3.9166,-3.8575,-3.8347,-3.8271,-3.8119,-3.8345,-3.8744,-3.9108,-3.9568,-3.9952,-4.0451,-4.0527,-4.0527,-4.0527,-4.0527,-4.0586,-4.0801,-4.084,-4.0918,-4.1133,-4.1172,-4.1172,-4.1172,-4.082,-4.0605,-4.082,-4.084,-4.0918,-4.1152,-4.0976,-4.0841,-4.0821,-4.0647,-4.0531,-4.0531,-4.0337,-4.0103,-3.9922,-3.9668,-3.9207,-3.8336,-3.7884,-3.7601,-3.7391,-3.7181,-3.7302,-3.7643,-3.8001,-3.8098,-3.781,-3.7003,-3.6917,0.0,0.0,0.0,0.0,0.0,0.0,0.0,0.0,-3.2429,-3.2842,-3.3371,-3.3955,-3.4301,-3.4921,-3.544,-3.5517,-3.5791,-3.6014,-3.6093,-3.6157,-3.6355,-3.6705,-3.7015,-3.7345,-3.7747,-3.7942,-3.8287,-3.8789,-3.9067,-3.9495,-4.0117,-4.0316,-4.0841,-4.1777,-4.1796,-4.2049,-4.2558,-4.2558,-4.2598,-4.2676,-4.3027,-4.3203,-4.3203,-4.3472,-4.3487,-4.3409,-4.3327,-4.3041,-4.2672,-4.2416,-4.1751,-4.0971,-4.0971,-4.0796,-4.0426,-4.0037,-4.0137,-4.0237,-3.929,-3.8943,-3.881,-3.8087,-3.7822,-3.7745,-3.7745,-3.8198,-3.8788,-3.9313,-3.9852,-4.0509,-4.1094,-4.1172,-4.1172,-4.1172,-4.1172,-4.1172,-4.1172,-4.1172,-4.1191,-4.1289,-4.1289,-4.1328,-4.1406,-4.1348,-4.1269,-4.1191,-4.1172,-4.1172,-4.1172,-4.1172,-4.1172,-4.1172,-4.1172,-4.1172,-4.1172,-4.0859,-4.0469,-4.0039,-4.0019,-3.9598,-3.8703,-3.8684,-3.8492,-3.7996,-3.8051,-3.8059,-3.7903,-3.7903,-3.7728,-3.7326,-3.7113,-3.7229,-2.983,-3.0355,-3.1075,-3.1477,-3.1839,-3.2203,0.0,0.0,-3.3276,-3.3605,-3.3711,-3.3955,-3.4301,-3.4715,-3.5104,-3.5464,-3.5819,-3.6112,-3.611,-3.6436,-3.6736,-3.6808,-3.6846,-3.7028,-3.7427,-3.8121,-3.8886,-3.9707,-3.9389,-3.9776,-4.0996,-4.0374,-4.0526,-4.1777,-4.1769,-4.2175,-4.3008,-4.3008,-4.3203,-4.3555,-4.3613,-4.3633,-4.3633,-4.3278,-4.2939,-4.2491,-4.208,-4.1726,-4.1322,-4.1619,-4.1323,-4.0584,-4.0584,-4.0528,-4.0441,-4.0028,-3.9902,-3.9981,-3.9767,-3.9767,-3.9748,-3.9632,-3.9378,-3.9045,-3.9045,-3.8845,-3.8803,-3.9591,-3.9864,-4.0137,-4.1016,-4.1172,-4.1172,-4.1172,-4.1172,-4.1172,-4.1172,-4.1172,-4.1289,-4.166,-4.1738,-4.1855,-4.2226,-4.1973,-4.1601,-4.123,-4.1172,-4.1172,-4.1172,-4.1172,-4.1172,-4.1172,-4.1172,-4.1172,-4.1172,-4.1133,-4.0918,-4.0469,-4.0449,-3.9873,-3.8747,-3.905,-3.8839,-3.8026,-3.8343,-3.8355,-3.8005,-3.8005,-3.7986,-3.7947,-3.7874,-3.7667,-3.0955,-3.1404,0.0,0.0,-3.3008,-3.3182,-3.3502,-3.3608,-3.3608,-3.3747,-3.3955,-3.4094,-3.4094,-3.4695,-3.525,0.0,-3.5736,-3.6129,-3.6115,-3.6321,-3.6455,-3.6459,-3.6627,-3.7072,-3.7718,-3.8042,-3.8498,-3.9108,-3.9414,-3.9739,-4.0105,-4.0401,-4.0956,-4.1769,-4.179,-4.2274,-4.3437,-4.2963,-4.301,-4.3665,-4.3414,-4.3465,-4.3611,-4.3441,-4.3281,-4.3044,-4.2603,-4.234,-4.2087,-4.1779,-4.1351,-4.0861,-4.0639,-4.0398,-4.014,-3.995,-4.0061,-4.024,-3.9981,-3.99,-3.99,-3.99,-3.982,-3.9659,-3.9659,-3.9498,-3.9498,-4.0382,-4.0622,-4.0781,-4.1657,-4.1894,-4.1894,-4.1894,-4.1894,-4.1894,-4.1894,-4.1894,-4.1953,-4.2129,-4.2168,-4.2226,-4.2402,-4.2285,-4.2109,-4.1933,-4.1484,-4.1172,-4.1172,-4.1172,-4.1172,-4.1172,-4.1172,-4.1172,-4.1172,-4.1172,-4.1094,-4.0918,-4.0898,-4.0318,-3.9089,-3.9625,-3.9508,-3.8387,-3.9009,-3.9022,-3.8374,-3.8152,-3.7796,-3.7329,-3.7329,-3.7286,-3.153,0.0,0.0,-3.3327,-3.3608,-3.3678,-3.3817,-3.3747,-3.3678,-3.3817,-3.4117,-3.433,-3.4051,-3.4803,0.0,-3.5213,-3.5706,-3.6134,-3.6163,-3.6237,-3.622,-3.6329,-3.6659,-3.7143,-3.7877,-3.8141,-3.8406,-3.8897,-3.9405,-3.9726,-3.9826,-4.0419,-4.1046,-4.1728,-4.172,-4.2302,-4.3471,-4.2907,-4.2949,-4.3687,-4.3348,-4.333,-4.3614,-4.3442,-4.3318,-4.3072,-4.2709,-4.2604,-4.25,-4.1836,-4.1409,-4.1189,-4.0785,-4.0538,-4.0262,-4.0262,-4.028,-4.0258,-4.0013,-3.9932,-3.9932,-3.9932,-3.9932,-3.9932,-3.9932,-3.9932,-4.0077,-4.089,-4.1114,-4.1276,-4.2181,-4.2422,-4.2422,-4.2422,-4.2422,-4.2422,-4.2422,-4.2422,-4.2461,-4.2578,-4.2598,-4.2637,-4.2754,-4.2676,-4.2598,-4.2598,-4.1992,-4.1523,-4.1523,-4.1426,-4.1348,-4.1348,-4.125,-4.1172,-4.1172,-4.1172,-4.1172,-4.1172,-4.1172,-4.0705,-3.968,-4.0299,-4.0105,-3.8918,-3.9528,-3.9391,-3.8423,-3.8122,-3.7746,-3.7297,-3.7184,-3.7425,0.0,0.0,-3.2701,-3.2701,-3.3069,-3.34,-3.3747,-3.3539,-3.3418,-3.3747,-3.411,-3.4385,-3.4385,-3.5018,-3.5569,-3.5595,-3.596,-3.6181,-3.622,-3.6182,-3.6347,-3.6769,-3.6749,-3.7136,0.0,-3.8387,-3.904,-3.9845,-3.949,-3.9846,-4.0976,-4.0321,-4.0507,-4.1657,-4.1721,-4.2134,-4.2989,-4.2989,-4.3197,-4.3595,-4.3595,-4.3614,-4.3614,-4.3098,-4.2481,-4.1788,-4.1702,-4.1702,-4.1666,-4.1244,-4.1317,-4.1629,-4.1207,-4.1024,-4.1024,-4.1024,-4.0612,-3.9932,-3.9932,-3.9932,-3.9932,-3.9932,-3.9932,-3.9932,-3.9932,-3.9932,-4.0077,-4.089,-4.1114,-4.1276,-4.2181,-4.2422,-4.2422,-4.2422,-4.2422,-4.2422,-4.2422,-4.2422,-4.2558,-4.2969,-4.3066,-4.3183,-4.3594,-4.332,-4.3066,-4.3066,-4.2676,-4.2383,-4.2383,-4.2031,-4.1777,-4.1777,-4.1426,-4.1172,-4.1172,-4.1172,-4.1172,-4.1172,-4.1172,-4.0997,-4.049,-4.0899,-4.0569,-3.9296,-3.9721,-3.928,-3.8024,-3.8024,-3.8252,-3.8595,-3.8198,-3.8363,0.0,0.0,-3.2333,-3.2631,-3.2771,-3.2999,-3.34,-3.34,-3.3472,-3.4077,-3.4312,-3.4477,-3.477,-3.5227,-3.5612,-3.5595,-3.5907,-3.6202,-3.6182,-3.6457,-3.6677,-3.6749,-3.7301,0.0,0.0,0.0,0.0,-3.8998,-3.9456,-3.977,-3.9851,-4.0382,-4.0916,-4.1283,-4.1536,-4.2114,-4.3008,-4.2433,-4.2616,-4.3528,-4.3546,-4.3519,-4.35,-4.3047,-4.2757,-4.2454,-4.2197,-4.2087,-4.2051,-4.1647,-4.1555,-4.1647,-4.1225,-4.106,-4.106,-4.106,-4.0961,-4.074,-4.074,-4.074,-4.074,-4.074,-4.074,-4.074,-4.074,-4.074,-4.0805,-4.1368,-4.1718,-4.2131,-4.2707,-4.3036,-4.3281,-4.3281,-4.3281,-4.3281,-4.3281,-4.3281,-4.332,-4.3457,-4.3496,-4.3535,-4.3691,-4.3594,-4.3496,-4.3496,-4.2891,-4.2422,-4.2422,-4.2305,-4.2207,-4.2207,-4.1836,-4.1582,-4.1582,-4.1328,-4.1172,-4.1172,-4.1172,-4.086,-4.0137,-4.0529,-4.0296,-3.9303,-3.9694,-3.9408,-3.8452,-3.8452,-3.8399,-3.829,-3.814,-3.8519,0.0,-3.1894,-3.2175,-3.2403,-3.2491,-3.2561,-3.2981,-3.3106,-3.3267,-3.3854,-3.4197,-3.4523,-3.4957,-3.5302,-3.565,-3.5795,-3.6071,-3.6256,-3.6402,-3.6659,-3.6952,-3.7228,-3.7704,0.0,0.0,0.0,0.0,-3.9043,-3.941,-3.9703,-3.9868,-4.0492,-4.1026,-4.1314,-4.1579,-4.1996,-4.2724,-4.2229,-4.2334,-4.3093,-4.3107,-4.3059,-4.3041,-4.2784,-4.2582,-4.2436,-4.2179,-4.2069,-4.2032,-4.1629,-4.1555,-4.1647,-4.1225,-4.106,-4.106,-4.106,-4.106,-4.106,-4.106,-4.106,-4.106,-4.106,-4.106,-4.106,-4.106,-4.106,-4.1229,-4.163,-4.2049,-4.2485,-4.2985,-4.338,-4.3711,-4.3711,-4.3711,-4.3711,-4.3711,-4.3711,-4.3711,-4.3711,-4.3711,-4.3711,-4.3711,-4.3711,-4.3711,-4.3711,-4.3242,-4.2891,-4.2891,-4.2754,-4.2656,-4.2656,-4.2285,-4.1973,-4.1816,-4.1562,-4.125,-4.0938,-4.0919,-4.0685,-4.0137,-4.0197,-4.004,-3.9509,-3.9666,-3.9378,-3.8646,-3.8646,-3.8673,-3.8721,-3.859,-3.8975,-3.1152,-3.1559,-3.2035,-3.2035,-3.2035,-3.2193,-3.2579,-3.2738,-3.2787,-3.3251,-3.3925,-3.4563,0.0,0.0,-3.5731,-3.6128,-3.6176,-3.6347,-3.6694,-3.6861,-3.7154,0.0,0.0,0.0,0.0,0.0,0.0,-3.9913,0.0,-3.9795,-4.0969,-4.0694,-4.0877,-4.1666,-4.1684,-4.1867,-4.2271,-4.2271,-4.2271,-4.2252,-4.2271,-4.2271,-4.2271,-4.2252,-4.2051,-4.1684,-4.1666,-4.1666,-4.1629,-4.1225,-4.1299,-4.161,-4.1225,-4.106,-4.106,-4.106,-4.106,-4.106,-4.106,-4.106,-4.106,-4.106,-4.106,-4.106,-4.106,-4.106,-4.1145,-4.1546,-4.1965,-4.2485,-4.2902,-4.338,-4.3711,-4.3711,-4.3711,-4.3711,-4.3711,-4.3711,-4.3711,-4.3711,-4.3711,-4.3711,-4.3711,-4.3711,-4.3711,-4.3711,-4.3711,-4.3711,-4.3711,-4.3359,-4.3105,-4.3105,-4.2715,-4.2305,-4.1894,-4.1816,-4.1464,-4.0567,-4.0509,-4.0509,-4.0509,-4.0059,-3.9902,-3.9902,-3.9509,-3.9035,-3.856,-3.856,-3.9035,-3.9902,-3.9504,-3.972,-3.1418,-3.1559,-3.17,-3.17,-3.17,-3.191,-3.256,-3.2717,-3.2944,-3.3941,-3.4297,-3.4546,0.0,0.0,0.0,-3.5749,-3.5976,0.0,-3.6694,-3.7081,0.0,0.0,0.0,-3.864,-3.9043,-3.9171,0.0,0.0,-4.0217,-4.029,-4.0602,-4.0804,-4.1152,-4.1666,-4.1684,-4.1867,-4.2271,-4.2271,-4.2124,-4.1849,-4.2142,-4.2271,-4.2271,-4.1977,-4.1794,-4.1666,-4.1354,-4.1225,-4.1207,-4.1097,-4.1115,-4.1207,-4.1097,-4.106,-4.106,-4.106,-4.106,-4.106,-4.106,-4.106,-4.106,-4.106,-4.106,-4.106,-4.106,-4.106,-4.1145,-4.1229,-4.1546,-4.1965,-4.2485,-4.2902,-4.3297,-4.3628,-4.3711,-4.3711,-4.3711,-4.3711,-4.3711,-4.3711,-4.3711,-4.3711,-4.3711,-4.3711,-4.3711,-4.3711,-4.3711,-4.3711,-4.3711,-4.3613,-4.3555,-4.3555,-4.3164,-4.2871,-4.2773,-4.2168,-4.16,-4.1069,-4.0683,-4.0353,-4.0059,-3.9666,-3.943,-3.943,-3.9035,-3.8719,-3.856,-3.856,-3.8877,-3.943,-3.9318,-3.9732,-3.1559,-3.163,-3.163,-3.163,-3.1696,-3.1939,-3.236,-3.2688,-3.3106,-3.3761,-3.4062,0.0,0.0,0.0,0.0,0.0,0.0,0.0,-3.7007,-3.7283,-3.7631,0.0,-3.8414,0.0,-3.919,-3.9392,-3.9777,0.0,-4.0473,-4.0547,-4.0712,-4.1115,-4.1445,-4.1684,-4.1849,-4.1977,-4.2014,-4.1831,-4.1629,-4.1409,-4.1629,-4.1739,-4.1739,-4.1519,-4.1409,-4.139,0.0,-4.106,-4.106,-4.106,-4.106,-4.106,-4.106,-4.106,-4.106,-4.106,-4.106,-4.106,-4.106,-4.106,-4.106,-4.106,-4.106,-4.106,-4.106,-4.106,-4.106,-4.106,-4.1378,-4.1779,-4.2049,-4.2466,-4.2902,-4.3297,-4.3463,-4.3463,-4.3628,-4.3711,-4.3711,-4.3711,-4.3711,-4.3711,-4.3711,-4.3711,-4.3711,-4.3711,-4.3711,-4.3711,-4.3711,-4.3711,-4.3711,-4.3711,-4.3496,-4.3281,-4.3105,-4.2637,-4.1948,-4.0944,-4.0854,-4.0564,-3.9921,-3.9509,-3.9351,-3.9588,-3.8956,-3.856,-3.856,-3.856,-3.8877,-3.9272,-3.9509,-3.9883,-3.163,-3.163,-3.163,-3.163,-3.185,-3.207,-3.2121,-3.2685,-3.3214,-3.3266,0.0,0.0,-3.4265,0.0,-3.5056,-3.5468,0.0,-3.6419,-3.7319,-3.7429,-3.7723,-3.8469,-3.856,-3.8823,-3.9263,-3.963,-4.0115,-4.051,-4.0547,-4.0694,-4.1042,-4.1409,-4.161,-4.161,-4.1996,-4.2014,-4.161,-4.1244,-4.106,-4.106,-4.106,-4.106,-4.106,-4.106,-4.106,-4.106,-4.106,-4.106,-4.106,-4.106,-4.106,-4.106,-4.106,-4.106,-4.106,-4.106,-4.106,-4.106,-4.106,-4.106,-4.106,-4.106,-4.106,-4.106,-4.106,-4.106,-4.106,-4.106,-4.1378,-4.1612,-4.1695,-4.1965,-4.2402,-4.2902,-4.2985,-4.3151,-4.3546,-4.3628,-4.3711,-4.3711,-4.3711,-4.3711,-4.3711,-4.3711,-4.3711,-4.3711,-4.3711,-4.3711,-4.3711,-4.3711,-4.3711,-4.3711,-4.3711,-4.3555,-4.3183,-4.3105,-4.2411,-4.0721,-4.0944,-4.0734,-3.9921,-3.943,-3.943,-3.9902,-3.9035,-3.856,-3.856,-3.856,-3.8798,-3.9193,-3.9666,-4.0059,-3.163,-3.163,-3.163,-3.163,-3.185,-3.2066,-3.2081,-3.2503,0.0,0.0,0.0,-3.3458,-3.3846,-3.4249,0.0,-3.502,0.0,0.0,0.0,0.0,-3.7723,0.0,0.0,0.0,0.0,0.0,0.0,0.0,0.0,-4.0987,-4.1145,-4.1134,-4.117,-4.117,-4.1574,-4.1592,-4.117,-4.1097,-4.106,-4.106,-4.106,-4.106,-4.106,-4.106,-4.106,-4.106,-4.106,0.0,-4.106,-4.106,-4.106,-4.106,-4.106,-4.106,-4.106,-4.106,-4.106,-4.106,-4.106,-4.106,-4.106,-4.106,-4.106,-4.106,-4.106,-4.106,-4.106,-4.106,-4.1145,-4.1294,-4.1612,-4.1779,-4.1965,-4.2402,-4.2485,-4.2652,-4.3151,-4.3463,-4.3711,-4.3711,-4.3711,-4.3711,-4.3711,-4.3711,-4.3711,-4.3711,-4.3711,-4.3711,-4.3711,-4.3711,-4.3711,-4.3711,-4.3711,-4.3672,-4.3594,-4.3281,-4.2527,-4.1138,-4.0777,-4.0417,-3.9921,-3.9114,-3.9114,-3.9902,-3.9035,-3.856,-3.856,-3.856,-3.864,-3.8719,-3.9193,-3.9588,-3.163,-3.163,-3.1611,-3.1816,-3.2141,-3.2373,-3.2379,0.0,0.0,0.0,0.0,-3.2968,-3.3441,0.0,0.0,0.0,0.0,0.0,0.0,0.0,0.0,0.0,0.0,0.0,0.0,0.0,0.0,0.0,0.0,-4.106,-4.106,-4.106,-4.1152,-4.1372,-4.1372,-4.1262,-4.106,-4.106,-4.106,-4.106,-4.106,-4.106,-4.106,-4.106,-4.106,-4.106,-4.106,0.0,-4.106,-4.106,-4.106,-4.106,-4.106,-4.106,-4.106,-4.106,-4.106,-4.106,-4.106,-4.106,-4.106,-4.106,-4.106,-4.106,-4.106,-4.106,-4.106,-4.106,-4.106,-4.1145,-4.1294,-4.1378,-4.1462,-4.1965,-4.2402,-4.2818,-4.3068,-4.338,-4.3711,-4.3711,-4.3711,-4.3711,-4.3711,-4.3711,-4.3711,-4.3711,-4.3711,-4.3711,-4.3711,-4.3711,-4.3711,-4.3711,-4.3711,-4.3711,-4.3711,-4.3516,-4.288,-4.1594,-4.1285,-4.0804,-3.994,-3.9272,-3.9193,-3.9588,-3.8956,-3.856,-3.856,-3.856,-3.856,-3.864,-3.9272,-3.9588,-3.1347,-3.1489,-3.1662,-3.2039,-3.2415,-3.2628,-3.2591,-3.2793,0.0,0.0,0.0,-3.2588,-3.2968,0.0,0.0,0.0,0.0,0.0,0.0,0.0,0.0,0.0,0.0,0.0,0.0,0.0,0.0,0.0,0.0,0.0,-4.106,-4.106,-4.1207,-4.1537,-4.1225,-4.106,-4.106,-4.106,-4.106,-4.106,-4.106,-4.106,-4.106,-4.106,-4.106,-4.106,-4.106,0.0,0.0,-4.106,-4.106,-4.106,-4.106,-4.106,-4.106,-4.106,-4.106,-4.106,-4.106,-4.106,-4.106,-4.106,-4.106,-4.106,-4.106,-4.106,-4.106,-4.106,-4.106,-4.106,-4.106,-4.106,-4.1229,-4.1612,-4.2299,-4.2985,-4.3068,-4.338,-4.3711,-4.3711,-4.3711,-4.3711,-4.3711,-4.3711,-4.3711,-4.3711,-4.3711,-4.3711,-4.3711,-4.3711,-4.3711,-4.3711,-4.3711,-4.3711,-4.3711,-4.3711,-4.3176,-4.1856,-4.1718,-4.1094,-3.994,-3.943,-3.9193,-3.9272,-3.8877,-3.856,-3.856,-3.856,-3.856,-3.864,-3.943,-3.9588,-3.0622,-3.1047,-3.1662,-3.2039,-3.2415,-3.2555,-3.2126,0.0,0.0,0.0,-3.2069,-3.2146,-3.2588,-3.2697,0.0,0.0,0.0,0.0,0.0,0.0,0.0,0.0,0.0,0.0,0.0,0.0,0.0,0.0,0.0,0.0,-4.106,-4.106,-4.1163,-4.1115,-4.1079,-4.106,-4.106,-4.106,-4.106,-4.106,-4.106,-4.106,-4.106,-4.106,-4.106,-4.106,-4.106,0.0,0.0,-4.106,-4.106,-4.106,-4.106,-4.106,-4.106,-4.106,-4.106,-4.106,-4.106,-4.106,-4.106,-4.106,-4.106,-4.106,-4.106,-4.106,-4.106,-4.106,-4.106,-4.106,-4.106,-4.106,-4.1229,-4.1612,-4.2049,-4.2569,-4.2985,-4.338,-4.3711,-4.3711,-4.3711,-4.3711,-4.3711,-4.3711,-4.3711,-4.3711,-4.3711,-4.3711,-4.3711,-4.3711,-4.3711,-4.3711,-4.3711,-4.3711,-4.3711,-4.3711,-4.3176,-4.1856,-4.1475,-4.0853,-3.994,-3.9114,-3.8877,-3.9272,-3.8877,-3.856,-3.856,-3.856,-3.856,-3.864,-3.9114,-3.9351,-2.9997,-3.0805,-3.1861,-3.1801,-3.2007,-3.23,-3.2366,0.0,0.0,-3.1686,-3.1609,-3.1763,-3.2146,-3.2333,-3.2751,0.0,0.0,0.0,0.0,0.0,0.0,0.0,0.0,0.0,0.0,0.0,0.0,0.0,0.0,0.0,-4.106,-4.106,-4.106,-4.106,-4.106,-4.106,-4.106,-4.106,-4.106,-4.106,-4.106,-4.106,-4.106,-4.106,-4.106,-4.106,-4.106,0.0,0.0,-4.106,-4.106,-4.106,-4.106,-4.106,-4.106,-4.106,-4.106,-4.106,-4.106,-4.106,-4.106,-4.106,-4.106,-4.106,-4.106,-4.106,-4.106,-4.106,-4.106,-4.106,-4.106,-4.106,-4.1229,-4.1612,-4.2049,-4.2569,-4.2985,-4.338,-4.3711,-4.3711,-4.3711,-4.3711,-4.3711,-4.3711,-4.3711,-4.3711,-4.3711,-4.3711,-4.3711,-4.3463,-4.3463,-4.3711,-4.3711,-4.3711,-4.3711,-4.323,-4.2678,-4.1837,-4.0906,-4.0189,-3.9528,-3.8956,-3.8719,-3.8877,-3.8719,-3.856,-3.856,-3.856,-3.856,-3.864,-3.9114,-3.9114,-2.9226,-3.0186,-3.1415,-3.1579,-3.1704,-3.1975,0.0,0.0,0.0,-3.1395,-3.1395,-3.1472,-3.1763,-3.2028,-3.2459,0.0,0.0,0.0,0.0,0.0,0.0,0.0,0.0,0.0,0.0,0.0,0.0,0.0,0.0,0.0,0.0,-4.106,-4.106,-4.106,-4.106,-4.106,-4.106,-4.106,-4.106,-4.106,-4.106,-4.106,-4.106,-4.106,-4.106,-4.106,-4.106,0.0,0.0,-4.106,-4.106,-4.106,-4.106,-4.106,-4.106,-4.106,-4.106,-4.106,-4.106,-4.106,-4.106,-4.106,-4.106,-4.106,-4.106,-4.106,-4.106,-4.106,-4.106,-4.106,-4.106,-4.1229,-4.1378,-4.1798,-4.2299,-4.2735,-4.3151,-4.3463,-4.3711,-4.3711,-4.3711,-4.3711,-4.3711,-4.3711,-4.3711,-4.3711,-4.3711,-4.3711,-4.3711,-4.3283,-4.3041,-4.3516,-4.3316,-4.3215,-4.3351,-4.2573,-4.1905,-4.1484,-4.0438,-3.9682,-3.9291,-3.8877,-3.856,-3.856,-3.856,-3.856,-3.856,-3.856,-3.856,-3.864,-3.8956,-3.8956,-2.8346,-2.8956,-3.0089,-3.1285,-3.1481,-3.1615,0.0,0.0,0.0,-3.1472,-3.1395,-3.1395,-3.1395,-3.1681,-3.203,-3.2364,0.0,0.0,0.0,0.0,0.0,0.0,0.0,0.0,0.0,0.0,0.0,0.0,0.0,0.0,0.0,-4.106,-4.106,-4.106,-4.106,-4.106,-4.106,-4.106,-4.106,-4.106,-4.106,-4.106,-4.106,-4.106,-4.106,0.0,0.0,0.0,0.0,-4.106,-4.106,-4.106,-4.106,-4.106,-4.106,-4.106,-4.106,-4.106,-4.106,-4.106,-4.106,-4.106,-4.106,-4.106,-4.106,-4.106,-4.106,-4.106,-4.106,-4.106,-4.106,-4.1378,-4.1779,-4.2318,-4.2735,-4.3234,-4.3628,-4.3711,-4.3711,-4.3711,-4.3711,-4.3711,-4.3711,-4.3711,-4.3711,-4.3711,-4.3711,-4.3711,-4.3711,-4.3031,-4.2698,-4.3086,-4.2311,-4.1991,-4.2495,-4.1724,-4.0963,-4.0546,-4.0109,-3.9682,-3.9291,-3.8877,-3.856,-3.856,-3.856,-3.856,-3.856,-3.856,-3.856,-3.856,-3.864,-3.856,-2.8711,-2.9681,-3.099,-3.105,-3.1269,-3.1542,-3.2037,0.0,-3.1241,-3.1395,-3.1395,-3.1395,-3.1395,-3.1872,-3.2206,-3.1999,-3.2436,0.0,0.0,0.0,0.0,0.0,0.0,0.0,0.0,0.0,0.0,0.0,0.0,0.0,0.0,-4.106,-4.106,-4.106,-4.106,-4.106,-4.106,-4.106,-4.106,-4.106,-4.106,-4.106,-4.106,-4.106,-4.106,0.0,0.0,0.0,0.0,-4.106,-4.106,-4.106,-4.106,-4.106,-4.106,-4.106,-4.106,-4.106,-4.106,-4.106,-4.106,-4.106,-4.106,-4.106,-4.106,-4.106,-4.106,-4.106,-4.106,-4.106,-4.106,-4.1378,-4.1798,-4.2318,-4.2735,-4.3234,-4.3628,-4.3711,-4.3711,-4.3711,-4.3711,-4.3711,-4.3711,-4.3711,-4.3711,-4.3711,-4.3457,-4.3281,-4.3281,-4.2585,-4.2091,-4.2172,-4.1464,-4.1208,-4.1971,-4.1204,-4.0579,-4.0109,-3.9369,-3.8927,-3.8798,-3.8719,-3.856,-3.856,-3.856,-3.856,-3.856,-3.856,-3.856,-3.856,-3.856,-3.856,0.0,-2.9633,-3.0633,-3.0851,-3.1049,0.0,0.0,0.0,-3.1087,-3.1318,-3.1395,-3.1395,-3.1395,-3.1951,-3.2332,-3.2094,-3.2367,0.0,0.0,0.0,0.0,0.0,0.0,0.0,0.0,0.0,0.0,0.0,0.0,0.0,0.0,-4.106,-4.106,-4.106,-4.106,-4.106,-4.106,-4.106,-4.106,-4.106,-4.106,-4.106,-4.106,-4.106,-4.106,0.0,0.0,0.0,0.0,-4.106,-4.106,-4.106,-4.106,-4.106,-4.106,-4.106,-4.106,-4.106,-4.106,-4.106,-4.106,-4.106,-4.106,-4.106,-4.106,-4.106,-4.106,-4.106,-4.106,-4.106,-4.106,-4.1378,-4.1798,-4.2318,-4.2735,-4.3234,-4.3628,-4.3711,-4.3711,-4.3711,-4.3711,-4.3652,-4.3496,-4.3457,-4.3418,-4.3242,-4.3008,-4.2832,-4.2832,-4.214,-4.1647,-4.1808,-4.1005,-4.0712,-4.1298,-4.0512,-3.9963,-3.9725,-3.9006,-3.856,-3.856,-3.856,-3.856,-3.856,-3.856,-3.856,-3.856,-3.856,-3.856,-3.856,-3.856,-3.856,0.0,0.0,0.0,0.0,0.0,0.0,0.0,0.0,0.0,-3.1395,-3.1395,-3.1395,-3.1395,-3.1951,-3.2412,-3.2332,-3.2286,0.0,0.0,0.0,0.0,0.0,0.0,0.0,0.0,0.0,0.0,0.0,0.0,0.0,0.0,-4.106,-4.106,-4.106,-4.106,-4.106,-4.106,-4.106,-4.106,-4.106,-4.106,-4.106,-4.106,-4.106,-4.106,0.0,0.0,0.0,0.0,-4.106,-4.106,-4.106,-4.106,-4.106,-4.106,-4.106,-4.106,-4.106,-4.106,-4.106,-4.106,-4.106,-4.106,-4.106,-4.106,-4.106,-4.106,-4.106,-4.106,-4.106,-4.106,-4.1378,-4.1779,-4.2235,-4.2735,-4.3234,-4.3546,-4.3672,-4.3652,-4.3652,-4.3633,-4.3496,-4.3105,-4.3027,-4.2891,-4.248,-4.2402,-4.2383,-4.2383,-4.1694,-4.1343,-4.1679,-4.0995,-4.0509,-4.0509,-3.9805,-3.9351,-3.9272,-3.8877,-3.856,-3.856,-3.856,-3.856,-3.856,-3.856,-3.856,-3.856,-3.856,-3.856,-3.856,-3.856,-3.856,-2.9887,0.0,-3.0249,-3.1033,-3.1255,-3.1318,0.0,0.0,0.0,0.0,0.0,0.0,0.0,-3.1951,0.0,0.0,0.0,0.0,0.0,0.0,0.0,0.0,0.0,0.0,0.0,0.0,0.0,0.0,0.0,0.0,0.0,-4.106,-4.106,-4.106,-4.106,-4.106,-4.106,-4.106,-4.106,-4.106,-4.106,-4.106,-4.106,-4.106,-4.106,0.0,0.0,0.0,-4.106,-4.106,-4.106,-4.106,-4.106,-4.106,-4.106,-4.106,-4.106,-4.106,-4.106,-4.106,-4.106,-4.106,-4.106,-4.106,-4.106,-4.106,-4.106,-4.106,-4.106,-4.106,-4.106,-4.1378,-4.1695,-4.1882,-4.2466,-4.3151,-4.3234,-4.321,-4.3223,-4.3223,-4.2949,-4.2695,-4.2598,-4.2578,-4.2539,-4.2441,-4.2148,-4.1953,-4.1953,-4.1503,-4.1074,-4.082,-4.0645,-4.0509,-4.0509,-4.0059,-3.9666,-3.9351,-3.8877,-3.856,-3.856,-3.856,-3.856,-3.856,-3.856,-3.856,-3.856,-3.856,-3.856,-3.856,-3.856,-3.856,-3.0235,-3.0442,-3.0696,-3.1252,-3.1395,-3.1395,0.0,0.0,0.0,0.0,0.0,0.0,0.0,0.0,0.0,0.0,0.0,0.0,0.0,0.0,0.0,0.0,0.0,0.0,0.0,0.0,0.0,0.0,0.0,0.0,0.0,-4.0469,-4.0469,-4.0469,-4.0469,-4.0639,-4.106,-4.106,-4.106,-4.106,-4.106,-4.106,-4.106,-4.106,-4.106,0.0,0.0,0.0,-4.106,-4.106,-4.106,-4.106,-4.106,-4.106,-4.106,-4.106,-4.106,-4.106,-4.106,-4.106,-4.106,-4.106,-4.106,-4.106,-4.106,-4.106,-4.106,-4.106,-4.106,-4.106,-4.106,-4.1294,-4.1407,-4.1388,-4.1933,-4.2474,-4.2529,-4.2624,-4.2773,-4.2773,-4.2578,-4.2363,-4.2168,-4.2148,-4.207,-4.1875,-4.166,-4.1504,-4.1504,-4.1308,-4.1094,-4.0841,-4.0841,-4.0841,-4.0841,-4.0294,-3.9823,-3.9588,-3.9193,-3.8798,-3.864,-3.856,-3.856,-3.856,-3.856,-3.856,-3.856,-3.856,-3.856,-3.856,-3.856,-3.856,-3.0315,-3.0664,-3.0938,-3.1315,-3.1395,-3.1395,-3.1395,0.0,0.0,0.0,0.0,0.0,0.0,0.0,0.0,0.0,0.0,0.0,0.0,0.0,0.0,0.0,0.0,0.0,0.0,0.0,0.0,0.0,0.0,0.0,0.0,-3.9689,-3.9689,-3.9689,-3.9689,-4.0113,-4.0892,-4.0892,-4.0892,-4.0892,-4.0976,-4.0976,-4.0976,-4.106,-4.106,-4.106,0.0,0.0,-4.106,-4.106,-4.106,-4.106,-4.106,-4.106,-4.106,-4.106,-4.106,-4.106,-4.106,-4.106,-4.106,-4.106,-4.1108,-4.0969,-4.0969,-4.1016,-4.0961,-4.0961,-4.0914,-4.095,-4.0895,-4.0961,-4.0952,-4.0934,-4.1253,-4.1587,-4.1633,-4.1982,-4.2244,-4.2324,-4.2285,-4.2129,-4.1758,-4.1699,-4.1582,-4.123,-4.1172,-4.1172,-4.1172,-4.1172,-4.1172,-4.1094,-4.1016,-4.1016,-4.1016,-4.0294,-3.9823,-3.9823,-3.943,-3.9035,-3.864,-3.856,-3.856,-3.856,-3.856,-3.856,-3.856,-3.856,-3.856,-3.856,-3.856,-3.856,-3.068,-3.0817,-3.0947,-3.1302,-3.1395,-3.1395,-3.1395,0.0,0.0,0.0,0.0,0.0,0.0,0.0,0.0,0.0,0.0,0.0,0.0,0.0,0.0,0.0,0.0,0.0,0.0,0.0,0.0,0.0,0.0,0.0,-3.9689,-3.9689,-3.9689,-3.9689,-3.9689,-3.9774,-3.9943,-3.9943,-3.9943,-3.9943,-4.03,-4.0488,-4.0469,-4.0892,-4.106,-4.106,0.0,-4.106,-4.106,-4.106,-4.106,-4.106,-4.106,-4.106,-4.106,-4.106,-4.106,-4.106,-4.106,-4.106,-4.106,-4.106,-4.084,-4.0565,-4.0565,-4.0308,-4.0115,-4.0115,-4.0373,-4.0473,-4.0207,-4.0115,-4.0097,-4.0105,-4.0432,-4.0821,-4.1152,-4.133,-4.1479,-4.1815,-4.1601,-4.1348,-4.1289,-4.1269,-4.125,-4.1191,-4.1172,-4.1172,-4.1172,-4.1172,-4.1094,-4.0666,-4.0294,-4.0059,-4.0059,-3.9666,-3.943,-3.943,-3.8956,-3.864,-3.856,-3.856,-3.856,-3.856,-3.856,-3.856,-3.856,-3.856,-3.856,-3.856,-3.856,-3.856,-3.0759,-3.1049,-3.1087,-3.1087,-3.0933,-3.0686,-3.0686,0.0,0.0,0.0,0.0,0.0,0.0,0.0,0.0,0.0,0.0,0.0,0.0,0.0,0.0,0.0,0.0,0.0,0.0,0.0,0.0,0.0,0.0,0.0,-3.8922,-3.8922,-3.9093,-3.9281,-3.9281,-3.9451,-3.9689,-3.9689,-3.9689,-3.9689,-3.9961,-4.0046,-4.0046,-4.0469,-4.0723,-4.0723,0.0,-4.106,-4.106,-4.106,-4.106,-4.106,-4.106,-4.106,-4.106,-4.106,-4.0932,-4.0749,-4.0749,-4.0584,-4.0483,-4.0483,-4.0354,-4.0207,-4.0207,-4.0079,-3.9877,-3.9575,-3.9813,-4.0171,-3.9968,-3.9932,-3.9877,-3.9557,-3.9844,-4.0192,-4.0109,-4.0319,-4.0581,-4.0738,-4.0585,-4.047,-4.047,-4.047,-4.0529,-4.0763,-4.0841,-4.0841,-4.0841,-4.0841,-4.0685,-4.0216,-3.9981,-3.9902,-3.9902,-3.9509,-3.9272,-3.9272,-3.8877,-3.856,-3.856,-3.856,-3.856,-3.856,-3.856,-3.856,-3.856,-3.856,-3.856,-3.856,-3.856,-3.856,-3.0871,-3.1112,-3.1164,-3.0778,0.0,-3.0222,-3.0129,0.0,0.0,0.0,0.0,0.0,0.0,0.0,0.0,0.0,0.0,0.0,0.0,0.0,0.0,0.0,0.0,0.0,0.0,0.0,0.0,0.0,0.0,0.0,-3.8015,-3.8015,-3.8238,-3.8854,-3.8682,-3.863,-3.88,-3.8611,-3.8918,-3.9689,-3.9774,-3.9876,-3.9876,-4.0385,-4.0572,-4.0554,-4.0976,-4.106,-4.106,-4.106,-4.106,-4.1042,-4.095,-4.0859,-4.0851,-4.0851,-4.0584,-4.0327,-4.0327,-4.0189,-3.9932,-3.9932,-3.9858,-3.9785,-3.9785,-3.963,-3.9502,-3.919,-3.9318,-3.9557,-3.9557,-3.9557,-3.9483,-3.9171,-3.9339,-3.9504,-3.9347,-3.9509,-3.9823,-3.9902,-3.9902,-3.9902,-3.9902,-3.9902,-3.9981,-4.0275,-4.0353,-4.0353,-4.0353,-4.0353,-4.0197,-3.9823,-3.9745,-3.9745,-3.9588,-3.9272,-3.9114,-3.9114,-3.8798,-3.856,-3.856,-3.856,-3.856,-3.856,-3.856,-3.856,-3.856,-3.856,-3.856,-3.856,-3.856,-3.856,-3.1157,-3.1148,-3.0701,-3.0299,-3.0454,0.0,-3.0206,-3.0129,0.0,0.0,0.0,0.0,0.0,0.0,0.0,0.0,0.0,0.0,0.0,0.0,0.0,0.0,0.0,0.0,0.0,0.0,0.0,0.0,0.0,0.0,-3.7183,-3.72,-3.7522,-3.8323,-3.7641,-3.686,-3.6126,-3.5358,-3.6523,-3.9689,-4.0131,-4.0318,-4.0403,-4.0807,-4.106,-4.106,-4.106,-4.106,-4.106,-4.106,-4.106,-4.1024,-4.0657,-4.0354,-4.0005,-4.0005,-3.9987,-3.9968,-3.9968,-3.995,-3.9932,-3.9932,-3.9593,-3.9281,-3.9281,-3.9025,-3.8731,-3.8615,-3.8713,-3.8731,-3.8731,-3.8731,-3.8713,-3.8615,-3.8695,-3.8835,-3.9193,-3.9351,-3.943,-3.9823,-3.9902,-3.9902,-3.9902,-3.9902,-3.9902,-3.9902,-3.9902,-3.9902,-3.9902,-3.9902,-3.9823,-3.943,-3.9351,-3.9193,-3.8719,-3.864,-3.864,-3.864,-3.864,-3.856,-3.856,-3.856,-3.856,-3.856,-3.856,-3.856,-3.856,-3.856,-3.856,-3.856,-3.856,-3.856,-3.0918,-3.093,-3.0701,-3.0222,0.0,0.0,0.0,0.0,0.0,0.0,0.0,0.0,0.0,0.0,0.0,0.0,0.0,0.0,0.0,0.0,0.0,0.0,0.0,0.0,0.0,0.0,0.0,0.0,0.0,0.0,0.0,-3.5564,-3.5782,-3.6422,-3.6121,-3.5954,-3.5886,-3.557,-3.6056,-3.7351,-3.6947,-3.6777,-3.6862,-3.752,-3.8192,-3.8693,-3.9295,-3.9562,-3.9562,-4.0143,-4.006,-3.9544,-3.9979,-4.006,-3.9932,-3.9932,-3.9685,-3.9465,-3.9465,-3.93,-3.9098,-3.9098,-3.8988,-3.886,-3.886,-3.8688,-3.856,-3.856,-3.856,-3.856,-3.856,-3.856,-3.856,-3.856,-3.856,-3.864,-3.8798,-3.8877,-3.8877,-3.9035,-3.9114,-3.9114,-3.9114,-3.9114,-3.9193,-3.9509,-3.9509,-3.9509,-3.9509,-3.9509,-3.9351,-3.8877,-3.8877,-3.8798,-3.864,-3.856,-3.856,-3.856,-3.856,-3.856,-3.856,-3.856,-3.856,-3.856,-3.856,-3.856,-3.856,-3.856,-3.856,-3.856,-3.856,-3.856,-3.0577,-3.0665,-3.0484,0.0,0.0,0.0,0.0,0.0,0.0,0.0,0.0,0.0,0.0,0.0,0.0,0.0,0.0,0.0,0.0,0.0,0.0,0.0,0.0,0.0,0.0,0.0,0.0,0.0,0.0,0.0,0.0,-3.425,-3.4466,-3.5067,-3.4803,-3.4654,-3.4654,-3.4458,-3.4394,-3.4494,-3.3924,-3.4134,-3.5016,-3.5756,-3.6426,-3.7093,-3.7857,-3.8206,-3.8288,-3.8848,-3.8612,-3.8012,-3.8669,-3.8842,-3.8716,-3.8716,-3.8455,-3.8222,-3.8222,-3.806,-3.7827,-3.7827,-3.8004,-3.8243,-3.8243,-3.8402,-3.856,-3.856,-3.856,-3.856,-3.856,-3.856,-3.856,-3.856,-3.856,-3.856,-3.856,-3.856,-3.856,-3.856,-3.856,-3.856,-3.856,-3.856,-3.8719,-3.9035,-3.9114,-3.9114,-3.9114,-3.9114,-3.8956,-3.864,-3.856,-3.856,-3.856,-3.856,-3.856,-3.856,-3.856,-3.856,-3.856,-3.856,-3.856,-3.856,-3.856,-3.856,-3.856,-3.856,-3.856,-3.856,-3.856,-3.8487,-2.9986,-3.0264,0.0,0.0,0.0,0.0,0.0,0.0,0.0,0.0,0.0,0.0,0.0,0.0,0.0,0.0,0.0,0.0,0.0,0.0,0.0,0.0,0.0,0.0,0.0,0.0,0.0,0.0,0.0,0.0,0.0,-3.337,-3.3777,-3.4546,-3.3793,-3.2952,-3.1975,-3.1229,-3.1067,-3.1482,-3.1482,-3.3063,-3.5907,-3.6325,-3.6576,-3.6576,-3.7093,-3.7259,-3.7259,-3.7259,-3.7053,-3.6727,-3.6727,-3.6487,-3.6143,-3.6143,-3.6143,-3.6143,-3.6143,-3.6143,-3.6143,-3.6143,-3.6707,-3.7445,-3.7445,-3.7924,-3.856,-3.856,-3.856,-3.856,-3.856,-3.856,-3.856,-3.856,-3.856,-3.856,-3.856,-3.856,-3.856,-3.856,-3.856,-3.856,-3.856,-3.856,-3.856,-3.856,-3.856,-3.856,-3.856,-3.856,-3.856,-3.856,-3.856,-3.856,-3.856,-3.856,-3.856,-3.856,-3.856,-3.856,-3.856,-3.856,-3.856,-3.856,-3.856,-3.856,-3.856,-3.856,-3.856,-3.856,-3.864,-3.842,-3.0202,0.0,0.0,0.0,0.0,0.0,0.0,0.0,0.0,0.0,0.0,0.0,0.0,0.0,0.0,0.0,0.0,0.0,0.0,0.0,0.0,0.0,0.0,0.0,0.0,0.0,0.0,0.0,0.0,0.0,0.0,-3.1533,-3.1661,-3.1933,-3.1676,-3.1464,-3.1131,-3.0959,-3.09,-3.0984,-3.0984,-3.1836,-3.3281,-3.3695,-3.4258,-3.49,-3.5343,-3.5507,-3.5507,-3.5507,-3.5848,-3.6315,-3.6315,-3.6246,-3.6143,-3.6143,-3.6143,-3.6143,-3.6143,-3.6143,-3.6143,-3.6143,-3.6707,-3.7445,-3.7445,-3.7924,-3.856,-3.856,-3.856,-3.856,-3.856,-3.856,-3.856,-3.856,-3.856,-3.856,-3.856,-3.856,-3.856,-3.856,-3.856,-3.856,-3.856,-3.856,-3.856,-3.856,-3.856,-3.856,-3.856,-3.856,-3.856,-3.856,-3.856,-3.856,-3.856,-3.856,-3.856,-3.856,-3.856,-3.856,-3.856,-3.856,-3.856,-3.856,-3.856,-3.856,-3.856,-3.856,-3.856,-3.856,-3.8346,-3.8126,-2.9614,0.0,0.0,0.0,0.0,0.0,0.0,0.0,0.0,0.0,0.0,0.0,0.0,0.0,0.0,0.0,0.0,0.0,0.0,0.0,0.0,0.0,0.0,0.0,0.0,0.0,0.0,0.0,0.0,0.0,0.0,-3.0817,-3.0817,-3.0817,-3.0817,-3.0817,-3.0817,-3.0817,-3.09,-3.1067,-3.1067,-3.1497,-3.2174,-3.2242,-3.2556,-3.3116,-3.3706,-3.4131,-3.4294,-3.4294,-3.4621,-3.5092,-3.5092,-3.5092,-3.5092,-3.5092,-3.5092,-3.5092,-3.5092,-3.5254,-3.5578,-3.5578,-3.6385,-3.7445,-3.7445,-3.7924,-3.856,-3.856,-3.856,-3.856,-3.856,-3.856,-3.856,-3.856,-3.856,-3.856,-3.856,-3.856,-3.856,-3.856,-3.856,-3.856,-3.856,-3.856,-3.856,-3.856,-3.856,-3.856,-3.856,-3.856,-3.856,-3.856,-3.856,-3.856,-3.856,-3.856,-3.856,-3.856,-3.856,-3.856,-3.856,-3.856,-3.856,-3.856,-3.856,-3.856,-3.856,-3.8475,-3.8383,-3.8383,-3.7979,-3.7704,0.0,0.0,0.0,0.0,0.0,0.0,0.0,0.0,0.0,0.0,0.0,0.0,0.0,0.0,0.0,0.0,0.0,0.0,0.0,0.0,0.0,0.0,0.0,0.0,0.0,0.0,0.0,0.0,0.0,0.0,0.0,-3.0817,-3.0817,-3.0817,-3.0817,-3.0817,-3.0817,-3.0817,-3.0984,-3.1399,-3.1399,-3.1662,-3.2091,-3.1745,-3.1565,-3.1647,-3.2407,-3.3066,-3.341,-3.3492,-3.3492,-3.3492,-3.3492,-3.3492,-3.3492,-3.3492,-3.3492,-3.3492,-3.3492,-3.4049,-3.4702,-3.4702,-3.5838,-3.7205,-3.7285,-3.7845,-3.8481,-3.856,-3.856,-3.856,-3.856,-3.856,-3.856,-3.856,-3.856,-3.856,-3.856,-3.856,-3.856,-3.856,-3.856,-3.856,-3.856,-3.856,-3.856,-3.856,-3.856,-3.856,-3.856,-3.856,-3.856,-3.856,-3.856,-3.856,-3.856,-3.856,-3.856,-3.856,-3.856,-3.856,-3.856,-3.856,-3.856,-3.856,-3.8524,-3.8585,-3.8505,-3.8163,-3.7961,-3.7943,-3.7558,-3.7173,0.0,0.0,0.0,0.0,0.0,0.0,0.0,0.0,0.0,0.0,0.0,0.0,0.0,0.0,0.0,0.0,0.0,0.0,0.0,0.0,0.0,0.0,0.0,0.0,0.0,0.0,0.0,0.0,0.0,0.0,-3.0817,-3.0817,-3.0817,-3.0817,-3.0817,-3.0817,-3.0817,-3.0817,-3.0817,0.0,-3.0984,-3.0984,-3.1164,-3.1745,-3.2091,-3.2091,-3.2572,-3.2819,-3.2983,-3.3328,-3.3492,-3.3492,-3.3492,-3.3492,-3.3492,-3.3492,-3.3492,-3.3492,-3.3492,-3.364,-3.3804,-3.3804,-3.4458,-3.5514,-3.6143,-3.6947,-3.7765,-3.8402,-3.856,-3.856,-3.856,-3.856,-3.856,-3.856,-3.856,-3.856,-3.856,-3.856,-3.856,-3.856,-3.856,-3.856,-3.856,-3.856,-3.856,-3.856,-3.856,-3.856,-3.856,-3.856,-3.856,-3.856,-3.856,-3.856,-3.856,-3.856,-3.856,-3.856,-3.856,-3.856,-3.856,-3.856,-3.856,-3.856,-3.831,-3.8144,-3.8144,-3.7741,-3.7558,-3.7539,-3.7154,-3.6916,0.0,0.0,0.0,0.0,0.0,0.0,0.0,0.0,0.0,0.0,0.0,0.0,0.0,0.0,0.0,0.0,0.0,0.0,0.0,0.0,0.0,0.0,0.0,0.0,0.0,0.0,0.0,0.0,0.0,-3.0817,-3.0817,-3.0817,-3.0817,-3.0817,-3.0817,-3.0817,-3.0817,-3.0817,-3.0817,-3.0817,-3.0817,-3.0817,-3.0817,-3.1579,-3.2009,-3.2257,-3.267,-3.2901,-3.3148,-3.3394,-3.3492,-3.3492,-3.3492,-3.3492,-3.3492,-3.3492,-3.3492,-3.3492,-3.3492,-3.3804,-3.4131,-3.4131,-3.4702,-3.5497,-3.5982,-3.6466,-3.6867,-3.7268,-3.7667,-3.7924,-3.7508,-3.8004,-3.8481,-3.8084,-3.8322,-3.856,-3.856,-3.856,-3.856,-3.856,-3.856,-3.856,-3.856,-3.856,-3.856,-3.856,-3.856,-3.856,-3.856,-3.856,-3.856,-3.856,-3.856,-3.856,-3.856,-3.856,-3.856,-3.856,-3.856,-3.8469,-3.8346,-3.8346,-3.8346,-3.8346,-3.8126,-3.7924,-3.7723,-3.7338,-3.7136,-3.7136,-3.6732,-3.6531,0.0,0.0,0.0,0.0,0.0,0.0,0.0,0.0,0.0,0.0,0.0,0.0,0.0,0.0,0.0,0.0,0.0,0.0,0.0,0.0,0.0,0.0,0.0,0.0,0.0,0.0,0.0,0.0,0.0,-3.0817,-3.0817,-3.0817,-3.0817,-3.0817,-3.0817,-3.0817,-3.0817,-3.0817,-3.0817,-3.0817,-3.0817,-3.0817,-3.0817,-3.1316,-3.1662,-3.2009,-3.2407,-3.2819,-3.3148,-3.323,-3.3328,-3.3394,-3.3394,-3.3394,-3.3492,-3.3492,-3.3492,-3.3492,-3.3492,-3.3968,-3.4539,-3.4539,-3.5092,-3.5659,-3.5821,-3.5901,-3.5901,-3.6063,-3.6626,-3.7028,-3.6305,-3.7108,-3.8084,-3.7525,-3.7924,-3.8402,-3.856,-3.856,-3.856,-3.856,-3.856,-3.856,-3.856,-3.856,-3.856,-3.856,-3.856,-3.856,-3.856,-3.856,-3.856,-3.856,-3.856,-3.856,-3.856,-3.856,-3.856,-3.856,-3.8487,-3.8383,-3.8034,-3.7943,-3.7888,-3.7814,-3.7814,-3.7649,-3.7319,-3.6916,-3.6732,-3.6714,-3.6366,-3.6201,0.0,0.0,0.0,0.0,0.0,0.0,0.0,0.0,0.0,0.0,0.0,0.0,0.0,0.0,0.0,0.0,0.0,0.0,0.0,0.0,0.0,0.0,0.0,0.0,0.0,0.0,0.0,0.0,-3.0817,-3.0817,-3.0817,-3.0817,-3.0817,-3.0817,-3.0817,-3.0817,-3.0817,-3.0817,-3.0817,-3.0817,-3.0817,-3.0817,-3.0817,-3.1316,-3.1316,-3.0998,-3.1482,-3.173,-3.1813,-3.2174,-3.2587,-3.2901,-3.2901,-3.3148,-3.3492,-3.3492,-3.3492,-3.3492,-3.3492,-3.3558,-3.364,-3.364,-3.3722,-3.3968,-3.4702,-3.4946,-3.5109,-3.5901,-3.6207,-3.6224,-3.6143,-3.6305,-3.6626,-3.7268,-3.7525,-3.7765,-3.8481,-3.856,-3.856,-3.856,-3.856,-3.856,-3.856,-3.856,-3.856,-3.856,-3.856,-3.856,-3.856,-3.856,-3.856,-3.856,-3.856,-3.856,-3.856,-3.856,-3.856,-3.856,-3.831,-3.8071,-3.8016,-3.7686,-3.7338,-3.7007,-3.6989,-3.6895,-3.6916,-3.6494,-3.6292,-3.6292,-3.6237,-3.6201,0.0,0.0,0.0,0.0,0.0,0.0,0.0,0.0,0.0,0.0,0.0,0.0,0.0,0.0,0.0,0.0,0.0,0.0,0.0,0.0,0.0,0.0,0.0,0.0,0.0,0.0,0.0,0.0,-3.0817,-3.0817,-3.0817,-3.0817,-3.0817,-3.0817,-3.0817,-3.0817,-3.0817,-3.0817,-3.0817,-3.0817,-3.0817,-3.0817,-3.0832,-3.0984,-3.115,-3.1233,-3.1662,-3.1911,-3.1911,-3.2091,-3.2257,-3.2422,-3.2422,-3.2587,-3.2752,-3.2752,-3.2752,-3.2752,-3.2752,-3.2752,-3.2752,-3.2752,-3.2917,-3.3148,-3.3558,-3.3886,-3.4131,-3.4539,-3.5011,-3.5254,-3.4767,-3.5335,-3.6063,-3.5999,-3.6305,-3.6787,-3.7108,-3.7924,-3.856,-3.856,-3.856,-3.856,-3.856,-3.856,-3.856,-3.856,-3.856,-3.856,-3.856,-3.856,-3.856,-3.856,-3.856,-3.856,-3.856,-3.842,-3.8291,-3.8291,-3.7906,-3.7576,-3.7356,-3.7191,-3.6897,-3.6494,-3.6714,-3.6714,-3.6476,-3.6292,-3.6201,-3.6201,-3.6201,-3.6201,0.0,0.0,0.0,0.0,0.0,0.0,0.0,0.0,0.0,0.0,0.0,0.0,0.0,0.0,0.0,0.0,0.0,0.0,0.0,0.0,0.0,0.0,0.0,0.0,0.0,0.0,0.0,0.0,-3.0817,-3.0817,-3.0817,-3.0817,-3.0817,-3.0817,-3.0817,-3.0817,-3.0817,-3.0817,-3.0817,-3.0817,-3.0817,-3.0817,-3.0817,-3.0817,-3.0984,-3.1316,-3.1828,-3.2009,-3.2009,-3.2174,-3.2257,-3.2339,-3.2339,-3.2422,-3.2505,-3.2505,-3.2505,-3.2505,-3.2505,-3.2505,-3.2505,-3.2505,-3.2752,-3.2983,-3.2983,-3.3148,-3.3328,-3.3476,-3.3886,-3.4131,-3.3656,-3.4441,-3.5335,-3.4865,-3.5271,-3.5821,-3.6063,-3.7268,-3.8243,-3.8004,-3.8163,-3.8322,-3.8322,-3.8322,-3.8322,-3.856,-3.856,-3.856,-3.856,-3.856,-3.856,-3.856,-3.856,-3.8524,-3.8493,-3.8199,-3.7979,-3.7869,-3.7503,-3.7136,-3.6842,-3.6732,-3.6531,-3.6219,-3.6512,-3.6531,-3.6201,-3.6201,-3.6201,-3.6201,-3.6201,-3.6201,0.0,0.0,0.0,0.0,0.0,0.0,0.0,0.0,0.0,0.0,0.0,0.0,0.0,0.0,0.0,0.0,0.0,0.0,0.0,0.0,0.0,0.0,0.0,0.0,0.0,0.0,0.0,0.0,-3.0817,-3.0817,-3.0817,-3.0817,-3.0817,-3.0817,-3.0817,-3.0817,-3.0817,-3.0817,-3.0817,-3.0817,-3.0817,-3.0817,-3.0817,-3.0817,-3.0817,-3.0817,-3.1316,-3.1565,-3.1565,-3.2009,-3.2422,-3.2736,-3.2736,-3.3066,-3.3394,-3.3394,-3.3394,-3.3394,-3.3394,-3.3394,-3.3394,-3.3394,-3.3476,-3.3492,-3.3492,-3.3148,-3.2901,-3.3394,-3.323,-3.2983,-3.3394,-3.3574,-3.3804,-3.4621,-3.4865,-3.5109,-3.5901,-3.6787,-3.7188,-3.6385,-3.6867,-3.7445,-3.7445,-3.7445,-3.7685,-3.8481,-3.856,-3.856,-3.856,-3.856,-3.856,-3.856,-3.856,-3.8475,-3.8089,-3.8016,-3.7851,-3.7484,-3.7081,-3.6785,-3.6842,-3.6457,-3.6237,-3.6201,-3.6237,-3.6237,-3.6201,-3.6201,-3.6201,-3.6201,-3.6201,-3.6201,0.0,0.0,0.0,0.0,0.0,0.0,0.0,0.0,0.0,0.0,0.0,0.0,0.0,0.0,0.0,0.0,0.0,0.0,0.0,0.0,0.0,0.0,0.0,0.0,0.0,0.0,0.0,0.0,0.0,-3.0729,-3.0525,-3.0525,-3.0422,-3.0217,-3.0203,-3.0305,-3.051,-3.0525,-3.0525,-3.051,-3.0305,-3.032,-3.0525,-3.0525,-3.0627,-3.0817,-3.1316,-3.1316,-3.1067,-3.1248,-3.1414,-3.1497,-3.1497,-3.1662,-3.1745,-3.1745,-3.1978,-3.2226,-3.2226,-3.2407,-3.267,-3.267,-3.2834,-3.3066,-3.3066,-3.3148,-3.3312,-3.3476,-3.3394,-3.3312,-3.3492,-3.3492,-3.3558,-3.3886,-3.3984,-3.4049,-3.4376,-3.5578,-3.6466,-3.6126,-3.6385,-3.6546,-3.6546,-3.7028,-3.7525,-3.7765,-3.8243,-3.856,-3.856,-3.856,-3.853,-3.8273,-3.8236,-3.8071,-3.7668,-3.7411,-3.7209,-3.7062,-3.6659,-3.6439,-3.6439,-3.6292,-3.6201,-3.6201,-3.6201,-3.6201,-3.6201,-3.6201,-3.6201,-3.6201,-3.6201,-3.6201,0.0,0.0,0.0,0.0,0.0,0.0,0.0,0.0,0.0,0.0,0.0,0.0,0.0,0.0,0.0,0.0,0.0,0.0,0.0,0.0,0.0,0.0,0.0,0.0,0.0,0.0,0.0,0.0,0.0,0.0,-3.0446,-3.0328,-3.0167,-2.9866,-2.9866,-3.0049,-3.0269,-3.0269,-3.0269,-3.0269,-3.0049,-3.0064,-3.0269,-3.0269,-3.0305,-3.051,-3.0824,-3.0957,-3.1067,-3.1164,-3.1248,-3.1248,-3.1248,-3.1248,-3.1248,-3.1248,-3.1497,-3.1745,-3.1745,-3.1911,-3.2257,-3.2339,-3.2587,-3.2819,-3.2983,-3.3148,-3.3328,-3.3492,-3.341,-3.3328,-3.3492,-3.3492,-3.3492,-3.3492,-3.3492,-3.3492,-3.3492,-3.4621,-3.5578,-3.5254,-3.5497,-3.5659,-3.5659,-3.6143,-3.6626,-3.6947,-3.756,-3.7964,-3.7964,-3.8074,-3.8126,-3.7851,-3.7814,-3.7649,-3.7264,-3.6989,-3.6769,-3.6641,-3.6366,-3.6201,-3.6201,-3.6201,-3.6201,-3.6201,-3.6201,-3.6201,-3.6201,-3.6201,-3.6201,-3.6201,-3.6201,-3.6201,0.0,0.0,0.0,0.0,0.0,0.0,0.0,0.0,0.0,0.0,0.0,0.0,0.0,0.0,0.0,0.0,0.0,0.0,0.0,0.0,0.0,0.0,0.0,0.0,0.0,0.0,0.0,0.0,-3.051,-3.0416,-3.0401,-3.0012,-2.9837,-2.9837,-2.9837,-2.9932,-2.9932,-2.9932,-2.9932,-2.9932,-2.9837,-2.9837,-2.9932,-2.9932,-2.9851,-2.9866,-2.9866,-3.0462,-3.1452,-3.1978,-3.2174,-3.2174,-3.2174,-3.2174,-3.2174,-3.2174,-3.2174,-3.2174,-3.2174,-3.2174,-3.2257,-3.267,-3.2736,-3.2901,-3.3312,-3.3148,-3.2901,-3.341,-3.3148,-3.2901,-3.3394,-3.3492,-3.3492,-3.3492,-3.3492,-3.3492,-3.3492,-3.4131,-3.4539,-3.364,-3.4213,-3.4783,-3.4783,-3.4783,-3.5109,-3.5884,-3.6455,-3.6684,-3.6684,-3.7126,-3.7429,-3.7411,-3.7411,-3.7246,-3.6861,-3.6824,-3.6641,-3.6237,-3.6201,-3.6201,-3.6201,-3.6201,-3.6201,-3.6201,-3.6201,-3.6201,-3.6201,-3.6201,-3.6201,-3.6201,-3.6201,-3.6201,-2.9134,0.0,0.0,0.0,0.0,0.0,0.0,0.0,0.0,0.0,0.0,0.0,0.0,0.0,0.0,0.0,0.0,0.0,0.0,0.0,0.0,0.0,0.0,0.0,0.0,0.0,0.0,0.0,-3.0042,-2.9895,-2.9661,-2.9339,-2.9164,-2.9164,-2.9383,-2.9515,-2.9515,-2.9515,-2.9515,-2.95,-2.9266,-2.9281,-2.9515,-2.9515,-2.9647,-2.9866,-2.9866,-3.0049,-3.0388,-3.0721,-3.104,-3.1164,-3.1164,-3.1164,-3.1164,-3.1164,-3.1414,-3.1662,-3.1662,-3.1911,-3.2257,-3.2339,-3.2339,-3.2422,-3.2917,-3.2901,-3.2901,-3.341,-3.341,-3.3312,-3.3476,-3.3492,-3.3492,-3.3492,-3.3492,-3.3492,-3.3492,-3.3722,-3.3804,-3.3574,-3.3722,-3.3886,-3.3886,-3.4376,-3.4782,-3.4742,-3.5884,-3.6595,-3.639,-3.6945,-3.7319,-3.7026,-3.7007,-3.6824,-3.6421,-3.6384,-3.6329,-3.6219,-3.6201,-3.6201,-3.6201,-3.6201,-3.6201,-3.6201,-3.6201,-3.6201,-3.6201,-3.6201,-3.6201,-3.6201,-3.6201,-3.6201,-2.9008,0.0,0.0,0.0,0.0,0.0,-2.8988,-2.9251,0.0,0.0,0.0,0.0,0.0,0.0,0.0,0.0,0.0,0.0,0.0,0.0,0.0,0.0,0.0,0.0,0.0,-2.9778,-2.9866,-2.9866,-2.9734,-2.9515,-2.9193,-2.8988,-2.8886,-2.8886,-2.9076,-2.9178,-2.9178,-2.9178,-2.9178,-2.9164,-2.8973,-2.8988,-2.9178,-2.9178,-2.9281,-2.9456,-2.9456,-2.9529,-2.9676,-2.9866,-3.0129,-3.0437,-3.0568,-3.0627,-3.0642,-3.0773,-3.0984,-3.1233,-3.1233,-3.1414,-3.1662,-3.1828,-3.1911,-3.1994,-3.2422,-3.2587,-3.2587,-3.2917,-3.3081,-3.3246,-3.3246,-3.3312,-3.3492,-3.3492,-3.3492,-3.3492,-3.3492,-3.3492,-3.3492,-3.3492,-3.3492,-3.3444,-3.3286,-3.3742,-3.3953,-3.3498,-3.4412,-3.5262,-3.5424,-3.6017,-3.6446,-3.6529,-3.6567,-3.6476,-3.6237,-3.6201,-3.6201,-3.6201,-3.6201,-3.6201,-3.6201,-3.6201,-3.6201,-3.6201,-3.6201,-3.6201,-3.6201,-3.6201,-3.6201,-3.6201,-3.6201,-3.6201,-2.9061,-2.8973,-2.8944,0.0,0.0,0.0,-2.9134,-2.9471,-2.9734,0.0,0.0,0.0,0.0,0.0,0.0,0.0,0.0,0.0,0.0,0.0,0.0,0.0,0.0,0.0,-2.9354,-2.9588,-2.9749,-2.9749,-2.9486,-2.9193,-2.89,-2.8886,-2.8886,-2.8886,-2.8886,-2.8886,-2.8886,-2.8886,-2.8886,-2.8886,-2.8886,-2.8886,-2.8886,-2.8886,-2.8886,-2.8886,-2.8886,-2.9061,-2.9325,-2.9325,-2.9529,-2.9895,-3.0269,-3.0372,-3.0416,-3.0612,-3.0744,-3.0773,-3.0773,-3.0803,-3.09,-3.1316,-3.1399,-3.1482,-3.2009,-3.2091,-3.2091,-3.2174,-3.2422,-3.2736,-3.2819,-3.3066,-3.341,-3.3492,-3.3492,-3.3492,-3.3492,-3.346,-3.3429,-3.3429,-3.3429,-3.3333,-3.3096,-3.292,-3.2777,-3.2412,-3.28,-3.3365,-3.4009,-3.4539,-3.5157,-3.5829,-3.5903,-3.5978,-3.6052,-3.6052,-3.6126,-3.6201,-3.6201,-3.6201,-3.6201,-3.6201,-3.6201,-3.6201,-3.6201,-3.6201,-3.6201,-3.6201,-3.6201,-3.6201,-3.6201,-3.6201,0.0,0.0,0.0,0.0,0.0,0.0,-2.9764,-2.9983,-3.0071,0.0,0.0,0.0,0.0,0.0,0.0,0.0,0.0,0.0,0.0,0.0,0.0,0.0,0.0,0.0,-2.8988,-2.9047,-2.9076,-2.9076,-2.9017,-2.8959,-2.89,-2.8886,-2.8886,-2.8886,-2.8886,-2.8886,-2.8886,-2.8886,-2.8886,-2.8886,-2.8886,-2.8886,-2.8886,-2.8886,-2.8886,-2.8886,-2.8886,-2.893,-2.8988,-2.8988,-2.9325,-2.9866,-2.9939,-3.0035,-2.9968,-3.0027,-3.0217,-3.0437,-3.0437,-3.0612,-3.0817,-3.09,-3.09,-3.0984,-3.1482,-3.1662,-3.1745,-3.2091,-3.2257,-3.2422,-3.2736,-3.2901,-3.3066,-3.341,-3.3492,-3.3492,-3.3492,-3.3254,-3.3144,-3.3144,-3.3144,-3.3112,-3.3049,-3.2714,-3.2396,-3.2062,-3.2654,-3.3033,-3.2966,-3.3551,-3.4105,-3.4255,-3.4255,-3.4556,-3.5157,-3.5231,-3.553,-3.6126,-3.6201,-3.6201,-3.6201,-3.6201,-3.6201,-3.6201,-3.6201,-3.6201,-3.6201,-3.6201,-3.6201,-3.6201,-3.6201,-3.6201,0.0,0.0,0.0,-2.9617,0.0,0.0,0.0,-2.9866,-3.0049,0.0,0.0,0.0,0.0,0.0,0.0,0.0,0.0,0.0,0.0,0.0,0.0,0.0,0.0,0.0,-2.8886,-2.8886,-2.8886,-2.8886,-2.8886,-2.8886,-2.8886,-2.8886,-2.8886,-2.8886,-2.8886,-2.8886,-2.8886,-2.8886,-2.8886,-2.8886,-2.8886,-2.8886,-2.8886,-2.8886,-2.8886,-2.8886,-2.8886,-2.8886,-2.8886,-2.8886,-2.909,-2.9398,-2.9559,-2.9617,-2.9647,-2.9807,-3.0049,-3.0181,-3.0181,-3.0217,-3.0349,-3.0349,-3.0513,-3.0706,-3.1101,-3.1527,-3.1911,-3.2091,-3.2339,-3.2587,-3.2752,-3.2983,-3.323,-3.3394,-3.3349,-3.3222,-3.3222,-3.2936,-3.2682,-3.2682,-3.2555,-3.2444,-3.2444,-3.2285,-3.2046,-3.1713,-3.1959,-3.2341,-3.2544,-3.2968,-3.3348,-3.3727,-3.3802,-3.3954,-3.4406,-3.4782,-3.5157,-3.5605,-3.5605,-3.5605,-3.5605,-3.5605,-3.5754,-3.6201,-3.6201,-3.6201,-3.6201,-3.6201,-3.6201,-3.6201,-3.6201,-3.6201,0.0,0.0,0.0,0.0,0.0,-2.9983,0.0,0.0,0.0,0.0,0.0,0.0,0.0,0.0,0.0,0.0,0.0,0.0,0.0,0.0,0.0,0.0,0.0,0.0,0.0,-2.8886,-2.8886,-2.8886,-2.8886,-2.8886,-2.8886,-2.8886,-2.8886,-2.8886,-2.8886,-2.8886,-2.8886,-2.8886,-2.8886,-2.8886,-2.8886,-2.8886,-2.8886,-2.8886,-2.8886,-2.8886,-2.8886,-2.8886,-2.8886,-2.8886,-2.8886,-2.8915,-2.9178,-2.9281,-2.931,-2.9573,-2.972,-2.9764,-2.9764,-2.9807,-2.9866,-2.9866,-3.0108,-3.0409,-3.0743,-3.1257,-3.1729,-3.1729,-3.2058,-3.2386,-3.2468,-3.2796,-3.3204,-3.3286,-3.3063,-3.2857,-3.2857,-3.2571,-3.2316,-3.2316,-3.2046,-3.184,-3.1903,-3.1856,-3.1713,-3.1427,-3.1395,-3.1609,-3.2299,-3.2375,-3.2588,-3.3272,-3.3348,-3.3424,-3.3575,-3.418,-3.4632,-3.4782,-3.4782,-3.4782,-3.4782,-3.4782,-3.5082,-3.5754,-3.5903,-3.5978,-3.5978,-3.6126,-3.6201,-3.6201,-3.6201,-3.6201,0.0,0.0,0.0,0.0,-3.0685,0.0,0.0,0.0,-3.0284,-2.9881,0.0,0.0,0.0,0.0,0.0,0.0,0.0,0.0,0.0,0.0,0.0,0.0,0.0,0.0,0.0,-2.8886,-2.8886,-2.8886,-2.8886,-2.8886,-2.8886,-2.8886,-2.8886,-2.8886,-2.8886,-2.8886,-2.8886,-2.8886,-2.8886,-2.8886,-2.8886,-2.8886,-2.8886,-2.8886,-2.8886,-2.8886,-2.8886,-2.8886,-2.8886,-2.8886,-2.8886,-2.89,-2.893,-2.8944,-2.8944,-2.8988,-2.9178,-2.9427,-2.9427,-2.9617,-2.9866,-2.9866,-2.9947,-2.9947,-2.9991,-3.0101,-3.0145,-3.0145,-3.0468,-3.0871,-3.1274,-3.1675,-3.206,-3.2459,-3.2507,-3.2475,-3.2475,-3.2205,-3.1967,-3.1967,-3.1697,-3.1554,-3.1872,-3.1665,-3.1443,-3.1395,-3.1395,-3.1472,-3.1549,-3.1549,-3.1533,-3.1686,-3.1686,-3.1993,-3.2664,-3.2816,-3.3196,-3.3878,-3.3954,-3.3954,-3.3954,-3.3954,-3.3954,-3.4105,-3.4782,-3.5157,-3.5157,-3.5829,-3.6201,-3.6201,-3.6201,-3.6201,0.0,0.0,0.0,0.0,0.0,0.0,-3.0554,0.0,-3.0027,0.0,0.0,0.0,0.0,0.0,0.0,0.0,-2.9017,0.0,0.0,0.0,0.0,0.0,0.0,0.0,0.0,0.0,0.0,0.0,-2.8886,-2.8886,-2.8886,-2.8886,-2.8886,-2.8886,-2.8886,-2.8886,-2.8886,-2.8886,-2.8886,-2.8886,-2.8886,-2.8886,-2.8886,-2.8886,-2.8886,-2.8886,-2.8886,-2.8886,-2.8886,-2.8886,-2.8886,-2.8886,-2.8886,-2.8886,-2.8886,-2.8886,-2.8973,-2.909,-2.909,-2.9178,-2.9374,-2.9626,-2.9839,-2.9987,-3.0306,-3.052,-3.0671,-3.0671,-3.0766,-3.1007,-3.1471,-3.1711,-3.1871,-3.2332,-3.2269,-3.2126,-3.2126,-3.1856,-3.1617,-3.1617,-3.149,-3.1443,-3.1586,-3.149,-3.1395,-3.1395,-3.1395,-3.1395,-3.1395,-3.1395,-3.1395,-3.1395,-3.1395,-3.1549,-3.184,-3.2299,-3.274,-3.3044,-3.312,-3.312,-3.312,-3.312,-3.3575,-3.4481,-3.4857,-3.5231,-3.568,-3.6052,-3.6201,-3.6201,-3.6201,-3.6201,-3.0817,0.0,0.0,0.0,0.0,0.0,0.0,0.0,0.0,0.0,0.0,0.0,0.0,0.0,0.0,0.0,0.0,-2.8973,0.0,0.0,0.0,0.0,0.0,0.0,0.0,0.0,0.0,-2.8886,-2.8886,-2.8886,-2.8886,-2.8886,-2.8886,-2.8886,-2.8886,-2.8886,-2.8886,-2.8886,-2.8886,-2.8886,-2.8886,-2.8886,-2.8886,-2.8886,-2.8886,-2.8886,-2.8886,-2.8886,-2.8886,-2.8886,-2.8886,-2.8886,-2.8886,-2.8886,-2.8886,-2.8886,-2.8886,-2.8886,-2.8886,-2.8886,-2.8964,-2.9212,-2.9531,-2.9725,-3.0118,-3.0363,-3.0559,-3.0559,-3.0639,-3.0797,-3.1115,-3.1352,-3.1589,-3.1905,-3.1873,-3.1776,-3.1776,-3.157,-3.1395,-3.1395,-3.1395,-3.1395,-3.1395,-3.1395,-3.1395,-3.1395,-3.1395,-3.1395,-3.1395,-3.1395,-3.1395,-3.1395,-3.1395,-3.1395,-3.1395,-3.1916,-3.2299,-3.2299,-3.2299,-3.2299,-3.2299,-3.2299,-3.2892,-3.4331,-3.4556,-3.5082,-3.5903,-3.6052,-3.6201,-3.6201,-3.6201,-3.6201,0.0,0.0,0.0,-3.0817,0.0,0.0,0.0,0.0,-3.0416,0.0,0.0,0.0,0.0,-2.9105,-2.89,-2.89,-2.89,0.0,0.0,0.0,0.0,0.0,0.0,0.0,0.0,0.0,0.0,-2.8886,-2.8886,-2.8886,-2.8886,-2.8886,-2.8886,-2.8886,-2.8886,-2.8886,-2.8886,-2.8886,-2.8886,-2.8886,-2.8886,-2.8886,-2.8886,-2.8886,-2.8886,-2.8886,-2.8886,-2.8886,-2.8886,-2.8886,-2.8886,-2.8886,-2.8886,-2.8886,-2.8886,-2.8886,-2.8886,-2.8886,-2.8886,-2.8886,-2.8886,-2.8886,-2.89,-2.89,-2.8978,-2.8993,-2.8993,-2.8993,-2.9242,-2.9568,-2.9553,-3.019,-3.0825,-3.0825,-3.1118,-3.1411,-3.1411,-3.1395,-3.1395,-3.1395,-3.1395,-3.1395,-3.1395,-3.1395,-3.1395,-3.1395,-3.1395,-3.1395,-3.1395,-3.1395,-3.1395,-3.1395,-3.1395,-3.1395,-3.1395,-3.1395,-3.1472,-3.1472,-3.1472,-3.1472,-3.1472,-3.1472,-3.184,-3.2664,-3.3424,-3.4255,-3.5007,-3.5829,-3.6201,-3.6201,-3.6201,-3.6201,0.0,0.0,-3.0817,-3.0817,0.0,0.0,0.0,0.0,0.0,0.0,0.0,0.0,0.0,-2.9427,-2.9208,-2.9208,-2.9032,-2.8886,0.0,0.0,0.0,0.0,0.0,0.0,0.0,0.0,0.0,-2.8886,-2.8886,-2.8886,-2.8886,-2.8886,-2.8886,-2.8886,-2.8886,-2.8886,-2.8886,-2.8886,-2.8886,-2.8886,-2.8886,-2.8886,-2.8886,-2.8886,-2.8886,-2.8886,-2.8886,-2.8886,-2.8886,-2.8886,-2.8886,-2.8886,-2.8886,-2.8886,-2.8886,-2.8886,-2.8886,-2.8886,-2.8886,-2.8886,-2.8886,-2.8886,-2.8886,-2.8886,-2.8886,-2.8886,-2.8886,-2.8886,-2.8978,-2.9134,-2.9446,-2.9694,-3.0004,-3.0299,-3.0454,-3.0608,-3.0933,-3.101,-3.1087,-3.1318,-3.1395,-3.1395,-3.1395,-3.1395,-3.1395,-3.1395,-3.1395,-3.1395,-3.1395,-3.1395,-3.1395,-3.1395,-3.1395,-3.1395,-3.1395,-3.1395,-3.1395,-3.1395,-3.1395,-3.1395,-3.1395,-3.1395,-3.1763,-3.2588,-3.2892,-3.3424,-3.418,-3.4481,-3.4857,-3.5381,-3.5381,-3.568,-3.0817,-3.0817,0.0,-3.0817,-3.0817,0.0,-3.0817,0.0,-3.0525,0.0,0.0,0.0,0.0,-2.9764,-2.9515,-2.9398,-2.9193,-2.9017,0.0,-2.8886,0.0,0.0,0.0,0.0,0.0,0.0,-2.8886,-2.8886,-2.8886,-2.8886,0.0,-2.8886,-2.8886,-2.8886,-2.8886,-2.8886,-2.8886,-2.8886,-2.8886,-2.8886,-2.8886,-2.8886,-2.8886,-2.8886,-2.8886,-2.8886,-2.8886,-2.8886,-2.8886,-2.8886,-2.8886,-2.8886,-2.8886,-2.8886,-2.8886,-2.8886,-2.8886,-2.8886,-2.8886,-2.8886,-2.8886,-2.8886,-2.8886,-2.8886,-2.8886,-2.8886,-2.8915,-2.9032,-2.8973,-2.8993,-2.9516,-2.9691,-2.9834,-3.0222,-3.0454,-3.0686,-3.0933,-3.101,-3.1087,-3.1318,-3.1395,-3.1395,-3.1395,-3.1395,-3.1395,-3.1395,-3.1395,-3.1395,-3.1395,-3.1395,-3.1395,-3.1395,-3.1395,-3.1395,-3.1395,-3.1395,-3.1395,-3.1395,-3.1395,-3.1395,-3.1395,-3.1395,-3.1827,-3.2786,-3.267,-3.3035,-3.4008,-3.3871,-3.4105,-3.4556,-3.4556,-3.4857]}]]